[[{"header":{"parameterUnit":"m.s-1","parameterCategory":1,"la1":30.6,"la2":29.2853,"lo1":-89.7004,"lo2":-87.6739,"dy":0.0162,"dx":0.0183,"nx":112,"ny":82,"refTime":"2023-04-16T06:00:00:Z","depth":0,"parameterNumber":2,"parameterNumberName":"U-component_of_WINDS"},"data":[0.0,0.0,0.0,0.0,0.0,0.0,0.0,0.0,0.0,0.0,0.0,0.0,0.0,0.0,0.0,0.0,0.0,0.0,0.0,0.0,0.0,0.0,0.0,0.0,0.0,0.0,0.0,0.0,0.0,0.0,0.0,0.0,0.0,0.0,0.0,0.0,0.0,0.0,0.0,0.0,0.0,0.0,0.0,0.0,0.0,0.0,0.0,0.0,0.0,0.0,0.0,0.0,0.0,0.0,0.0,0.0,0.0,0.0,0.0,0.0,0.0,0.0,0.0,0.0,0.0,0.0,0.0,0.0,0.0,0.0,0.0,0.0,0.0,0.0,0.0,0.0,0.0,0.0,0.0,0.0,0.0,0.0,0.0,0.0,0.0,0.0,0.0,0.0,0.0,0.0,-6.2705,-6.278,-6.2904,-6.3002,-6.3123,-6.3123,-6.3123,-6.3123,0.0,0.0,0.0,0.0,0.0,0.0,0.0,0.0,0.0,0.0,0.0,0.0,0.0,0.0,0.0,0.0,0.0,0.0,0.0,0.0,0.0,0.0,0.0,0.0,0.0,0.0,0.0,0.0,0.0,0.0,0.0,0.0,0.0,0.0,0.0,0.0,0.0,0.0,0.0,0.0,0.0,0.0,0.0,0.0,0.0,0.0,0.0,0.0,0.0,0.0,0.0,0.0,0.0,0.0,0.0,0.0,0.0,0.0,0.0,0.0,0.0,0.0,0.0,0.0,0.0,0.0,0.0,0.0,0.0,0.0,0.0,0.0,0.0,0.0,0.0,0.0,0.0,0.0,0.0,0.0,0.0,0.0,0.0,0.0,0.0,0.0,0.0,0.0,0.0,0.0,0.0,0.0,0.0,0.0,0.0,0.0,0.0,0.0,0.0,0.0,0.0,0.0,0.0,0.0,-6.2219,-6.2755,-6.2805,-6.283,-6.2855,-6.2855,-6.2855,-6.2855,0.0,0.0,0.0,0.0,0.0,0.0,0.0,0.0,0.0,0.0,0.0,0.0,0.0,0.0,0.0,0.0,0.0,0.0,0.0,0.0,0.0,0.0,0.0,0.0,0.0,0.0,0.0,0.0,0.0,0.0,0.0,0.0,0.0,0.0,0.0,0.0,0.0,0.0,0.0,0.0,0.0,0.0,0.0,0.0,0.0,0.0,0.0,0.0,0.0,0.0,0.0,0.0,0.0,0.0,0.0,0.0,0.0,0.0,0.0,0.0,0.0,0.0,0.0,0.0,0.0,0.0,0.0,0.0,0.0,0.0,0.0,0.0,0.0,0.0,0.0,0.0,0.0,0.0,0.0,0.0,0.0,0.0,0.0,0.0,0.0,0.0,0.0,0.0,0.0,0.0,0.0,0.0,0.0,0.0,0.0,0.0,0.0,0.0,0.0,0.0,0.0,0.0,0.0,-6.1579,-6.1875,-6.2298,-6.2629,-6.278,-6.278,-6.278,-6.278,-6.278,-6.2904,0.0,0.0,0.0,0.0,0.0,0.0,0.0,0.0,0.0,0.0,0.0,0.0,0.0,0.0,0.0,0.0,0.0,0.0,0.0,0.0,0.0,0.0,0.0,0.0,0.0,0.0,0.0,0.0,0.0,0.0,0.0,0.0,0.0,0.0,0.0,0.0,0.0,0.0,0.0,0.0,0.0,0.0,0.0,0.0,0.0,0.0,0.0,0.0,0.0,0.0,0.0,0.0,0.0,0.0,0.0,0.0,0.0,0.0,0.0,0.0,0.0,0.0,0.0,0.0,0.0,0.0,0.0,0.0,0.0,0.0,0.0,0.0,0.0,0.0,0.0,0.0,0.0,0.0,0.0,0.0,0.0,0.0,0.0,0.0,0.0,0.0,0.0,0.0,0.0,0.0,0.0,0.0,0.0,0.0,0.0,0.0,0.0,0.0,0.0,0.0,0.0,0.0,-6.0973,-6.121,-6.1398,-6.1676,-6.1875,-6.2058,-6.2094,-6.2219,-6.2567,-6.2603,0.0,0.0,0.0,0.0,0.0,0.0,0.0,0.0,0.0,0.0,0.0,0.0,0.0,0.0,0.0,0.0,0.0,0.0,0.0,0.0,0.0,0.0,0.0,0.0,0.0,0.0,0.0,0.0,0.0,0.0,0.0,0.0,0.0,0.0,0.0,0.0,0.0,0.0,0.0,0.0,0.0,0.0,0.0,0.0,0.0,0.0,0.0,0.0,0.0,0.0,0.0,0.0,0.0,0.0,0.0,0.0,0.0,0.0,0.0,0.0,0.0,0.0,0.0,0.0,0.0,0.0,0.0,0.0,0.0,0.0,0.0,0.0,0.0,0.0,0.0,0.0,0.0,0.0,0.0,0.0,0.0,0.0,0.0,0.0,0.0,0.0,0.0,0.0,0.0,0.0,0.0,0.0,0.0,0.0,0.0,0.0,0.0,0.0,0.0,0.0,0.0,0.0,-5.9971,-5.9917,-5.996,-5.9373,-5.9258,-5.9946,-6.0017,-6.0567,-6.1888,-6.1951,0.0,0.0,0.0,0.0,0.0,0.0,0.0,0.0,0.0,0.0,0.0,0.0,0.0,0.0,0.0,0.0,0.0,0.0,0.0,0.0,0.0,0.0,0.0,0.0,0.0,0.0,0.0,0.0,0.0,0.0,0.0,0.0,0.0,0.0,0.0,0.0,0.0,0.0,0.0,0.0,0.0,0.0,0.0,0.0,0.0,0.0,0.0,0.0,0.0,0.0,0.0,0.0,0.0,0.0,0.0,0.0,0.0,0.0,0.0,0.0,0.0,0.0,0.0,0.0,0.0,0.0,0.0,0.0,0.0,0.0,0.0,0.0,0.0,0.0,0.0,0.0,0.0,0.0,0.0,0.0,0.0,0.0,0.0,0.0,0.0,0.0,0.0,0.0,0.0,0.0,0.0,0.0,0.0,0.0,0.0,0.0,0.0,0.0,0.0,0.0,0.0,0.0,-5.8618,-5.8908,-5.8532,-5.8601,-5.8823,-5.9109,-5.9081,-5.9552,-6.0539,0.0,0.0,0.0,0.0,0.0,0.0,0.0,0.0,0.0,0.0,0.0,0.0,0.0,0.0,0.0,0.0,0.0,0.0,0.0,0.0,0.0,0.0,0.0,0.0,0.0,0.0,0.0,0.0,0.0,0.0,0.0,0.0,0.0,0.0,0.0,0.0,0.0,0.0,0.0,0.0,0.0,0.0,0.0,0.0,0.0,0.0,0.0,0.0,0.0,0.0,0.0,0.0,0.0,0.0,0.0,0.0,0.0,0.0,0.0,0.0,0.0,0.0,0.0,0.0,0.0,0.0,0.0,0.0,0.0,0.0,0.0,0.0,0.0,0.0,0.0,0.0,0.0,0.0,0.0,0.0,0.0,0.0,0.0,0.0,0.0,0.0,0.0,0.0,0.0,0.0,0.0,0.0,0.0,0.0,0.0,0.0,0.0,0.0,0.0,0.0,0.0,0.0,-5.6775,-5.7199,-5.7455,-5.6993,-5.7208,-5.7471,-5.7683,-5.7718,-5.8125,-5.9082,0.0,0.0,0.0,0.0,0.0,0.0,0.0,0.0,0.0,0.0,0.0,0.0,0.0,0.0,0.0,0.0,0.0,0.0,0.0,0.0,0.0,0.0,0.0,0.0,0.0,0.0,0.0,0.0,0.0,0.0,0.0,0.0,0.0,0.0,0.0,0.0,0.0,0.0,0.0,0.0,0.0,0.0,0.0,0.0,0.0,0.0,0.0,0.0,0.0,0.0,0.0,0.0,0.0,0.0,0.0,0.0,0.0,0.0,0.0,0.0,0.0,0.0,0.0,0.0,0.0,0.0,0.0,0.0,0.0,0.0,0.0,0.0,0.0,0.0,0.0,0.0,0.0,0.0,0.0,0.0,0.0,0.0,0.0,0.0,0.0,0.0,0.0,0.0,0.0,0.0,0.0,0.0,0.0,0.0,0.0,0.0,0.0,0.0,0.0,0.0,0.0,0.0,-5.6372,-5.5753,-5.5407,-5.5407,-5.4849,-5.4805,-5.5497,-5.5566,-5.6198,0.0,0.0,0.0,0.0,0.0,0.0,0.0,0.0,0.0,0.0,0.0,0.0,0.0,0.0,0.0,0.0,0.0,0.0,0.0,0.0,0.0,0.0,0.0,0.0,0.0,0.0,0.0,0.0,0.0,0.0,0.0,0.0,0.0,0.0,0.0,0.0,0.0,0.0,0.0,0.0,0.0,0.0,0.0,0.0,0.0,0.0,0.0,0.0,0.0,0.0,0.0,0.0,0.0,0.0,0.0,0.0,0.0,0.0,0.0,0.0,0.0,0.0,0.0,0.0,0.0,0.0,0.0,0.0,0.0,0.0,0.0,0.0,0.0,0.0,0.0,0.0,0.0,0.0,0.0,0.0,0.0,0.0,0.0,0.0,0.0,0.0,0.0,0.0,0.0,0.0,0.0,0.0,0.0,0.0,0.0,0.0,0.0,0.0,0.0,0.0,0.0,0.0,0.0,-5.4936,-5.4969,-5.5002,-5.4489,-5.4344,-5.4407,-5.4613,-5.4743,-5.5213,-5.6163,0.0,0.0,0.0,0.0,0.0,0.0,0.0,0.0,0.0,0.0,0.0,0.0,0.0,0.0,0.0,0.0,0.0,0.0,0.0,0.0,0.0,0.0,0.0,0.0,0.0,0.0,0.0,0.0,0.0,0.0,0.0,0.0,0.0,0.0,0.0,0.0,0.0,0.0,0.0,0.0,0.0,0.0,0.0,0.0,0.0,0.0,0.0,0.0,0.0,0.0,0.0,0.0,0.0,0.0,0.0,0.0,0.0,0.0,0.0,0.0,0.0,0.0,0.0,0.0,0.0,0.0,0.0,0.0,0.0,0.0,0.0,0.0,0.0,0.0,0.0,0.0,0.0,0.0,0.0,0.0,0.0,0.0,0.0,0.0,0.0,0.0,0.0,0.0,0.0,0.0,0.0,0.0,0.0,0.0,0.0,0.0,0.0,0.0,0.0,0.0,0.0,0.0,-5.4022,-5.4224,-5.436,-5.3916,-5.4013,-5.411,-5.411,-5.4239,-5.451,-5.4957,0.0,0.0,0.0,0.0,0.0,0.0,0.0,0.0,0.0,0.0,0.0,0.0,0.0,0.0,0.0,0.0,0.0,0.0,0.0,0.0,0.0,0.0,0.0,0.0,0.0,0.0,0.0,0.0,0.0,0.0,0.0,0.0,0.0,0.0,0.0,0.0,0.0,0.0,0.0,0.0,0.0,0.0,0.0,0.0,0.0,0.0,0.0,0.0,0.0,0.0,0.0,0.0,0.0,0.0,0.0,0.0,0.0,0.0,0.0,0.0,0.0,0.0,0.0,0.0,0.0,0.0,0.0,0.0,0.0,0.0,0.0,0.0,0.0,0.0,0.0,0.0,0.0,0.0,0.0,0.0,0.0,0.0,0.0,0.0,0.0,0.0,0.0,0.0,0.0,0.0,0.0,0.0,0.0,0.0,0.0,0.0,0.0,0.0,0.0,0.0,0.0,0.0,-5.3585,-5.3618,-5.3684,-5.3684,-5.3849,-5.398,-5.398,-5.398,-5.398,-5.398,0.0,0.0,0.0,0.0,0.0,0.0,0.0,0.0,0.0,0.0,0.0,0.0,0.0,0.0,0.0,0.0,0.0,0.0,0.0,0.0,0.0,0.0,0.0,0.0,0.0,0.0,0.0,0.0,0.0,0.0,0.0,0.0,0.0,0.0,0.0,0.0,0.0,0.0,0.0,0.0,0.0,0.0,0.0,0.0,0.0,0.0,0.0,0.0,0.0,0.0,0.0,0.0,0.0,0.0,0.0,0.0,0.0,0.0,0.0,0.0,-5.7368,-5.7954,0.0,0.0,0.0,0.0,0.0,0.0,0.0,0.0,0.0,0.0,0.0,0.0,0.0,0.0,0.0,0.0,0.0,0.0,0.0,0.0,0.0,0.0,0.0,0.0,0.0,0.0,0.0,0.0,0.0,0.0,0.0,0.0,0.0,0.0,0.0,0.0,0.0,0.0,0.0,0.0,-5.3585,-5.3517,-5.3551,-5.3551,-5.3651,-5.3783,-5.3783,-5.3915,-5.398,-5.398,-5.4151,0.0,0.0,0.0,0.0,0.0,0.0,0.0,0.0,0.0,0.0,0.0,0.0,0.0,0.0,0.0,0.0,0.0,0.0,0.0,0.0,0.0,0.0,0.0,0.0,0.0,0.0,0.0,0.0,0.0,0.0,0.0,0.0,0.0,0.0,0.0,0.0,0.0,0.0,0.0,0.0,0.0,0.0,0.0,0.0,0.0,0.0,0.0,0.0,0.0,0.0,0.0,0.0,0.0,0.0,0.0,0.0,0.0,0.0,0.0,-5.6691,-5.7034,0.0,0.0,0.0,0.0,0.0,0.0,0.0,0.0,0.0,0.0,0.0,0.0,0.0,0.0,0.0,0.0,0.0,0.0,0.0,0.0,0.0,0.0,0.0,0.0,0.0,0.0,0.0,0.0,0.0,0.0,0.0,0.0,0.0,0.0,0.0,0.0,0.0,0.0,0.0,0.0,-5.2447,-5.2378,-5.2485,-5.2868,-5.3007,-5.3179,-5.3584,-5.3718,-5.3751,-5.3751,-5.3751,0.0,0.0,0.0,0.0,0.0,0.0,0.0,0.0,0.0,0.0,0.0,0.0,0.0,0.0,0.0,0.0,0.0,0.0,0.0,0.0,0.0,0.0,0.0,0.0,0.0,0.0,0.0,0.0,0.0,0.0,0.0,0.0,0.0,0.0,0.0,0.0,0.0,0.0,0.0,0.0,0.0,0.0,0.0,0.0,0.0,0.0,0.0,0.0,0.0,0.0,0.0,0.0,0.0,-5.5312,-5.5231,-5.5035,-5.5035,-5.4985,-5.4902,-5.5756,-5.5836,-5.5434,-5.6844,0.0,0.0,0.0,0.0,0.0,0.0,0.0,0.0,0.0,0.0,0.0,0.0,0.0,0.0,0.0,0.0,0.0,0.0,0.0,0.0,0.0,0.0,-5.3934,-5.4694,-5.4274,-5.3965,-5.4694,0.0,0.0,0.0,0.0,0.0,0.0,0.0,0.0,0.0,0.0,0.0,-5.1182,-5.1107,-5.1331,-5.2023,-5.2092,-5.2378,-5.3007,-5.3076,-5.3076,-5.3076,-5.3076,-5.3144,0.0,0.0,0.0,0.0,0.0,0.0,0.0,0.0,0.0,0.0,0.0,0.0,0.0,0.0,0.0,0.0,0.0,0.0,0.0,0.0,0.0,0.0,0.0,0.0,0.0,0.0,0.0,0.0,0.0,0.0,0.0,0.0,-5.5312,-5.5312,0.0,0.0,0.0,0.0,0.0,0.0,0.0,0.0,0.0,0.0,0.0,0.0,0.0,-5.5312,-5.5312,-5.5312,-5.5312,-5.5312,-5.5312,-5.4902,-5.419,-5.419,-5.375,-5.3069,-5.3965,0.0,-5.5312,-5.5555,0.0,0.0,0.0,0.0,0.0,0.0,0.0,0.0,0.0,0.0,0.0,0.0,0.0,0.0,0.0,0.0,0.0,0.0,0.0,0.0,0.0,0.0,-5.2922,-5.3011,-5.2935,-5.2922,-5.3024,-5.4264,-5.5118,-5.4543,-5.4413,-5.4031,0.0,0.0,0.0,0.0,0.0,0.0,-5.1107,-5.1107,-5.1145,-5.1257,-5.1257,-5.1294,-5.1406,-5.1406,-5.1406,-5.1406,-5.1406,-5.1406,-5.1443,-5.1406,0.0,0.0,0.0,0.0,0.0,0.0,0.0,0.0,0.0,0.0,0.0,0.0,0.0,0.0,0.0,0.0,0.0,0.0,0.0,0.0,0.0,0.0,0.0,0.0,0.0,0.0,0.0,0.0,0.0,-5.3836,-5.3836,-5.3836,-5.3836,-5.3836,0.0,0.0,0.0,0.0,0.0,0.0,0.0,0.0,0.0,-5.3836,-5.3836,-5.3836,-5.3836,-5.3836,-5.3836,-5.3836,-5.3836,-5.3652,-5.3258,-5.3258,-5.3069,-5.2698,-5.3113,-5.3477,-5.3922,-5.4902,-5.5026,-5.4569,0.0,0.0,0.0,0.0,-5.4179,-5.4485,-5.4008,-5.3836,-5.3836,-5.3836,0.0,0.0,0.0,0.0,0.0,0.0,0.0,-5.2698,-5.2698,-5.2698,-5.2698,-5.2698,-5.2421,-5.2144,-5.2144,-5.243,-5.2744,-5.2839,-5.2555,-5.2122,-5.155,-5.1438,0.0,0.0,0.0,-5.0229,-4.9757,-4.9678,-4.9876,-5.0345,-5.0422,-5.0615,-5.107,-5.1107,-5.1107,-5.1107,-5.1107,-5.1107,-5.1107,-5.1107,-5.1107,0.0,0.0,0.0,0.0,0.0,0.0,0.0,0.0,0.0,0.0,0.0,0.0,0.0,0.0,0.0,0.0,0.0,0.0,0.0,0.0,0.0,0.0,0.0,0.0,0.0,0.0,0.0,0.0,-5.2698,-5.2698,-5.2698,-5.2698,-5.2698,0.0,0.0,0.0,0.0,0.0,0.0,-5.2698,-5.2698,-5.2698,-5.2698,-5.2698,-5.2698,-5.2698,-5.2698,-5.2698,-5.2698,-5.2698,-5.2698,-5.2698,-5.2698,-5.2698,-5.2698,-5.2698,-5.2698,-5.2788,-5.4094,-5.4232,-5.3664,-5.3664,-5.4062,-5.4485,-5.3201,-5.3113,-5.3577,-5.2891,-5.2698,-5.2698,-5.2698,-5.2698,-5.2698,-5.2698,0.0,0.0,0.0,0.0,-5.2698,-5.2698,-5.2575,-5.2452,-5.2452,-5.1929,-5.1436,-5.1436,-5.0913,-5.0574,-5.1097,-5.079,-5.0418,-5.0338,-5.0335,0.0,-4.9644,-4.955,-4.9309,-4.8687,-4.8604,-4.8852,-4.947,-4.955,-4.9829,-5.0422,-5.0461,-5.0461,-5.0461,-5.0461,-5.0461,-5.0461,-5.0461,-5.0461,-5.0461,0.0,0.0,0.0,0.0,0.0,0.0,0.0,0.0,0.0,0.0,0.0,0.0,0.0,0.0,0.0,0.0,0.0,0.0,0.0,0.0,0.0,0.0,0.0,0.0,0.0,0.0,0.0,0.0,0.0,-5.2698,-5.2698,0.0,0.0,0.0,0.0,-5.2698,-5.2698,-5.2698,-5.2698,-5.2698,-5.2698,-5.2698,-5.2698,-5.2698,-5.2698,-5.2698,-5.2698,-5.2698,-5.2698,-5.2698,-5.2698,-5.2698,-5.2698,-5.2698,-5.2698,-5.2698,-5.2729,-5.2788,-5.2788,-5.2743,-5.2743,-5.2788,-5.2833,-5.2743,-5.2698,-5.2743,-5.2729,-5.2698,-5.2698,-5.2698,-5.2698,-5.2698,-5.2698,-5.2698,0.0,0.0,-5.2698,-5.2698,-5.2698,-5.2236,-5.1744,-5.1744,-5.1251,-5.0759,-5.0759,-5.0205,-4.9743,-4.9774,-4.9743,-4.9539,-4.883,0.0,-4.8676,-4.8646,-4.8646,-4.8646,-4.8604,-4.8604,-4.8604,-4.8646,-4.8646,-4.8687,-4.8728,-4.8728,-4.8728,-4.8728,-4.8728,-4.8728,-4.8728,-4.8728,-4.8728,-4.8728,-4.8728,0.0,0.0,0.0,0.0,0.0,0.0,0.0,0.0,0.0,0.0,0.0,0.0,0.0,0.0,0.0,0.0,0.0,0.0,0.0,0.0,0.0,0.0,0.0,0.0,0.0,0.0,0.0,0.0,-5.2698,-5.2563,0.0,-5.2653,-5.2563,-5.2442,-5.2442,-5.2608,-5.2608,-5.2442,-5.2608,-5.2698,-5.2698,-5.2698,-5.2698,-5.2698,-5.2698,-5.2698,-5.2698,-5.2698,-5.2698,-5.2698,-5.2698,-5.2698,-5.2698,-5.2698,-5.2698,-5.2698,-5.2698,-5.2698,-5.2698,-5.2698,-5.2698,-5.2698,-5.2698,-5.2698,-5.2698,-5.2698,-5.2698,-5.2698,-5.2698,-5.2698,-5.2698,-5.2698,-5.2698,-5.2698,-5.2698,-5.2256,-5.1843,-5.2007,-5.1308,-5.0686,-5.0949,-5.0383,-4.9849,-5.0051,-4.9497,-4.9004,-4.9004,-4.9004,-4.8912,-4.8666,-4.8604,-4.8604,-4.8604,-4.8604,-4.8604,-4.8604,-4.8604,-4.8604,-4.8604,-4.8604,-4.8604,-4.8604,-4.8604,-4.8604,-4.8604,-4.8604,-4.8604,-4.8604,-4.8604,-4.8604,-4.8604,-4.8604,-4.8728,0.0,0.0,0.0,0.0,0.0,0.0,0.0,0.0,0.0,0.0,0.0,0.0,0.0,0.0,0.0,0.0,0.0,0.0,0.0,0.0,0.0,0.0,0.0,0.0,0.0,-5.2518,-5.2427,-5.2427,-5.2291,-5.2291,-5.2458,-5.2291,-5.217,-5.217,-5.2427,-5.2518,-5.2306,-5.2563,-5.2698,-5.2698,-5.2698,-5.2698,-5.2698,-5.2698,-5.2698,-5.2698,-5.2698,-5.2698,-5.2698,-5.2698,-5.2698,-5.2698,-5.2698,-5.2698,-5.2698,-5.2698,-5.2698,-5.2698,-5.2698,-5.2698,-5.2698,-5.2698,-5.2698,-5.2698,-5.2698,-5.2698,-5.2698,-5.2698,-5.2698,-5.2698,-5.2698,-5.2544,-5.2315,-5.227,-5.1645,-5.1005,-5.108,-5.0415,-4.9765,-5.0026,-4.9463,-4.8932,-4.9059,-4.8733,-4.8427,-4.8427,-4.848,-4.8604,-4.8604,-4.8604,-4.8604,-4.8604,-4.8604,-4.8604,-4.8604,-4.8604,-4.8604,-4.8604,-4.8604,-4.8604,-4.8604,-4.8389,-4.8358,-4.8604,-4.8389,-4.8358,-4.8604,-4.8604,-4.8604,-4.8604,-4.8604,-4.8604,-4.8604,0.0,0.0,0.0,0.0,0.0,0.0,0.0,0.0,0.0,0.0,0.0,0.0,0.0,0.0,0.0,0.0,0.0,0.0,0.0,0.0,0.0,0.0,0.0,-5.2215,-5.2109,-5.2002,-5.2002,-5.2002,-5.2002,-5.2002,-5.2002,-5.2002,-5.2002,-5.22,-5.2306,-5.2306,-5.2518,-5.2684,-5.2684,-5.2684,-5.2684,-5.2684,-5.2684,-5.2653,-5.2698,-5.2698,-5.2698,-5.2698,-5.2698,-5.2698,-5.2698,-5.2698,-5.2698,-5.2698,-5.2698,-5.2698,-5.2698,-5.2698,-5.2698,-5.2698,-5.2698,-5.2698,-5.2698,-5.2698,-5.2698,-5.2698,-5.2698,-5.2698,-5.2653,-5.2653,-5.2161,-5.1563,-5.1311,-5.0778,-5.0214,-5.0026,-4.9465,-4.8936,-4.8979,-4.8493,-4.8007,-4.8007,-4.8007,-4.8007,-4.8007,-4.8343,-4.8563,-4.8563,-4.8563,-4.8563,-4.8563,-4.8563,0.0,-4.8563,-4.8563,-4.8563,-4.8532,-4.8532,-4.8532,-4.8501,-4.7917,-4.7865,-4.847,-4.7886,-4.7825,-4.847,-4.8501,-4.8532,-4.8573,-4.8573,-4.8563,-4.8604,0.0,0.0,0.0,0.0,0.0,0.0,0.0,0.0,0.0,0.0,0.0,0.0,0.0,0.0,0.0,0.0,0.0,0.0,0.0,0.0,0.0,-5.1509,-5.1509,-5.2017,-5.2017,-5.2002,-5.2002,-5.1834,-5.1787,-5.2002,-5.1834,-5.1741,-5.1741,-5.1926,-5.2017,-5.1803,-5.2063,-5.2185,-5.2185,-5.2185,-5.2185,-5.2185,-5.2185,-5.2246,-5.2397,-5.2397,-5.2518,-5.2698,-5.2698,-5.2698,-5.2698,-5.2698,-5.2698,-5.2698,-5.2698,-5.2698,-5.2698,-5.2698,-5.2698,-5.2698,-5.2698,-5.2698,-5.2698,-5.2698,-5.2698,-5.2698,-5.2698,-5.2225,-5.1662,-5.1662,-5.1114,-5.0462,-5.0374,-4.9755,-4.9109,-4.9239,-4.8538,-4.7852,-4.8195,-4.7988,-4.7752,-4.7964,-4.8007,-4.8007,-4.8007,-4.8091,-4.8175,-4.8175,-4.8175,-4.8175,-4.8175,-4.8175,-4.8175,-4.8175,-4.8175,-4.7993,-4.7505,-4.7568,-4.7436,-4.6946,-4.6732,-4.6772,-4.6915,-4.661,-4.6529,-4.6712,-4.6834,-4.7211,-4.7865,-4.7732,-4.7978,0.0,0.0,0.0,0.0,0.0,0.0,0.0,0.0,0.0,0.0,0.0,0.0,0.0,0.0,0.0,0.0,0.0,0.0,0.0,0.0,0.0,0.0,-5.1293,-5.1323,-5.1602,-5.1649,-5.1649,-5.1649,-5.1556,-5.1509,-5.1649,-5.1509,-5.1433,-5.1433,-5.1695,-5.1741,-5.1618,-5.1834,-5.2002,-5.2002,-5.2002,-5.2002,-5.2002,-5.2002,-5.2063,-5.22,-5.2261,-5.2397,-5.2563,-5.2653,-5.2698,-5.2698,-5.2698,-5.2698,-5.2698,-5.2563,-5.2608,0.0,0.0,0.0,0.0,0.0,-5.2544,-5.2298,-5.2298,-5.2113,-5.1867,-5.1867,-5.1502,-5.1032,-5.0914,-5.0323,-4.9674,-4.9455,-4.8796,-4.8196,-4.824,-4.7795,-4.7396,-4.7624,-4.7611,-4.7495,-4.7666,-4.7709,-4.7709,-4.7709,-4.7709,0.0,-4.7709,-4.788,-4.8007,-4.8007,-4.8007,-4.7916,-4.7612,-4.7581,-4.7338,-4.667,-4.6691,-4.659,-4.6194,-4.5919,0.0,0.0,0.0,-4.5728,-4.6001,-4.6082,0.0,0.0,0.0,-4.7007,-4.7487,0.0,0.0,0.0,-4.7943,-4.826,0.0,0.0,0.0,0.0,0.0,0.0,0.0,0.0,0.0,0.0,0.0,0.0,0.0,0.0,0.0,0.0,-5.1229,-5.1229,-5.1229,-5.1229,-5.1229,-5.1229,-5.1229,-5.1229,-5.1229,-5.1229,-5.1229,-5.1229,-5.1386,-5.1526,-5.1526,-5.1787,0.0,0.0,0.0,-5.191,-5.191,-5.191,-5.1895,-5.1835,-5.2033,-5.2108,-5.2062,-5.2273,-5.2393,-5.2438,-5.2438,-5.2438,-5.2393,-5.2183,-5.2183,-5.2393,-5.253,-5.2544,-5.2483,-5.2483,-5.2113,-5.159,-5.159,0.0,0.0,-5.0654,-5.0593,-5.0445,-5.0197,-4.9621,-4.8974,-4.8585,-4.8032,-4.7495,-4.7352,-4.7309,-4.7309,-4.7309,-4.7309,-4.7309,-4.7309,-4.7309,-4.7309,-4.7309,-4.7309,-4.7309,-4.7309,-4.7654,-4.7892,-4.7831,-4.7801,-4.7558,-4.6891,-4.68,-4.6557,-4.589,0.0,0.0,-4.5748,-4.5202,-4.5111,-4.5718,-4.5162,-4.5101,-4.5718,-4.5748,-4.5779,-4.591,-4.587,-4.59,-4.6001,-4.592,-4.592,-4.5991,-4.7205,-4.7752,0.0,0.0,0.0,0.0,0.0,0.0,0.0,0.0,0.0,0.0,0.0,0.0,0.0,0.0,0.0,-5.1229,-5.1229,-5.1229,-5.1229,-5.1229,-5.1229,-5.1229,-5.1229,-5.1229,-5.1229,-5.1229,-5.1229,-5.1229,-5.1276,-5.1276,-5.1276,-5.1323,-5.1369,-5.1369,-5.1369,-5.1369,-5.1369,-5.1369,-5.1192,-5.088,-5.0925,0.0,-5.0686,-5.0554,-5.0598,-5.0774,-5.0774,-5.0642,-5.051,-5.0642,-5.0598,-5.0615,-5.155,-5.1559,-5.1097,-5.1097,-5.1005,-5.0882,-5.0882,-5.082,-5.0654,-5.045,-4.9909,-4.9278,-4.9018,-4.8347,0.0,-4.7575,-4.7442,-4.7352,-4.7309,-4.7309,-4.7309,-4.7309,-4.7309,-4.7309,-4.7309,-4.7309,-4.7309,-4.7309,-4.7309,-4.7309,-4.7309,-4.7396,-4.7259,-4.6719,-4.6629,-4.6389,-4.5698,-4.5608,-4.5368,-4.4708,-4.478,-4.469,-4.4206,-4.4025,-4.4025,-4.4146,-4.3797,-4.3797,-4.4146,-4.4146,-4.4467,-4.5172,-4.4981,-4.5253,-4.6001,-4.5634,-4.5552,-4.5746,-4.6018,-4.6232,0.0,0.0,0.0,0.0,0.0,0.0,0.0,0.0,0.0,0.0,0.0,-5.1229,-5.1229,0.0,-5.1229,-5.1229,-5.1229,-5.1229,-5.1229,-5.1229,-5.1229,-5.1229,-5.1229,-5.1229,-5.1229,-5.1229,-5.1229,-5.1229,-5.1229,-5.1229,-5.1229,-5.0853,-5.0674,-5.0674,-5.0421,-5.0242,-5.0242,-5.0242,-5.0154,-4.9915,-5.005,-5.0049,-4.9938,-5.0012,-5.0026,-5.0157,-5.0157,-5.007,-5.0012,-5.0144,-4.9799,-4.9351,-5.0066,-5.0363,-5.0363,-5.0363,-5.0192,-5.0002,-4.9873,-4.9702,-4.9438,-4.9225,-4.8852,-4.845,-4.8179,-4.7809,-4.7439,-4.7352,-4.7309,-4.7309,-4.7309,-4.7309,-4.7309,-4.7309,-4.7309,-4.7309,-4.7309,-4.7309,-4.7309,-4.7309,-4.704,-4.68,-4.68,-4.6531,-4.6292,-4.6322,-4.6022,-4.5574,-4.4885,-4.4796,-4.4556,-4.3858,-4.3888,-4.3848,-4.3548,-4.3518,-4.3518,-4.3518,-4.3369,-4.3369,-4.3518,-4.3518,-4.3707,-4.4157,-4.4008,-4.4188,-4.464,-4.4398,-4.4357,-4.4509,-4.4072,-4.4235,0.0,0.0,0.0,0.0,0.0,0.0,0.0,-5.1229,-5.1229,-5.1229,-5.1229,-5.1229,-5.1229,-5.1229,-5.1229,-5.1229,-5.1229,-5.1229,-5.1229,-5.1229,-5.1229,-5.1229,-5.1229,-5.1229,-5.1229,-5.1229,-5.1229,-5.1229,-5.1229,-5.1169,-5.0973,-5.0465,-5.0136,-5.0016,-4.9523,-4.9299,-4.9299,-4.9299,-4.9239,-4.912,-4.9298,-4.9297,-4.9221,-4.9398,-4.9486,-4.9529,-4.9486,-4.9486,-4.9529,-4.9486,-4.9051,-4.8394,-4.8611,-4.9001,-4.9486,-4.9573,-4.9339,-4.9011,-4.884,-4.8548,-4.8218,-4.8007,-4.7922,-4.788,-4.7624,-4.7538,-4.7495,-4.7352,-4.7309,-4.7309,-4.7309,-4.7309,-4.7309,-4.7309,-4.7309,-4.7309,-4.7309,-4.7309,-4.7279,-4.713,-4.6681,-4.6249,-4.6142,-4.5574,-4.5304,-4.5801,-4.5454,-4.4855,-4.4197,-4.4137,-4.3888,-4.3349,-4.329,-4.329,-4.329,-4.329,-4.329,-4.329,-4.329,-4.329,-4.329,-4.329,-4.329,-4.329,-4.329,-4.321,-4.305,-4.321,-4.313,-4.278,-4.2058,-4.2402,-5.2139,-5.1649,-5.1229,-5.1229,-5.1229,-5.1229,0.0,-5.1229,-5.1229,-5.1229,-5.1229,-5.1229,-5.1229,-5.1229,-5.1229,-5.1229,-5.1229,-5.1229,-5.1229,-5.1229,-5.1229,-5.1229,-5.1229,-5.1229,-5.1229,-5.1229,-5.1229,-5.1229,-5.1229,-5.096,-5.0315,-5.0226,-4.9972,-4.9449,-4.9359,-4.9299,-4.9299,-4.9299,-4.903,-4.8386,-4.8431,-4.8219,-4.7822,-4.7692,-4.7692,-4.7865,-4.7692,-4.7692,-4.7835,-4.7692,-4.7532,-4.7442,-4.7486,-4.7546,-4.7649,-4.8079,-4.8189,-4.8171,-4.8128,-4.8067,-4.8007,-4.7709,-4.7624,-4.7581,-4.7396,-4.7352,-4.7352,-4.7309,-4.7309,-4.7309,-4.7309,-4.7309,-4.7309,-4.7309,-4.7309,-4.7309,-4.7309,-4.7309,-4.713,-4.6561,-4.6339,-4.6142,-4.5514,-4.4855,-4.4436,-4.4526,-4.4466,-4.4197,-4.3499,-4.3409,-4.3379,-4.329,-4.329,-4.329,-4.329,-4.329,-4.329,-4.329,-4.329,-4.329,-4.329,-4.329,-4.329,-4.329,-4.329,-4.29,-4.217,-4.29,-4.2467,-4.0901,-4.0817,-4.1283,-5.2094,-5.1602,-5.1229,-5.1386,-5.1323,-5.1229,-5.1229,-5.1229,-5.1229,-5.1229,-5.1229,-5.1229,-5.1229,-5.1229,-5.1229,-5.1229,-5.1229,-5.1229,-5.1229,-5.1229,-5.1229,-5.1229,-5.1229,-5.1229,-5.1229,-5.1229,-5.1229,-5.1229,-5.1229,-5.1109,-5.0794,-5.0405,-4.9942,-4.9329,-4.894,-4.8506,-4.8117,-4.8117,-4.7997,-4.7728,-4.7728,-4.7622,-4.7439,-4.7352,-4.7352,-4.7439,-4.7352,-4.7352,-4.7439,-4.7352,-4.7309,-4.7309,-4.7309,-4.7309,-4.7309,-4.7525,-4.7666,-4.7752,-4.7624,-4.7666,-4.7709,-4.7525,-4.7439,-4.7439,-4.7352,-4.7309,-4.7309,-4.7309,-4.7309,-4.7309,-4.7309,-4.7309,-4.7309,-4.7309,-4.7309,-4.7309,-4.7309,-4.701,-4.6651,-4.6339,-4.5693,-4.5065,-4.4766,-4.4167,-4.3708,-4.3708,-4.3708,-4.3618,-4.3319,-4.329,-4.329,-4.329,-4.282,-4.2739,-4.325,-4.282,-4.2739,-4.325,-4.329,-4.329,-4.329,-4.282,-4.2537,-4.2537,-4.2017,-4.1532,-4.1197,-4.1532,-4.1323,-4.0603,-4.0043,-4.0,-5.2017,-5.1649,-5.1369,-5.1526,-5.1386,-5.1229,-5.1229,-5.1229,-5.1229,-5.1229,-5.1229,-5.1229,-5.1229,-5.1229,-5.1229,-5.1229,-5.1229,-5.1229,-5.1229,-5.1229,-5.1229,-5.1229,-5.1229,-5.1229,-5.1229,-5.1229,-5.1229,-5.1229,-5.1229,-5.1139,-5.0913,-5.0435,-4.9942,-4.9329,-4.8626,-4.8057,-4.7578,-4.7399,-4.7309,-4.7309,-4.7309,-4.7309,-4.7309,-4.7309,-4.7309,-4.7309,-4.7309,-4.7309,-4.7309,-4.7309,-4.7309,-4.7309,-4.7309,-4.7309,-4.7309,-4.7309,-4.7396,-4.7525,-4.7352,-4.7396,-4.7495,-4.7352,-4.7309,-4.7309,-4.7309,-4.7309,-4.7309,-4.7309,-4.7309,-4.7309,-4.7309,-4.7309,-4.7309,-4.7309,-4.7309,-4.7309,-4.7309,-4.692,-4.6488,-4.6309,-4.5394,-4.4526,-4.4347,-4.3738,-4.329,-4.329,-4.329,-4.329,-4.329,-4.329,-4.329,-4.329,-4.2739,-4.2537,-4.29,-4.2374,-4.2293,-4.29,-4.297,-4.297,-4.297,-4.2333,-4.1852,-4.1603,-4.0944,-4.0475,-4.0216,-4.0475,-4.0346,-3.9826,-3.9387,-3.9077,-5.2017,-5.1787,-5.1572,-5.1572,-5.1386,-5.1229,-5.1229,-5.1229,-5.1229,-5.1229,-5.1229,-5.1229,-5.1229,-5.1229,-5.1229,-5.1229,-5.1229,-5.1229,-5.1229,-5.1229,-5.1229,-5.1229,-5.1229,-5.1229,-5.1229,-5.1229,-5.1229,-5.1229,-5.1229,-5.093,-5.0255,-5.0196,-4.9942,-4.9329,-4.8626,-4.8267,-4.8267,-4.7608,-4.7309,-4.7309,-4.7309,-4.7309,-4.7309,-4.7309,-4.7309,-4.7309,-4.7309,-4.7309,-4.7309,-4.7309,-4.7309,-4.7309,-4.7309,-4.7309,-4.7309,-4.7309,-4.7309,-4.7309,-4.7309,-4.7309,-4.7309,-4.7309,-4.7309,-4.7309,-4.7309,-4.7309,-4.7309,-4.7309,-4.7309,-4.7309,-4.7309,-4.7309,-4.7309,-4.7309,-4.7309,-4.7309,-4.7309,-4.7279,-4.71,-4.6441,-4.5753,-4.5065,-4.4436,-4.3738,-4.329,-4.329,-4.329,-4.329,-4.329,-4.329,-4.329,-4.329,-4.329,-4.293,-4.2129,-4.2046,-4.2005,-4.2046,-4.2046,-4.2046,-4.2046,-4.2017,-4.1561,-4.0646,-4.0603,-4.0173,-3.9254,-4.0173,-3.9722,-3.7992,-3.8836,-3.8747,-5.2048,-5.1787,-5.1572,-5.1572,-5.1386,-5.1229,-5.1229,-5.1229,-5.1229,-5.1229,-5.1229,-5.1229,-5.1229,-5.1229,-5.1229,-5.1229,-5.1229,-5.1229,-5.1229,-5.1229,-5.1229,-5.1229,-5.1229,-5.1229,-5.1229,-5.1229,-5.1229,-5.1229,-5.1229,-5.1109,-5.09,-5.0853,-5.0601,-4.9942,-4.9284,-4.876,-4.8297,-4.7638,-4.7309,-4.7309,-4.7309,-4.7309,-4.7309,-4.7309,-4.7309,-4.7309,-4.7309,-4.7309,-4.7309,-4.7309,-4.7309,-4.7309,-4.7309,-4.7309,-4.7309,-4.7309,-4.7309,-4.7309,-4.7309,-4.7309,-4.7309,-4.7309,-4.7309,-4.7309,-4.7309,-4.7309,-4.7309,-4.7309,-4.7309,-4.7309,-4.7309,-4.7309,-4.7309,-4.7309,-4.7309,-4.7309,-4.7309,-4.695,-4.6591,-4.6339,-4.5753,-4.5214,-4.5005,-4.4436,-4.3637,-4.2596,-4.2456,-4.2456,-4.2456,-4.1893,-4.1491,-4.1491,-4.0944,-4.0703,-4.1029,-4.0518,-4.0432,-4.1029,-4.1071,-4.1071,-4.1071,-4.0475,-4.0,-3.9694,-3.9104,-3.8666,-3.8349,-3.8666,-3.8485,-3.79,-3.8194,-3.8194,-5.2048,-5.188,-5.1741,-5.1618,-5.1386,-5.1229,-5.1229,-5.1229,-5.1229,-5.1229,-5.1229,-5.1229,-5.1229,-5.1229,-5.1229,-5.1229,-5.1229,-5.1229,-5.1229,-5.1229,-5.1229,-5.1229,-5.1229,-5.1229,-5.1229,-5.1229,-5.1229,-5.1229,-5.1229,-5.1229,-5.1229,-5.1229,-5.102,-5.0554,-4.9733,-4.912,-4.8626,-4.7758,-4.7309,-4.7309,-4.7309,-4.7309,-4.7309,-4.7309,-4.7309,-4.7309,-4.7309,-4.7309,-4.7309,-4.7309,-4.7309,-4.7309,-4.7309,-4.7309,-4.7309,-4.7309,-4.7309,-4.7309,-4.7309,-4.7309,-4.7309,-4.7309,-4.7309,-4.7309,-4.7309,-4.7309,-4.7309,-4.7309,-4.7309,-4.7309,-4.7309,-4.7309,-4.7309,-4.7309,-4.7309,-4.7309,-4.7309,-4.698,-4.6681,-4.6681,-4.6142,-4.5663,-4.5663,-4.4915,-4.3794,-4.2216,-4.1728,-4.1519,-4.1519,-4.1239,-4.0986,-4.0646,-4.0087,-3.9826,-4.0087,-3.9563,-3.9475,-4.0087,-4.013,-4.013,-4.013,-3.9519,-3.9033,-3.8747,-3.8194,-3.79,-3.79,-3.79,-3.79,-3.79,-3.79,-3.79,-5.2139,-5.2002,-5.1956,-5.1649,-5.1386,-5.1229,-5.1229,-5.1229,-5.1229,-5.1229,-5.1229,-5.1229,-5.1229,-5.1229,-5.1229,-5.1229,-5.1229,-5.1229,-5.1229,-5.1229,-5.1229,-5.1229,-5.1229,-5.1229,-5.1229,-5.1229,-5.1229,-5.1229,-5.1229,-5.1229,-5.1229,-5.1229,-5.1229,-5.1229,-4.9972,-4.9329,-4.9299,-4.7967,-4.7309,-4.7309,-4.7309,-4.7309,-4.7309,-4.7309,-4.7309,-4.7309,-4.7309,-4.7309,-4.7309,-4.7309,-4.7309,-4.7309,-4.7309,-4.7309,-4.7309,-4.7309,-4.7309,-4.7309,-4.7309,-4.7309,-4.7309,-4.7309,-4.7309,-4.7309,-4.7309,-4.7309,-4.7309,-4.7309,-4.7309,-4.7309,-4.7309,-4.7309,-4.7309,-4.7309,-4.7309,-4.7309,-4.7309,-4.7309,-4.7309,-4.7309,-4.68,-4.6309,-4.6322,-4.5203,-4.3742,-4.2204,-4.1184,-4.0603,-4.0518,-4.1268,-4.1436,-4.056,-4.0475,-4.0087,-3.921,-3.9121,-3.9121,-3.9121,-3.9121,-3.9121,-3.9121,-3.9121,-3.8747,-3.79,-3.79,-3.79,-3.79,-3.79,-3.79,-3.79,-3.79,-3.79,-5.2063,-5.2002,-5.191,-5.1416,-5.1276,-5.1229,-5.1229,-5.1229,-5.1229,-5.1229,-5.1229,-5.1229,-5.1229,-5.1229,-5.1229,-5.1229,-5.1229,-5.1229,-5.1229,-5.1229,-5.1229,-5.1229,-5.1229,-5.1229,-5.1229,-5.1229,-5.1229,-5.1229,-5.1229,-5.1229,-5.1229,-5.1229,-5.1229,-5.1229,-5.0421,-4.9763,-4.9299,-4.7967,-4.7309,-4.7309,-4.7309,-4.7309,-4.7309,-4.7309,-4.7309,-4.7309,-4.7309,-4.7309,-4.7309,-4.7309,-4.7309,-4.7309,-4.7309,-4.7309,-4.7309,-4.7309,-4.7309,-4.7309,-4.7309,-4.7309,-4.7309,-4.7309,-4.7309,-4.7309,-4.7309,-4.7309,-4.7309,-4.7309,-4.7309,-4.7309,-4.7309,-4.7309,-4.7309,-4.7309,-4.7309,-4.7309,-4.7309,-4.7309,-4.7309,-4.7309,-4.716,-4.689,-4.6369,-4.5027,-4.3484,-4.1953,-4.1056,-4.0346,-3.9651,-3.9193,-3.8845,-3.8621,-3.8575,-3.8485,-3.8239,-3.8239,-3.8239,-3.8239,-3.8239,-3.8239,-3.8239,-3.8239,-3.8148,-3.79,-3.79,-3.79,-3.79,-3.79,-3.79,-3.79,-3.79,-3.79,-5.2094,-5.2002,-5.1834,-5.1323,-5.1229,-5.1229,-5.1229,-5.1229,-5.1229,-5.1229,-5.1229,-5.1229,-5.1229,-5.1229,-5.1229,-5.1229,-5.1229,-5.1229,-5.1229,-5.1229,-5.1229,-5.1229,-5.1229,-5.1229,-5.1229,-5.1229,-5.1229,-5.1229,-5.1229,-5.1229,-5.1229,-5.1229,-5.1229,-5.1229,-5.0524,-4.9793,-4.888,-4.7818,-4.7309,-4.7309,-4.7309,-4.7309,-4.7309,-4.7309,-4.7309,-4.7309,-4.7309,-4.7309,-4.7309,-4.7309,-4.7309,-4.7309,-4.7309,-4.7309,-4.7309,-4.7309,-4.7309,-4.7309,-4.7309,-4.7309,-4.7309,-4.7309,-4.7309,-4.7309,-4.7309,-4.7309,-4.7309,-4.7309,-4.7309,-4.7309,-4.7309,-4.7309,-4.7309,-4.7309,-4.7309,-4.7309,-4.7309,-4.7309,-4.7309,-4.7309,-4.7309,-4.71,-4.6441,-4.4974,-4.3416,-4.1833,-4.0693,-3.9651,-3.8774,-3.8549,-3.8304,-3.7946,-3.79,-3.79,-3.79,-3.79,-3.79,-3.79,-3.79,-3.79,-3.79,-3.79,-3.79,-3.79,-3.79,-3.79,-3.79,-3.79,-3.79,-3.79,-3.79,-3.79,-5.2139,-5.2002,-5.1834,-5.1323,-5.1229,-5.1229,-5.1229,-5.1229,-5.1229,-5.1229,-5.1229,-5.1229,-5.1229,-5.1229,-5.1229,-5.1229,-5.1229,-5.1229,-5.1229,-5.1229,-5.1229,-5.1229,-5.1229,-5.1229,-5.1229,-5.1229,-5.1229,-5.1229,-5.1229,-5.1229,-5.1229,-5.1229,-5.1229,-5.1229,-5.0435,-4.9553,-4.8416,-4.7668,-4.7309,-4.7309,-4.7309,-4.7309,-4.7309,-4.7309,-4.7309,-4.7309,-4.7309,-4.7309,-4.7309,-4.7309,-4.7309,-4.7309,-4.7309,-4.7309,-4.7309,-4.7309,-4.7309,-4.7309,-4.7309,-4.7309,-4.7309,-4.7309,-4.7309,-4.7309,-4.7309,-4.7309,-4.7309,-4.7309,-4.7309,-4.7309,-4.7309,-4.7309,-4.7309,-4.7309,-4.7309,-4.7309,-4.7309,-4.7309,-4.7309,-4.7309,-4.7309,-4.71,-4.6441,-4.5004,-4.3445,-4.1833,-4.0228,-3.8881,-3.8037,-3.8549,-3.8747,-3.7992,-3.79,-3.79,-3.79,-3.79,-3.79,-3.79,-3.79,-3.79,-3.79,-3.79,-3.79,-3.79,-3.79,-3.79,-3.79,-3.79,-3.79,-3.79,-3.79,-3.79,-5.2139,-5.2002,-5.1834,-5.1323,-5.1229,-5.1229,-5.1229,-5.1229,-5.1229,-5.1229,-5.1229,-5.1229,-5.1229,-5.1229,-5.1229,-5.1229,-5.1229,-5.1229,-5.1229,-5.1229,-5.1229,-5.1229,-5.1229,-5.1229,-5.1229,-5.1229,-5.1229,-5.1229,-5.1229,-5.1229,-5.1229,-5.1229,-5.1229,-5.1229,-5.0062,-4.9359,-4.9149,-4.7908,-4.7309,-4.7309,-4.7309,-4.7309,-4.7309,-4.7309,-4.7309,-4.7309,-4.7309,-4.7309,-4.7309,-4.7309,-4.7309,-4.7309,-4.7309,-4.7309,-4.7309,-4.7309,-4.7309,-4.7309,-4.7309,-4.7309,-4.7309,-4.7309,-4.7309,-4.7309,-4.7309,-4.7309,-4.7309,-4.7309,-4.7309,-4.7309,-4.7309,-4.7309,-4.7309,-4.7309,-4.7309,-4.7309,-4.7309,-4.7309,-4.7309,-4.7309,-4.7309,-4.71,-4.6441,-4.4974,-4.3416,-4.1833,-4.0228,-3.8881,-3.8037,-3.8037,-3.8057,-3.79,-3.79,-3.79,-3.79,-3.79,-3.79,-3.79,-3.79,-3.79,-3.79,-3.79,-3.79,-3.79,-3.79,-3.79,-3.79,-3.79,-3.79,-3.79,-3.79,-3.79,-5.2139,-5.2002,-5.1834,-5.1323,-5.1229,-5.1229,-5.1229,-5.1229,-5.1229,-5.1229,-5.1229,-5.1229,-5.1229,-5.1229,-5.1229,-5.1229,-5.1229,-5.1229,-5.1229,-5.1229,-5.1229,-5.1229,-5.1229,-5.1229,-5.1229,-5.1229,-5.1229,-5.1229,-5.1229,-5.1229,-5.1229,-5.1229,-5.105,-5.0674,-4.9763,-4.9149,-4.8745,-4.7788,-4.7309,-4.7309,-4.7309,-4.7309,-4.7309,-4.7309,-4.7309,-4.7309,-4.7309,-4.7309,-4.7309,-4.7309,-4.7309,-4.7309,-4.7309,-4.7309,-4.7309,-4.7309,-4.7309,-4.7309,-4.7309,-4.7309,-4.7309,-4.7309,-4.7309,-4.7309,-4.7309,-4.7309,-4.7309,-4.7309,-4.7309,-4.7309,-4.7309,-4.7309,-4.7309,-4.7309,-4.7309,-4.7309,-4.7309,-4.7309,-4.7309,-4.7309,-4.704,-4.6681,-4.6381,-4.4709,-4.2997,-4.1777,-4.0228,-3.8881,-3.8037,-3.79,-3.79,-3.79,-3.79,-3.79,-3.79,-3.79,-3.79,-3.79,-3.79,-3.79,-3.79,-3.79,-3.79,-3.79,-3.79,-3.79,-3.79,-3.79,-3.79,-3.79,-3.79,-3.79,-5.2139,-5.1956,-5.1787,-5.1323,-5.1229,-5.1229,-5.1229,-5.1229,-5.1229,-5.1229,-5.1229,-5.1229,-5.1229,-5.1229,-5.1229,-5.1229,-5.1229,-5.1229,-5.1229,-5.1229,-5.1229,-5.1229,-5.1229,-5.1229,-5.1229,-5.1229,-5.1229,-5.1229,-5.1229,-5.1229,-5.1229,-5.1229,-5.0853,-5.0226,-4.9613,-4.9,-4.8297,-4.7638,-4.7309,-4.7309,-4.7309,-4.7309,-4.7309,-4.7309,-4.7309,-4.7309,-4.7309,-4.7309,-4.7309,-4.7309,-4.7309,-4.7309,-4.7309,-4.7309,-4.7309,-4.7309,-4.7309,-4.7309,-4.7309,-4.7309,-4.7309,-4.7309,-4.7309,-4.7309,-4.7309,-4.7309,-4.7309,-4.7309,-4.7309,-4.7309,-4.7309,-4.7309,-4.7309,-4.7309,-4.7309,-4.7309,-4.7309,-4.7309,-4.7279,-4.713,-4.6681,-4.619,-4.5891,-4.4435,-4.2834,-4.1594,-4.0304,-3.9104,-3.8037,-3.79,-3.79,-3.79,-3.79,-3.79,-3.79,-3.79,-3.79,-3.79,-3.79,-3.79,-3.79,-3.79,-3.79,-3.79,-3.79,-3.79,-3.79,-3.79,-3.79,-3.79,-3.79,-3.79,-5.2063,-5.1834,-5.1602,-5.1276,-5.1229,-5.1229,-5.1229,-5.1229,-5.1229,-5.1229,-5.1229,-5.1229,-5.1229,-5.1229,-5.1229,-5.1229,-5.1229,-5.1229,-5.1229,-5.1229,-5.1229,-5.1229,-5.1229,-5.1229,-5.1229,-5.1229,-5.1229,-5.1229,-5.1229,-5.1229,-5.1229,-5.1229,-5.0853,-5.0226,-4.9613,-4.9,-4.8297,-4.7638,-4.7309,-4.7309,-4.7309,-4.7309,-4.7309,-4.7309,-4.7309,-4.7309,-4.7309,-4.7309,-4.7309,-4.7309,-4.7309,-4.7309,-4.7309,-4.7309,-4.7309,-4.7309,-4.7309,-4.7309,-4.7309,-4.7309,-4.7309,-4.7309,-4.7309,-4.7309,-4.7309,-4.7309,-4.7309,-4.7309,-4.7309,-4.7309,-4.7309,-4.7309,-4.7309,-4.7309,-4.7309,-4.7309,-4.7309,-4.7309,-4.713,-4.6488,-4.6309,-4.5891,-4.4706,-4.4325,-4.3384,-4.1029,-4.0546,-3.9826,-3.8103,-3.79,-3.79,-3.79,-3.79,-3.79,-3.79,-3.79,-3.79,-3.79,-3.79,-3.79,-3.79,-3.79,-3.79,-3.79,-3.79,-3.79,-3.79,-3.79,-3.79,-3.79,-3.79,-3.79,-5.2017,-5.1787,-5.1526,-5.1276,-5.1229,-5.1229,-5.1229,-5.1229,-5.1229,-5.1229,-5.1229,-5.1229,-5.1229,-5.1229,-5.1229,-5.1229,-5.1229,-5.1229,-5.1229,-5.1229,-5.1229,-5.1229,-5.1229,-5.1229,-5.1229,-5.1229,-5.1229,-5.1229,-5.1229,-5.1229,-5.1229,-5.1229,-5.075,-4.9673,-4.9449,-4.8745,-4.7698,-4.7429,-4.7309,-4.7309,-4.7309,-4.7309,-4.7309,-4.7309,-4.7309,-4.7309,-4.7309,-4.7309,-4.7309,-4.7309,-4.7309,-4.7309,-4.7309,-4.7309,-4.7309,-4.7309,-4.7309,-4.7309,-4.7309,-4.7309,-4.7309,-4.7309,-4.7309,-4.7309,-4.7309,-4.7309,-4.7309,-4.7309,-4.7309,-4.7309,-4.7309,-4.7309,-4.7309,-4.7309,-4.7309,-4.7309,-4.7309,-4.7309,-4.71,-4.6441,-4.5992,-4.5394,-4.4466,-4.3988,-4.2994,-4.0887,-4.0603,-3.9956,-3.8103,-3.79,-3.79,-3.79,-3.79,-3.79,-3.79,-3.79,-3.79,-3.79,-3.79,-3.79,-3.79,-3.79,-3.79,-3.79,-3.79,-3.79,-3.79,-3.79,-3.79,-3.79,-3.79,-3.79,-5.2048,-5.1741,-5.1433,-5.1276,-5.1229,-5.1229,-5.1229,-5.1229,-5.1229,-5.1229,-5.1229,-5.1229,-5.1229,-5.1229,-5.1229,-5.1229,-5.1229,-5.1229,-5.1229,-5.1229,-5.1229,-5.1229,-5.1229,-5.1229,-5.1229,-5.1229,-5.1229,-5.1229,-5.1229,-5.1229,-5.1229,-5.1229,-5.0631,-4.9359,-4.9299,-4.867,-4.7309,-4.7309,-4.7309,-4.7309,-4.7309,-4.7309,-4.7309,-4.7309,-4.7309,-4.7309,-4.7309,-4.7309,0.0,-4.7309,-4.7309,-4.7309,-4.7309,-4.7309,-4.7309,-4.7309,-4.7309,-4.7309,-4.7309,-4.7309,-4.7309,-4.7309,-4.7309,-4.7309,-4.7309,-4.7309,-4.7309,-4.7309,-4.7309,-4.7309,-4.7309,-4.7309,-4.7309,-4.7309,-4.7309,-4.7309,-4.7309,-4.716,-4.683,-4.6142,-4.5454,-4.4796,-4.4137,-4.3589,-4.278,-4.1239,-4.0986,-4.0346,-3.853,-3.8258,-3.8194,-3.7946,-3.79,-3.79,-3.79,-3.79,-3.79,-3.79,-3.79,-3.79,-3.79,-3.79,-3.79,-3.79,-3.79,-3.79,-3.79,-3.79,-3.79,-3.79,-3.79,-3.79,-5.2002,-5.1602,-5.1229,-5.1229,-5.1229,-5.1229,-5.1229,-5.1229,-5.1229,-5.1229,-5.1229,-5.1229,-5.1229,-5.1229,-5.1229,-5.1229,-5.1229,-5.1229,-5.1229,-5.1229,-5.1229,-5.1229,-5.1229,-5.1229,-5.1229,-5.1229,-5.1229,-5.1229,-5.1229,-5.1229,-5.1229,-5.1229,-5.0631,-4.9359,-4.9299,-4.867,-4.7309,-4.7309,-4.7309,-4.7309,-4.7309,-4.7309,-4.7309,-4.7309,-4.7309,-4.7309,-4.7309,-4.7309,0.0,-4.7309,-4.7309,-4.7309,-4.7309,-4.7309,-4.7309,-4.7309,-4.7309,-4.7309,-4.7309,-4.7309,-4.7309,-4.7309,-4.7309,-4.7309,-4.7309,-4.7309,-4.7309,-4.7309,-4.7309,-4.7309,-4.7309,-4.7309,-4.7309,-4.7309,-4.7309,-4.7309,-4.7309,-4.68,-4.6142,-4.5454,-4.4766,-4.4107,-4.3409,-4.329,-4.301,-4.2129,-4.2005,-4.1281,-3.9431,-3.921,-3.8836,-3.7992,-3.79,-3.79,-3.79,-3.79,-3.79,-3.79,-3.79,-3.79,-3.79,-3.79,-3.79,-3.79,-3.79,-3.79,-3.79,-3.79,-3.79,-3.79,-3.79,-3.79,-5.1896,-5.1741,-5.1433,-5.1276,-5.1229,-5.1229,-5.1229,-5.1229,-5.1229,-5.1229,-5.1229,-5.1229,-5.1229,-5.1229,-5.1229,-5.1229,-5.1229,-5.1229,-5.1229,-5.1229,-5.1229,-5.1229,-5.1229,-5.1229,-5.1229,-5.1229,-5.1229,-5.1229,-5.1229,-5.1229,-5.1229,-5.1229,-5.0631,-4.9359,-4.9299,-4.867,-4.7309,-4.7309,-4.7309,-4.7309,-4.7309,-4.7309,-4.7309,-4.7309,-4.7309,-4.7309,-4.7309,-4.7309,-4.7309,-4.7309,-4.7309,-4.7309,-4.7309,-4.7309,-4.7309,-4.7309,-4.7309,-4.7309,-4.7309,-4.7309,-4.7309,-4.7309,-4.7309,-4.7309,-4.7309,-4.7309,-4.7309,-4.7309,-4.7309,-4.7309,-4.7309,-4.7309,-4.7309,-4.7309,-4.7309,-4.7189,-4.6741,-4.6429,-4.5992,-4.4855,-4.4466,-4.4107,-4.3409,-4.329,-4.301,-4.2129,-4.2005,-4.1323,-3.9431,-3.921,-3.8881,-3.7992,-3.79,-3.79,-3.79,-3.79,-3.79,-3.79,-3.79,-3.79,-3.79,-3.79,-3.79,-3.79,-3.79,-3.79,-3.79,-3.79,-3.79,-3.79,-3.79,-3.79,-5.141,-5.156,-5.1416,-5.1229,-5.1229,-5.1229,-5.1229,-5.1229,-5.1229,-5.1229,-5.1229,-5.1229,-5.1229,-5.1229,-5.1229,-5.1229,-5.1229,-5.1229,-5.1229,-5.1229,-5.1229,-5.1229,-5.1229,-5.1229,-5.1229,-5.1229,-5.1229,-5.1229,-5.1229,-5.1229,-5.1229,-5.0943,-5.0361,-4.9329,-4.9299,-4.867,-4.7309,-4.7309,-4.7309,-4.7309,-4.7309,-4.7309,-4.7309,-4.7309,-4.7309,-4.7309,-4.7309,-4.7309,0.0,-4.7309,-4.7309,-4.7309,-4.7309,-4.7309,-4.7309,-4.7309,-4.7309,-4.7309,-4.7309,-4.7309,-4.7309,-4.7309,-4.7309,-4.7309,-4.7309,-4.7309,-4.7309,-4.7309,-4.7309,-4.7309,-4.7309,-4.7309,-4.7309,-4.7309,-4.713,-4.683,-4.6369,-4.5891,-4.5304,-4.4466,-4.4107,-4.3768,-4.3349,-4.329,-4.313,-4.2578,-4.2211,-4.1478,-3.9913,-3.9431,-3.8881,-3.7992,-3.79,-3.79,-3.79,-3.79,-3.79,-3.79,-3.79,-3.79,-3.79,-3.79,-3.79,-3.79,-3.79,-3.79,-3.79,-3.79,-3.79,-3.79,-3.79,-3.79,0.0,-5.0999,-5.1169,-5.1199,-5.1229,-5.1229,-5.1229,-5.1229,0.0,-5.1229,-5.1229,-5.1229,-5.1229,-5.1229,-5.1229,-5.1229,-5.1229,-5.1229,-5.1229,-5.1229,-5.1229,-5.1229,-5.1229,-5.1229,-5.1229,-5.1229,-5.1229,-5.1229,-5.1229,-5.1229,-5.1229,-5.0554,-4.9942,-4.9329,-4.9269,-4.8596,-4.7309,-4.7309,-4.7309,-4.7309,-4.7309,-4.7309,-4.7309,-4.7309,-4.7309,-4.7309,-4.7309,-4.7309,-4.7309,-4.7309,-4.7309,-4.7309,-4.7309,-4.7309,-4.7309,-4.7309,-4.7309,-4.7309,-4.7309,-4.7309,-4.7309,-4.7309,-4.7309,-4.7309,-4.7309,-4.7309,-4.7309,-4.7309,-4.7309,-4.7309,-4.7309,-4.7309,-4.7309,-4.7249,-4.677,-4.6249,-4.616,-4.5185,-4.4317,-4.4257,-4.3708,-4.329,-4.329,-4.329,-4.329,-4.321,-4.2537,-4.1645,-4.0646,-3.9738,-3.8881,-3.7992,-3.79,-3.79,-3.79,-3.79,-3.79,-3.79,-3.79,-3.79,-3.79,-3.79,-3.79,-3.79,-3.79,-3.79,-3.79,-3.79,-3.79,-3.79,-3.79,-3.79,-4.9391,0.0,-5.0801,-5.1126,-5.1229,-5.1229,0.0,-5.1229,-5.1229,-5.1229,-5.1229,-5.1229,-5.1229,-5.1229,-5.1229,-5.1229,-5.1229,-5.1229,-5.1229,-5.1229,-5.1229,-5.1229,-5.1229,-5.1229,-5.1229,-5.1229,-5.1229,-5.1229,-5.1229,-5.1229,-5.1229,-5.0554,-4.9942,-4.9329,-4.882,-4.8117,-4.7309,-4.7309,-4.7309,-4.7309,-4.7309,-4.7309,-4.7309,-4.7309,-4.7309,-4.7309,-4.7309,-4.7309,-4.7309,-4.7309,-4.7309,-4.7309,-4.7309,-4.7309,-4.7309,-4.7309,-4.7309,-4.7309,-4.7309,-4.7309,-4.7309,-4.7309,-4.7309,-4.7309,-4.7309,-4.7309,-4.7309,-4.7309,-4.7309,-4.7309,-4.7309,-4.7309,-4.7189,-4.6681,-4.6399,-4.601,-4.5005,-4.4526,-4.4167,-4.3618,-4.3409,-4.329,-4.329,-4.329,-4.309,-4.2415,-4.2129,-4.1394,-3.9738,-3.9343,-3.8881,-3.7992,-3.79,-3.79,-3.79,-3.79,-3.79,-3.79,-3.79,-3.79,-3.79,-3.79,-3.79,-3.79,-3.79,-3.79,-3.79,-3.79,-3.79,-3.79,-3.79,-3.79,-4.8936,-4.9491,-5.0125,-5.0601,-5.0734,-5.0794,-5.1139,-5.1229,-5.1229,-5.1229,-5.1229,-5.1229,-5.1229,-5.1229,-5.1229,-5.1229,-5.1229,-5.1229,-5.1229,-5.1229,-5.1229,-5.1229,-5.1229,-5.1229,-5.1229,-5.1229,-5.1229,-5.1229,-5.1229,-5.1229,-5.1229,-5.0301,-4.9643,-4.9329,-4.8327,-4.7668,-4.7309,-4.7309,-4.7309,-4.7309,-4.7309,-4.7309,-4.7309,-4.7309,-4.7309,-4.7309,-4.7309,-4.7309,-4.7309,-4.7309,-4.7309,-4.7309,-4.7309,-4.7309,-4.7309,-4.7309,-4.7309,-4.7309,-4.7309,-4.7309,-4.7309,-4.7309,-4.7309,-4.7309,-4.7309,-4.7309,-4.7309,-4.7309,-4.7309,-4.7309,-4.7309,-4.707,-4.677,-4.6369,-4.5801,-4.5185,-4.4466,-4.4077,-4.3708,-4.3349,-4.329,-4.329,-4.329,-4.329,-4.313,-4.2659,-4.2252,-4.1478,-4.0043,-3.9475,-3.8881,-3.7992,-3.79,-3.79,-3.79,-3.79,-3.79,-3.79,-3.79,-3.79,-3.79,-3.79,-3.79,-3.79,-3.79,-3.79,-3.79,-3.79,-3.79,-3.79,-3.79,-3.79,-4.8693,-4.8933,-4.9209,-5.0032,-5.0196,-5.0375,-5.1079,-5.1229,-5.1229,-5.1229,-5.1229,-5.1229,-5.1229,-5.1229,-5.1229,-5.1229,-5.1229,-5.1229,-5.1229,-5.1229,-5.1229,-5.1229,-5.1229,-5.1229,-5.1229,-5.1229,-5.1229,-5.1229,-5.1229,-5.1229,-5.1229,-4.9972,-4.9299,-4.9299,-4.7997,-4.7309,-4.7309,-4.7309,-4.7309,-4.7309,-4.7309,-4.7309,-4.7309,-4.7309,-4.7309,-4.7309,-4.7309,0.0,-4.7309,-4.7309,-4.7309,-4.7309,-4.7309,-4.7309,-4.7309,-4.7309,-4.7309,-4.7309,-4.7309,-4.7309,-4.7309,-4.7309,-4.7309,-4.7309,-4.7309,-4.7309,-4.7309,-4.7309,-4.7309,-4.7279,-4.7189,-4.6741,-4.6219,-4.601,-4.5155,-4.4287,-4.4197,-4.3678,-4.329,-4.329,-4.329,-4.329,-4.329,-4.329,-4.325,-4.313,-4.2456,-4.1603,-4.0518,-3.9826,-3.9015,-3.8037,-3.8037,-3.8011,-3.79,-3.79,-3.79,-3.79,-3.79,-3.79,-3.79,-3.79,-3.79,-3.79,-3.79,-3.79,-3.79,-3.79,-3.79,-3.79,-3.79,-3.79,-4.8171,-4.7994,-4.8246,-4.9793,-5.0196,-5.0375,-5.1079,-5.1229,-5.1229,-5.1229,-5.1229,-5.1229,-5.1229,-5.1229,-5.1229,-5.1229,-5.1229,-5.1229,-5.1229,-5.1229,-5.1229,-5.1229,-5.1229,-5.1229,-5.1229,-5.1229,-5.1229,-5.1229,-5.1229,-5.1229,-5.1229,-4.9972,-4.9299,-4.9299,-4.7997,-4.7309,-4.7309,-4.7309,-4.7309,-4.7309,-4.7309,-4.7309,-4.7309,-4.7309,-4.7309,-4.7309,0.0,-4.7309,-4.7309,-4.7309,-4.7309,-4.7309,-4.7309,-4.7309,-4.7309,-4.7309,-4.7309,-4.7309,-4.7309,-4.7309,-4.7309,-4.7309,-4.7309,-4.7309,-4.7309,-4.7309,-4.7309,-4.7309,-4.7309,-4.7189,-4.6621,-4.6411,-4.598,-4.4885,-4.4466,-4.4127,-4.3559,-4.3349,-4.329,-4.329,-4.329,-4.329,-4.329,-4.329,-4.305,-4.2333,-4.2087,-4.1394,-3.9651,-4.0,-3.9738,-3.8083,-3.8549,-3.8702,-3.7946,-3.79,-3.79,-3.79,-3.79,-3.79,-3.79,-3.79,-3.79,-3.79,-3.79,-3.79,-3.79,-3.79,-3.79,-3.79,-3.79,-3.79,-4.8049,-4.7794,-4.7839,-4.891,-4.9464,-4.9883,-5.0495,-5.096,-5.1229,-5.1229,-5.1229,-5.1229,-5.1229,-5.1229,-5.1229,-5.1229,-5.1229,-5.1229,-5.1229,-5.1229,-5.1229,-5.1229,-5.1229,-5.1229,-5.1229,-5.1229,-5.1229,-5.1229,-5.1229,-5.1229,-5.1229,-4.9972,-4.9299,-4.9299,-4.7997,-4.7309,-4.7309,-4.7309,-4.7309,-4.7309,-4.7309,-4.7309,-4.7309,-4.7309,-4.7309,-4.7309,0.0,-4.7309,-4.7309,-4.7309,-4.7309,-4.7309,-4.7309,-4.7309,-4.7309,-4.7309,-4.7309,-4.7309,-4.7309,-4.7309,-4.7309,-4.7309,-4.7309,-4.7309,-4.7309,-4.7309,-4.7309,-4.7309,-4.7309,-4.716,-4.6459,-4.6052,-4.5514,-4.4556,-4.4007,-4.3678,-4.3349,-4.329,-4.329,-4.329,-4.329,-4.329,-4.329,-4.329,-4.317,-4.2739,-4.2699,-4.2058,-4.0189,-4.0346,-4.0087,-3.8774,-3.897,-3.9033,-3.8639,-3.8594,-3.8395,-3.7946,-3.79,-3.79,-3.79,-3.79,-3.79,-3.79,-3.79,-3.79,-3.79,-3.79,-3.79,-3.79,-3.79,-3.79,-4.8049,-4.7837,-4.7744,-4.8025,-4.87,-4.9434,-5.0046,-5.0704,-5.1229,-5.1229,-5.1229,-5.1229,-5.1229,-5.1229,-5.1229,-5.1229,-5.1229,-5.1229,-5.1229,-5.1229,-5.1229,-5.1229,-5.1229,-5.1229,-5.1229,-5.1229,-5.1229,-5.1229,-5.1229,-5.1229,-5.1229,-4.9972,-4.9299,-4.9299,-4.7997,-4.7309,-4.7309,-4.7309,-4.7309,-4.7309,-4.7309,-4.7309,-4.7309,-4.7309,-4.7309,-4.7309,-4.7309,-4.7309,-4.7309,-4.7309,-4.7309,-4.7309,-4.7309,-4.7309,-4.7309,-4.7309,-4.7309,-4.7309,-4.7309,-4.7309,-4.7309,-4.7309,-4.7309,-4.7309,-4.7309,-4.7309,-4.7309,-4.7309,-4.7309,-4.713,-4.6292,-4.5693,-4.5095,-4.4287,-4.3648,-4.329,-4.329,-4.329,-4.329,-4.329,-4.329,-4.329,-4.329,-4.329,-4.329,-4.329,-4.329,-4.2739,-4.1113,-4.0944,-4.056,-3.9651,-3.9519,-3.9431,-3.921,-3.8988,-3.8594,-3.7946,-3.79,-3.79,-3.79,-3.79,-3.79,-3.79,-3.79,-3.79,-3.79,-3.79,-3.79,-3.79,-3.79,-3.79,-4.8091,-4.7964,-4.788,-4.7499,-4.8327,-4.9434,-5.0046,-5.0704,-5.1229,-5.1229,-5.1229,-5.1229,-5.1229,-5.1229,-5.1229,-5.1229,-5.1229,-5.1229,-5.1229,-5.1229,-5.1229,-5.1229,-5.1229,-5.1229,-5.1229,-5.1229,-5.1229,-5.1229,-5.1229,-5.1229,-5.1229,-4.9972,-4.9299,-4.9299,-4.7997,-4.7309,-4.7309,-4.7309,-4.7309,-4.7309,-4.7309,-4.7309,-4.7309,-4.7309,-4.7309,-4.7309,-4.7309,-4.7309,-4.7309,-4.7309,-4.7309,-4.7309,-4.7309,-4.7309,-4.7309,-4.7309,-4.7309,-4.7309,-4.7309,-4.7309,-4.7309,-4.7309,-4.7309,-4.7309,-4.7309,-4.7309,-4.7309,-4.7309,-4.7309,-4.701,-4.5693,-4.5334,-4.4975,-4.3678,-4.3319,-4.329,-4.329,-4.329,-4.329,-4.329,-4.329,-4.329,-4.329,-4.329,-4.329,-4.329,-4.329,-4.2941,-4.2017,-4.1893,-4.1561,-4.0603,-4.0518,-4.0173,-3.9299,-3.8485,-3.7992,-3.79,-3.79,-3.79,-3.79,-3.79,-3.79,-3.79,-3.79,-3.79,-3.79,-3.79,-3.79,-3.79,-3.79,-3.79,-4.826,-4.8091,-4.7922,-4.7581,-4.8429,-4.9389,-4.9583,-5.0451,-5.1229,-5.1229,-5.1229,-5.1229,-5.1229,-5.1229,-5.1229,-5.1229,-5.1229,-5.1229,-5.1229,-5.1229,-5.1229,-5.1229,-5.1229,-5.1229,-5.1229,-5.1229,-5.1229,-5.1229,-5.1229,-5.1229,-5.1229,-4.9972,-4.9299,-4.9299,-4.7997,-4.7309,-4.7309,-4.7309,-4.7309,-4.7309,-4.7309,-4.7309,-4.7309,-4.7309,-4.7309,-4.7309,-4.7309,-4.7309,-4.7309,-4.7309,-4.7309,-4.7309,-4.7309,-4.7309,-4.7309,-4.7309,-4.7309,-4.7309,-4.7309,-4.7309,-4.7309,-4.7309,-4.7309,-4.7309,-4.7309,-4.7309,-4.7309,-4.7309,-4.7309,-4.701,-4.5633,-4.5304,-4.4975,-4.3618,-4.329,-4.329,-4.329,-4.329,-4.329,-4.329,-4.329,-4.329,-4.329,-4.329,-4.329,-4.329,-4.329,-4.301,-4.2129,-4.2005,-4.1852,-4.1519,-4.0944,-4.0475,-4.013,-3.8756,-3.79,-3.79,-3.79,-3.79,-3.79,-3.79,-3.79,-3.79,-3.79,-3.79,-3.79,-3.79,-3.79,-3.79,-3.79,-3.79,-4.8301,-4.8243,-4.8256,-4.7912,-4.8729,-4.9583,-4.9583,-5.0421,-5.1229,-5.1229,-5.1229,-5.1229,-5.1229,-5.1229,-5.1229,-5.1229,-5.1229,-5.1229,-5.1229,-5.1229,-5.1229,-5.1229,-5.1229,-5.1229,-5.1229,-5.1229,-5.1229,-5.1229,-5.1229,-5.1229,-5.1229,-5.0182,-4.9494,-4.9329,-4.8177,-4.7519,-4.7309,-4.7309,-4.7309,-4.7309,-4.7309,-4.7309,-4.7309,-4.7309,-4.7309,-4.7309,-4.7309,-4.7309,-4.7309,-4.7309,-4.7309,-4.7309,-4.7309,-4.7309,-4.7309,-4.7309,-4.7309,-4.7309,-4.7309,-4.7309,-4.7309,-4.7309,-4.7309,-4.7309,-4.7309,-4.7309,-4.7309,-4.7309,-4.7309,-4.704,-4.5903,-4.5454,-4.4975,-4.3618,-4.329,-4.3349,-4.3559,-4.3618,-4.3678,-4.3858,-4.3917,-4.3917,-4.3917,-4.3738,-4.3618,-4.3618,-4.3439,-4.309,-4.2496,-4.217,-4.2005,-4.2005,-4.1436,-4.1029,-4.1029,-3.937,-3.8304,-3.8304,-3.8057,-3.79,-3.79,-3.79,-3.79,-3.79,-3.79,-3.79,-3.79,-3.79,-3.79,-3.79,-3.79,-3.79,-4.8164,-4.848,-4.8897,-4.8429,-4.9284,-5.0196,-5.0196,-5.0704,-5.1229,-5.1229,-5.1229,-5.1229,-5.1229,-5.1229,-5.1229,-5.1229,-5.1229,-5.1229,-5.1229,-5.1229,-5.1229,-5.1229,-5.1229,-5.1229,-5.1229,-5.1229,-5.1229,-5.1229,-5.1229,-5.1229,-5.1229,-5.0554,-4.9942,-4.9329,-4.8626,-4.7967,-4.7309,-4.7309,-4.7309,-4.7309,-4.7309,-4.7309,-4.7309,-4.7309,-4.7309,-4.7309,-4.7309,-4.7309,-4.7309,-4.7309,-4.7309,-4.7309,-4.7309,-4.7309,-4.7309,-4.7309,-4.7309,-4.7309,-4.7309,-4.7309,-4.7309,-4.7309,-4.7309,-4.7309,-4.7309,-4.7309,-4.7309,-4.7309,-4.7309,-4.716,-4.6459,-4.5813,-4.4975,-4.3618,-4.3319,-4.3499,-4.4197,-4.4317,-4.4526,-4.5155,-4.5304,-4.5304,-4.5304,-4.4766,-4.4317,-4.4317,-4.3708,-4.329,-4.329,-4.2537,-4.2005,-4.2005,-4.1976,-4.2005,-4.2005,-4.0303,-3.921,-3.921,-3.8395,-3.79,-3.79,-3.79,-3.79,-3.79,-3.79,-3.79,-3.79,-3.79,-3.79,-3.79,-3.79,-3.79,-4.9665,-4.9513,-4.9356,-4.9223,-4.9704,-5.0196,-5.0196,-5.0704,-5.1229,-5.1229,-5.1229,-5.1229,-5.1229,-5.1229,-5.1229,-5.1229,-5.1229,-5.1229,-5.1229,-5.1229,-5.1229,-5.1229,-5.1229,-5.1229,-5.1229,-5.1229,-5.1229,-5.1229,-5.1229,-5.1229,-5.1229,-5.0554,-5.0106,-4.9942,-4.8865,-4.8177,-4.7997,-4.7549,-4.7309,-4.7309,-4.7309,-4.7309,-4.7309,-4.7309,-4.7309,-4.7309,-4.7309,-4.7309,-4.7309,-4.7309,-4.7309,-4.7309,-4.7309,-4.7309,-4.7309,-4.7309,-4.7309,-4.7309,-4.7309,-4.7309,-4.7309,-4.7309,-4.7309,-4.7309,-4.7309,-4.7309,-4.7309,-4.7309,-4.7309,-4.716,-4.6459,-4.613,-4.5783,-4.4915,-4.4706,-4.4766,-4.4975,-4.5005,-4.5065,-4.5244,-4.5304,-4.5304,-4.5304,-4.5125,-4.4855,-4.4377,-4.4137,-4.3828,-4.3349,-4.309,-4.29,-4.29,-4.2374,-4.1728,-4.1071,-4.0518,-3.9913,-3.9254,-3.897,-3.8549,-3.7946,-3.79,-3.79,-3.79,-3.79,-3.79,-3.79,-3.79,-3.79,-3.79,-3.79,-3.79,-5.0188,-5.0061,-4.996,-4.987,-5.0214,-5.0584,-5.0584,-5.0883,-5.1229,-5.1229,-5.1229,-5.1229,-5.1229,-5.1229,-5.1229,-5.1229,-5.1229,-5.1229,-5.1229,-5.1229,-5.1229,-5.1229,-5.1229,-5.1229,-5.1229,-5.1229,-5.1229,-5.1229,-5.1229,-5.1229,-5.1229,-5.084,-5.0465,-5.0196,-4.9224,-4.8566,-4.8297,-4.7638,-4.7309,-4.7309,-4.7309,-4.7309,-4.7309,-4.7309,-4.7309,-4.7309,-4.7309,-4.7309,-4.7309,-4.7309,-4.7309,-4.7309,-4.7309,-4.7309,-4.7309,-4.7309,-4.7309,-4.7309,-4.7309,-4.7309,-4.7309,-4.7309,-4.7309,-4.7309,-4.7309,-4.7309,-4.7309,-4.7309,-4.7309,-4.7219,-4.68,-4.6711,-4.6471,-4.5514,-4.5304,-4.5364,-4.5633,-4.5693,-4.5783,-4.6052,-4.6082,-4.6082,-4.6082,-4.5873,-4.5574,-4.5185,-4.4646,-4.4077,-4.3379,-4.329,-4.329,-4.329,-4.282,-4.2263,-4.1699,-4.1365,-4.0901,-4.0346,-3.9956,-3.9519,-3.8997,-3.8285,-3.79,-3.79,-3.79,-3.79,-3.79,-3.79,-3.79,-3.79,-3.79,-3.79,-5.0225,-5.0426,-5.0607,-5.0377,-5.0734,-5.1229,-5.1229,-5.1229,-5.1229,-5.1229,-5.1229,-5.1229,-5.1229,-5.1229,-5.1229,-5.1229,-5.1229,-5.1229,-5.1229,-5.1229,-5.1229,-5.1229,-5.1229,-5.1229,-5.1229,-5.1229,-5.1229,-5.1229,-5.1229,-5.1229,-5.1229,-5.1229,-5.0913,-5.0315,-4.9703,-4.909,-4.8386,-4.7728,-4.7369,-4.7309,-4.7309,-4.7309,-4.7309,-4.7309,-4.7309,-4.7309,-4.7309,-4.7309,-4.7309,-4.7309,-4.7309,-4.7309,-4.7309,-4.7309,-4.7309,-4.7309,-4.7309,-4.7309,-4.7309,-4.7309,-4.7309,-4.7309,-4.7309,-4.7309,-4.7309,-4.7309,-4.7309,-4.7309,-4.7309,-4.7309,-4.7309,-4.7309,-4.701,-4.5753,-4.5484,-4.5663,-4.6262,-4.6369,-4.6591,-4.7189,-4.7309,-4.7309,-4.7309,-4.68,-4.6339,-4.6279,-4.5185,-4.4107,-4.3469,-4.3319,-4.329,-4.329,-4.329,-4.325,-4.321,-4.2537,-4.2087,-4.2005,-4.1254,-4.0816,-4.0816,-3.9114,-3.8129,-3.8037,-3.809,-3.807,-3.7978,-3.8031,-3.8057,-3.8057,-3.8057,-3.8057,-5.1577,-5.1347,-5.1066,-5.102,-5.1109,-5.1229,-5.1229,-5.1229,-5.1229,-5.1229,-5.1229,-5.1229,-5.1229,-5.1229,-5.1229,-5.1229,-5.1229,-5.1229,-5.1229,-5.1229,-5.1229,-5.1229,-5.1229,-5.1229,-5.1229,-5.1229,-5.1229,-5.1229,-5.1229,-5.1229,-5.1229,-5.1229,-5.1139,-5.102,-5.0361,-4.9703,-4.912,-4.8416,-4.7818,-4.7309,-4.7309,-4.7309,-4.7309,-4.7309,-4.7309,-4.7309,-4.7309,-4.7309,-4.7309,-4.7309,-4.7309,-4.7309,-4.7309,-4.7309,-4.7309,-4.7309,-4.7309,-4.7309,-4.7309,-4.7309,-4.7309,-4.7309,-4.7309,-4.7309,-4.7309,-4.7309,-4.7309,-4.7309,-4.7309,-4.7309,-4.7309,-4.7309,-4.7249,-4.695,-4.686,-4.692,-4.707,-4.71,-4.713,-4.7279,-4.7309,-4.7309,-4.7309,-4.7189,-4.692,-4.6411,-4.5185,-4.4257,-4.4107,-4.3618,-4.329,-4.329,-4.329,-4.305,-4.2333,-4.2739,-4.2739,-4.2017,-4.2315,-4.2478,-4.2478,-4.0899,-3.9651,-3.8926,-3.941,-3.9241,-3.8527,-3.8998,-3.9233,-3.9233,-3.9233,-3.9233,-5.2002,-5.1602,-5.1229,-5.1229,-5.1229,-5.1229,-5.1229,-5.1229,-5.1229,-5.1229,-5.0913,-5.0704,-5.0704,-5.0704,-5.0794,-5.1169,-5.1229,-5.1229,-5.1229,-5.1229,-5.1229,-5.1229,-5.1229,-5.1229,-5.1229,-5.1229,-5.1229,-5.1229,-5.1229,-5.1229,-5.1229,-5.1229,-5.1229,-5.1229,-5.0524,-4.9912,-4.9329,-4.8626,-4.7967,-4.7309,-4.7309,-4.7309,-4.7309,-4.7309,-4.7309,-4.7309,-4.7309,-4.7309,-4.7309,-4.7309,-4.7309,-4.7309,-4.7309,-4.7309,-4.7309,-4.7309,-4.7309,-4.7309,-4.7309,-4.7309,-4.7309,-4.7309,-4.7309,-4.7309,-4.7309,-4.7309,-4.7309,-4.7309,-4.7309,-4.7309,-4.7309,-4.7309,-4.7309,-4.7309,-4.7309,-4.7309,-4.7309,-4.7309,-4.7309,-4.7309,-4.7309,-4.7309,-4.7309,-4.7309,-4.707,-4.6369,-4.5454,-4.4676,-4.4347,-4.3708,-4.329,-4.329,-4.329,-4.313,-4.2659,-4.305,-4.3249,-4.3101,-4.3455,-4.3541,-4.3369,-4.305,-4.1995,-4.0169,-4.045,-4.0106,-3.9128,-3.9468,-3.9599,-3.9599,-3.9599,-3.9599,-5.1956,-5.1556,-5.1229,-5.1229,-5.1229,-5.1229,-5.1229,-5.1229,-5.1199,-5.1079,-5.0584,-5.0196,-5.0196,-5.0106,-5.0226,-5.093,-5.105,-5.1079,-5.1199,-5.1229,-5.1229,-5.1229,-5.1229,-5.1229,-5.1229,-5.1229,-5.1229,-5.1229,-5.1229,-5.1229,-5.1229,-5.1229,-5.1229,-5.1229,-5.0644,-5.0092,-4.9434,-4.8775,-4.8117,-4.7489,-4.7369,-4.7309,-4.7309,-4.7309,-4.7309,-4.7309,-4.7309,-4.7309,-4.7309,-4.7309,-4.7309,-4.7309,-4.7309,-4.7309,-4.7309,-4.7309,-4.7222,-4.7062,-4.7266,-4.7222,-4.7062,-4.7266,-4.7309,-4.7309,-4.7309,-4.7309,-4.7309,-4.7309,-4.7309,-4.7309,-4.7309,-4.7309,-4.7309,-4.7309,-4.7309,-4.7309,-4.7309,-4.7309,-4.7309,-4.7309,-4.7309,-4.7309,-4.7309,-4.7309,-4.713,-4.6561,-4.5903,-4.5244,-4.4556,-4.3858,-4.3409,-4.329,-4.329,-4.329,-4.329,-4.3409,-4.3708,-4.4287,-4.4526,-4.443,-4.3994,-4.4912,-4.4124,-4.1466,-4.145,-4.0911,-3.9756,-3.986,-3.9913,-3.9913,-3.9913,-3.9913,-5.1649,-5.1463,-5.1229,-5.1229,-5.1229,-5.1229,-5.1229,-5.1229,-5.105,-5.0435,-5.0255,-5.0196,-5.0196,-4.9763,-4.9613,-5.0226,-5.0315,-5.0524,-5.1139,-5.1229,-5.1229,-5.1229,-5.1229,-5.1229,-5.1229,-5.1229,-5.1229,-5.1229,-5.1229,-5.1229,-5.1229,-5.1229,-5.1229,-5.1229,-5.1139,-5.078,-5.0076,-4.9464,-4.885,-4.8147,-4.7578,-4.7309,-4.7309,-4.7309,-4.7309,-4.7309,-4.7309,-4.7309,-4.7309,-4.7309,-4.7309,-4.7309,-4.7309,-4.7309,-4.7309,-4.7309,-4.6726,-4.6121,-4.7019,-4.6726,-4.6166,-4.7019,-4.7309,-4.7309,-4.7309,-4.7309,-4.7309,-4.7309,-4.7309,-4.7309,-4.7309,-4.7309,-4.7309,-4.7309,-4.7309,-4.7309,-4.7309,-4.7309,-4.7309,-4.7309,-4.7309,-4.7309,-4.7309,-4.7309,-4.7279,-4.7189,-4.6621,-4.5933,-4.5244,-4.4586,-4.3917,-4.3349,-4.329,-4.329,-4.329,-4.3828,-4.4227,-4.4317,-4.5382,-4.5628,-4.4705,-4.536,-4.4721,-4.2596,-4.2832,-4.2117,-4.0305,-4.0827,-4.1089,-4.1089,-4.1089,-4.1089,-5.1416,-5.1323,-5.1229,-5.1229,-5.1229,-5.1229,-5.1229,-5.1229,-5.1139,-5.0794,-5.0435,-5.0076,-4.9763,-4.9164,-4.8925,-4.9583,-5.0002,-5.0285,-5.0584,-5.0943,-5.1229,-5.1229,-5.1229,-5.1229,-5.1229,-5.1229,-5.1229,-5.1229,-5.1229,-5.1229,-5.1229,-5.1229,-5.1229,-5.1229,-5.1229,-5.09,-5.0196,-4.9583,-4.8745,-4.7728,-4.7429,-4.7309,-4.7309,-4.7309,-4.7309,-4.7309,-4.7309,-4.7309,-4.7309,-4.7309,-4.7309,-4.7309,-4.7309,-4.7309,-4.7309,-4.7309,-4.6638,-4.5869,-4.6299,-4.6166,-4.5869,-4.6299,-4.6844,-4.7309,-4.7309,-4.7309,-4.7309,-4.7309,-4.7309,-4.7309,-4.7309,-4.7309,-4.7309,-4.7309,-4.7309,-4.7309,-4.7309,-4.7309,-4.7309,-4.7309,-4.7309,-4.7309,-4.7309,-4.7309,-4.7309,-4.7309,-4.6741,-4.6202,-4.5903,-4.4975,-4.4197,-4.3858,-4.3858,-4.3858,-4.3858,-4.4496,-4.5035,-4.5424,-4.5454,-4.52,-4.4533,-4.4818,-4.4003,-4.2016,-4.2644,-4.2316,-4.0906,-4.1193,-4.1324,-4.1324,-4.1324,-4.1324,-5.1246,-5.1229,-5.1229,-5.1229,-5.1229,-5.1229,-5.1229,-5.1229,-5.1229,-5.1229,-5.0644,-5.0046,-4.9613,-4.8835,-4.8566,-4.9374,-4.9793,-5.0046,-5.0405,-5.0853,-5.1229,-5.1229,-5.1229,-5.1229,-5.1229,-5.1229,-5.1229,-5.1229,-5.1229,-5.1229,-5.1229,-5.1229,-5.1229,-5.1229,-5.1229,-5.0943,-5.0435,-4.9673,-4.864,-4.7309,-4.7309,-4.7309,-4.7309,-4.7309,-4.7149,-4.6931,-4.6931,-4.6931,-4.6931,-4.6931,-4.7062,-4.7309,-4.7309,-4.7149,-4.6931,-4.6931,-4.6121,-4.507,-4.5326,-4.5417,-4.5463,-4.5734,-4.6506,-4.7309,-4.7309,-4.7309,-4.7309,-4.7309,-4.7309,-4.7309,-4.7309,-4.7309,-4.7309,-4.7309,-4.7309,-4.7309,-4.7309,-4.7309,-4.7309,-4.7309,-4.7309,-4.7309,-4.7309,-4.7309,-4.7309,-4.7309,-4.689,-4.6501,-4.6309,-4.5454,-4.4766,-4.4586,-4.4556,-4.4556,-4.4556,-4.5185,-4.5783,-4.6249,-4.5507,-4.4838,-4.4331,-4.4078,-4.3081,-4.1298,-4.2065,-4.2065,-4.1324,-4.1324,-4.1324,-4.1324,-4.1324,-4.1324,-5.1229,-5.1229,-5.1229,-5.1229,-5.1229,-5.1229,-5.1229,-5.1229,-5.1229,-5.1229,-5.0644,-5.0196,-5.0136,-4.9134,-4.8716,-4.9927,-4.9703,-4.9763,-5.099,-5.1199,-5.1229,-5.1229,-5.1229,-5.1229,-5.1229,-5.1229,-5.1229,-5.1229,-5.1229,-5.1229,-5.1229,-5.1229,-5.1229,-5.1229,-5.1229,-5.1199,-5.1169,-4.9912,-4.864,-4.7309,-4.7309,-4.7309,-4.7309,-4.7309,-4.677,-4.5869,-4.5869,-4.5869,-4.5869,-4.5869,-4.6432,-4.7309,-4.7309,-4.6726,-4.5869,-4.5869,-4.4656,-4.3081,-4.4078,-4.4359,-4.4545,-4.5508,-4.6506,-4.7309,-4.7309,-4.7309,-4.7309,-4.7309,-4.7309,-4.7309,-4.7309,-4.7309,-4.7309,-4.7309,-4.7309,-4.7309,-4.7309,-4.7309,-4.7309,-4.7309,-4.7309,-4.7309,-4.7309,-4.7309,-4.7309,-4.7309,-4.7279,-4.704,-4.6369,-4.6219,-4.5963,-4.5304,-4.5244,-4.5244,-4.5244,-4.5873,-4.6249,-4.6279,-4.5962,-4.5343,-4.4359,-4.3368,-4.2382,-4.1324,-4.1374,-4.1348,-4.1324,-4.1324,-4.1324,-4.1324,-4.1324,-4.1324,-5.1229,-5.1229,-5.1229,-5.1229,-5.1229,-5.1229,-5.1229,-5.1229,-5.1229,-5.1229,-5.0973,-5.0823,-5.0823,-4.9793,-4.9075,-4.9553,-4.9763,-5.0062,-5.0465,-5.096,-5.1229,-5.1229,-5.1229,-5.1229,-5.1229,-5.1229,-5.1229,-5.1229,-5.1229,-5.1229,-5.1229,-5.1229,-5.1229,-5.1229,-5.1229,-5.081,-4.9972,-4.9539,-4.864,-4.7309,-4.7309,-4.7309,-4.7309,-4.7309,-4.6417,-4.4823,-4.4823,-4.4823,-4.4823,-4.4823,-4.5417,-4.6255,-4.5627,-4.5553,-4.5734,-4.5098,-4.3956,-4.284,-4.3225,-4.3748,-4.4359,-4.473,-4.5943,-4.7309,-4.7309,-4.7309,-4.7309,-4.7309,-4.7309,-4.7309,-4.7309,-4.7309,-4.7309,-4.7309,-4.7309,-4.7309,-4.7309,-4.7309,-4.7309,-4.7309,-4.7309,-4.7309,-4.7309,-4.7309,-4.7309,-4.7309,-4.7309,-4.7219,-4.698,-4.6591,-4.619,-4.5992,-4.5963,-4.5963,-4.5963,-4.6561,-4.6661,-4.6021,-4.5257,-4.4684,-4.4312,-4.3321,-4.2937,-4.3225,-4.3225,-4.2577,-4.1324,-4.1324,-4.1324,-4.1324,-4.1324,-4.1324,-5.1229,-5.1229,-5.1229,-5.1229,-5.1229,-5.1229,-5.1229,-5.1229,-5.1229,-5.1229,-5.1229,-5.1229,-5.1229,-5.0511,-4.9912,-4.9912,-5.0092,-5.0255,-5.0495,-5.0913,-5.1229,-5.1229,-5.1229,-5.1229,-5.1229,-5.1229,-5.1229,-5.1229,-5.1229,-5.1229,-5.1229,-5.1229,-5.1229,-5.1229,-5.1229,-5.0601,-4.9329,-4.9299,-4.864,-4.7309,-4.7309,-4.7309,-4.7309,-4.7309,-4.6166,-4.4312,-4.4312,-4.4125,-4.3796,-4.3796,-4.4563,-4.5689,-4.4684,-4.473,-4.519,-4.4172,-4.3177,-4.2284,-4.2284,-4.2937,-4.3843,-4.4172,-4.5417,-4.6887,-4.7222,-4.7309,-4.7309,-4.7309,-4.7062,-4.677,-4.677,-4.655,-4.6373,-4.6726,-4.655,-4.6284,-4.6284,-4.6844,-4.7309,-4.7309,-4.7309,-4.7309,-4.7309,-4.7309,-4.7309,-4.7309,-4.7309,-4.7309,-4.7309,-4.692,-4.6651,-4.6651,-4.6651,-4.6651,-4.6651,-4.704,-4.7019,-4.6344,-4.5372,-4.4823,-4.4823,-4.3843,-4.3606,-4.4312,-4.4312,-4.3654,-4.2311,-4.2311,-4.2311,-4.2311,-4.2311,-4.2311,0.0,0.0,0.0,-5.1229,-5.1229,-5.1229,-5.1229,-5.1229,-5.1229,-5.1229,-5.1229,-5.1229,-5.1229,-5.1229,-5.1229,-5.1229,-5.0644,-5.0435,-5.1139,-5.1229,-5.1229,-5.1229,-5.1229,-5.1229,-5.1229,-5.1229,-5.1229,-5.1229,-5.1229,-5.1229,-5.1229,-5.1229,-5.1229,-5.1229,-5.1229,-5.0601,-4.9329,-4.9299,-4.864,-4.7309,-4.7309,-4.7309,-4.7309,-4.7309,-4.6166,-4.4312,-4.4312,-4.3701,-4.2744,-4.2744,-4.3909,-4.5598,-4.4591,-4.4219,-4.4125,-4.3129,-4.2137,-4.1324,-4.1324,-4.1967,-4.2985,-4.3984,-4.5007,-4.5958,-4.7019,-4.7309,-4.7309,-4.7309,-4.6594,-4.5779,-4.5779,-4.5052,-4.4591,-4.5553,-4.5052,-4.4359,-4.4312,-4.5853,-4.7222,-4.7222,-4.7266,-4.7309,-4.7266,-4.7266,-4.7309,-4.7309,-4.7309,-4.7309,-4.7309,-4.7309,-4.7309,-4.7309,-4.7309,-4.7309,-4.7309,-4.7309,-4.7309,-4.7266,-4.6344,-4.5779,-4.5779,-4.4869,-4.4359,-4.4406,-4.4406,-4.4406,-4.4406,-4.4312,-4.4312,-4.4312,-4.4312,-4.4312,-5.1229,0.0,0.0,0.0,0.0,0.0,-5.1229,-5.1229,-5.1229,-5.1229,-5.1229,-5.1229,-5.1229,-5.1229,-5.1229,-5.1229,-5.1033,-5.102,-5.1199,-5.1229,-5.1229,-5.1229,-5.1229,-5.1229,-5.1229,-5.1229,-5.1229,-5.1229,-5.1229,-5.1229,-5.1229,-5.1229,-5.1229,-5.1229,-5.1229,-5.0601,-4.9329,-4.9299,-4.864,-4.7309,-4.7309,-4.7309,-4.7309,-4.7309,-4.6166,-4.4312,-4.4312,-4.3321,-4.172,-4.172,-4.2479,-4.3531,-4.2528,-4.2577,-4.3081,-4.2115,-4.1547,-4.1324,-4.1324,-4.1967,-4.2985,-4.3984,-4.5007,-4.5958,-4.7019,-4.7309,-4.7309,-4.7309,-4.6594,-4.5644,-4.4915,-4.5052,-4.5281,-4.4823,-4.5052,-4.519,-4.4452,-4.473,-4.5144,-4.5144,-4.6329,-4.7062,-4.6344,-4.6814,-4.7309,-4.7309,-4.7309,-4.7309,-4.7309,-4.7309,-4.7309,-4.7309,-4.7309,-4.7309,-4.7309,-4.7309,-4.6975,-4.6255,-4.5958,-4.5779,-4.5779,-4.5553,-4.5734,-4.6462,-4.6462,-4.6462,-4.6462,-4.5007,-4.4312,-4.4312,-4.4312,-4.4312,-5.1229,-5.1229,-5.1229,-5.1229,0.0,0.0,-5.1229,-5.1229,-5.1229,-5.1229,-5.1229,-5.1229,-5.1229,-5.1229,-5.1229,-5.1229,-5.1229,-5.1229,-5.1229,-5.1229,-5.1229,-5.1229,-5.1229,-5.1229,-5.1229,-5.1229,-5.1229,-5.1229,-5.1229,-5.1229,-5.1229,-5.1229,-5.1229,-5.1229,-5.1229,-5.0601,-4.9329,-4.9299,-4.864,-4.7309,-4.7309,-4.7309,-4.7309,-4.7309,-4.6166,-4.4312,-4.4312,-4.3129,-4.1324,-4.1324,-4.1868,-4.2695,-4.167,-4.1918,-4.2695,-4.167,-4.1324,-4.1324,-4.1324,-4.167,-4.2333,-4.3368,-4.405,-4.4748,-4.5763,-4.6032,-4.6121,-4.655,-4.5943,-4.4961,-4.3937,-4.3796,-4.389,-4.3701,-4.3796,-4.3796,-4.3177,-4.3368,-4.3937,-4.4776,-4.5508,-4.6121,-4.6388,-4.655,-4.6814,-4.7266,-4.7309,-4.7309,-4.7309,-4.7309,-4.7309,-4.7309,-4.7309,-4.7309,-4.7309,-4.7309,-4.7062,-4.6462,-4.6432,-4.6432,-4.6432,-4.6432,-4.6682,-4.7309,-4.7309,-4.7309,-4.7309,-4.6121,-4.5582,-4.5582,-4.5582,-4.5582,-5.1229,-5.1229,-5.1229,-5.1229,-5.1229,0.0,-5.1229,-5.1229,-5.1229,-5.1229,-5.1229,-5.1229,-5.1229,-5.1229,-5.1229,-5.1229,-5.1229,-5.1229,-5.1229,-5.1229,-5.1229,-5.1229,-5.1229,-5.1229,-5.1229,-5.1229,-5.1229,-5.1229,-5.1229,-5.1229,-5.1229,-5.1229,-5.1229,-5.1229,-5.1229,-5.0601,-4.9329,-4.9299,-4.864,-4.7309,-4.7309,-4.7309,-4.7309,-4.7309,-4.6166,-4.4312,-4.4312,-4.3129,-4.1324,-4.1324,-4.1819,-4.255,-4.1647,-4.1868,-4.2501,-4.1647,-4.1324,-4.1324,-4.1324,-4.1324,-4.1448,-4.2479,-4.2792,-4.2985,-4.3984,-4.4312,-4.4452,-4.5281,-4.4794,-4.389,-4.2889,-4.2065,-4.167,-4.2479,-4.2065,-4.1448,-4.1298,-4.2016,-4.3225,-4.507,-4.4915,-4.5007,-4.6844,-4.6506,-4.6255,-4.7149,-4.7309,-4.7309,-4.7309,-4.7222,-4.7106,-4.7106,-4.7106,-4.7106,-4.7106,-4.7266,-4.7309,-4.7309,-4.7309,-4.7309,-4.7309,-4.7309,-4.7309,-4.7309,-4.7309,-4.7309,-4.7309,-4.7309,-4.7309,-4.7309,-4.7309,-4.7309,-5.1229,-5.1229,-5.1229,-5.1229,-5.1229,0.0,-5.1229,-5.1229,-5.1229,-5.1229,-5.1229,-5.1229,-5.1229,-5.1229,-5.1229,-5.1229,-5.1229,-5.1229,-5.1229,-5.1229,-5.1229,-5.1229,-5.1229,-5.1229,-5.1229,-5.1229,-5.1229,-5.1229,-5.1229,-5.1229,-5.1229,-5.1229,-5.1229,-5.1229,-5.1229,-5.0601,-4.9329,-4.9299,-4.864,-4.7309,-4.7309,-4.7309,-4.7309,-4.7309,-4.6166,-4.4312,-4.4312,-4.3129,-4.1324,-4.1324,-4.1398,-4.1597,-4.1374,-4.1398,-4.1597,-4.1348,-4.1324,-4.1324,-4.1324,-4.1324,-4.1448,-4.2479,-4.2792,-4.2985,-4.3984,-4.4312,-4.4172,-4.3531,-4.3273,-4.284,-4.1868,-4.2065,-4.2333,-4.172,-4.2065,-4.2284,-4.1448,-4.1448,-4.1967,-4.3177,-4.4517,-4.5644,-4.6032,-4.6594,-4.7062,-4.7266,-4.7309,-4.7309,-4.7309,-4.6594,-4.6121,-4.6121,-4.6121,-4.6121,-4.6121,-4.6814,-4.7309,-4.7309,-4.7309,-4.7309,-4.7309,-4.7309,-4.7309,-4.7309,-4.7309,-4.7309,-4.7309,-4.7309,-4.7309,-4.7309,-4.7309,-4.7309,-5.1229,-5.1229,-5.1229,-5.1229,-5.1229,0.0,0.0,-5.1229,-5.1229,-5.1229,-5.1229,-5.1229,-5.1229,-5.1229,-5.1229,-5.1229,-5.1229,-5.1229,-5.1229,-5.1229,-5.1229,-5.1229,-5.1229,-5.1229,-5.1229,-5.1229,-5.1229,-5.1229,-5.1229,-5.1229,-5.1229,-5.1229,-5.1229,-5.1229,-5.1229,-5.0601,-4.9329,-4.9299,-4.864,-4.7309,-4.7309,-4.7309,-4.7309,-4.7309,-4.6462,-4.5007,-4.4545,-4.3416,-4.2016,-4.1498,-4.1324,-4.1324,-4.1324,-4.1324,-4.1324,-4.1324,-4.1324,-4.1324,-4.1324,-4.1324,-4.1348,-4.1868,-4.2065,-4.2137,-4.2674,-4.3129,-4.3368,-4.2333,-4.2431,-4.255,-4.1547,-4.167,-4.1918,-4.1398,-4.1696,-4.1918,-4.1398,-4.1324,-4.1597,-4.2598,-4.4003,-4.5235,-4.5734,-4.6211,-4.655,-4.655,-4.6975,-4.6931,-4.5943,-4.5779,-4.5779,-4.5779,-4.5779,-4.6003,-4.6506,-4.7019,-4.7309,-4.7309,-4.6814,-4.677,-4.7266,-4.6329,-4.6032,-4.655,-4.7019,-4.7309,-4.7309,-4.7309,-4.7309,-4.7309,-4.7309,-4.7309,-5.1229,-5.1229,-5.1229,-5.1229,-5.1229,-5.1229,0.0,0.0,0.0,-5.1229,-5.1229,-5.1229,-5.1229,-5.1229,-5.1229,-5.1229,-5.1229,-5.1229,-5.1229,-5.1229,-5.1229,-5.1229,-5.1229,-5.1229,-5.1229,-5.1229,-5.1229,-5.1229,-5.1229,-5.1229,-5.1229,-5.1229,-5.1229,-5.1229,-5.1229,-5.0601,-4.9329,-4.9299,-4.864,-4.7309,-4.7309,-4.7309,-4.7309,-4.7309,-4.6638,-4.5463,-4.4638,-4.3606,-4.2479,-4.1647,-4.1324,-4.1324,-4.1324,-4.1324,-4.1324,-4.1324,-4.1324,-4.1324,-4.1324,-4.1324,-4.1324,-4.1324,-4.1324,-4.1324,-4.1324,-4.1868,-4.2333,-4.1547,-4.1868,-4.2333,-4.1498,-4.1324,-4.1324,-4.1324,-4.1324,-4.1324,-4.1324,-4.1324,-4.1547,-4.2333,-4.3464,-4.4638,-4.5644,-4.5779,-4.5779,-4.5779,-4.6299,-4.6121,-4.4499,-4.5007,-4.5508,-4.5508,-4.5689,-4.6121,-4.6931,-4.7019,-4.7019,-4.7019,-4.6077,-4.5987,-4.6975,-4.5673,-4.5235,-4.6077,-4.6887,-4.7309,-4.7309,-4.7309,-4.7309,-4.7309,-4.7309,-4.7309,-5.1229,-5.1229,-5.1229,-5.1229,-5.1229,-5.1229,-5.1229,0.0,-5.1229,-5.1229,0.0,-5.1229,-5.1229,0.0,0.0,-5.1229,-5.1229,-5.1229,-5.1229,-5.1229,-5.1229,-5.1229,-5.1229,-5.1229,-5.1229,-5.1229,-5.1229,-5.1229,-5.1229,-5.1229,-5.1229,-5.1229,-5.1229,-5.1229,-5.1229,-5.0601,-4.9329,-4.9299,-4.864,-4.7309,-4.7309,-4.7309,-4.7309,-4.7309,-4.6284,-4.4452,-4.4359,-4.3225,-4.1448,-4.1374,-4.1324,-4.1324,-4.1324,-4.1324,-4.1324,-4.1324,-4.1324,-4.1324,-4.1324,-4.1324,-4.1324,-4.1324,-4.1324,-4.1324,-4.1324,-4.1348,-4.1448,-4.1324,-4.1348,-4.1448,-4.1324,-4.1324,-4.1324,-4.1324,-4.1324,-4.1324,-4.1324,-4.1324,-4.1298,-4.1448,-4.3012,-4.4638,-4.5644,-4.5779,-4.5779,-4.5779,-4.5144,-4.4545,-4.4312,-4.4406,-4.4452,-4.4452,-4.5281,-4.5824,-4.5958,-4.5958,-4.5958,-4.5958,-4.5052,-4.4915,-4.5913,-4.6594,-4.7019,-4.7106,-4.7266,-4.7309,-4.7309,-4.7309,-4.7309,-4.7309,-4.7309,-4.7309,-5.1229,-5.1229,-5.1229,-5.1229,-5.1229,-5.1229,-5.1229,-5.1229,-5.1229,-5.1229,0.0,0.0,0.0,0.0,0.0,0.0,-5.1229,-5.1229,-5.1229,-5.1229,-5.1229,-5.1229,-5.1229,-5.1229,-5.1229,-5.1229,-5.1229,-5.1229,-5.1229,-5.1229,-5.1229,-5.1229,-5.1229,-5.1229,-5.1229,-5.0601,-4.9329,-4.9299,-4.864,-4.7309,-4.7309,-4.7309,-4.7309,-4.7309,-4.6844,-4.5987,-4.4823,-4.3796,-4.2964,-4.1769,-4.1324,-4.1324,-4.1324,-4.1324,-4.1324,-4.1324,-4.1324,-4.1324,-4.1324,-4.1324,-4.1324,-4.1324,-4.1324,-4.1324,-4.1324,-4.1324,-4.1324,-4.1324,-4.1324,-4.1324,-4.1324,-4.1324,-4.1324,-4.1324,-4.1324,-4.1324,-4.1324,-4.1324,-4.1324,-4.1324,-4.2431,-4.3531,-4.4003,-4.5024,-4.5417,-4.4238,-4.4219,-4.4078,-4.3511,-4.3937,-4.4545,-4.5098,-4.5052,-4.519,-4.5734,-4.5281,-4.519,-4.5779,-4.5943,-4.5718,-4.4961,-4.6462,-4.7019,-4.6432,-4.7019,-4.7309,-4.7309,-4.7309,-4.7309,-4.7309,-4.7309,-4.7309,-5.1229,-5.1229,-5.1229,-5.1229,-5.1229,-5.1229,-5.1229,-5.1229,-5.1229,-5.1229,-5.1229,0.0,0.0,0.0,0.0,0.0,0.0,-5.1229,-5.1229,-5.1229,-5.1229,-5.1229,-5.1229,-5.1229,-5.1229,-5.1229,-5.1229,-5.1229,-5.1229,-5.1229,-5.1229,-5.1229,-5.1229,-5.1229,-5.1229,-5.0601,-4.9329,-4.9299,-4.864,-4.7309,-4.7309,-4.7309,-4.7309,-4.7309,-4.6975,-4.6417,-4.4915,-4.3984,-4.3368,-4.1868,-4.1324,-4.1324,-4.1324,-4.1324,-4.1324,-4.1324,-4.1324,-4.1324,-4.1324,-4.1324,-4.1324,-4.1324,-4.1324,-4.1324,-4.1324,-4.1324,-4.1324,-4.1324,-4.1324,-4.1324,-4.1324,-4.1324,-4.1324,-4.1324,-4.1324,-4.1324,-4.1324,-4.1324,-4.1324,-4.1324,-4.2088,-4.2695,-4.2431,-4.3815,-4.447,-4.3033,-4.3177,-4.3225,-4.2479,-4.3273,-4.4144,-4.4886,-4.4591,-4.4591,-4.5326,-4.447,-4.4191,-4.4932,-4.6166,-4.6211,-4.4776,-4.6373,-4.6975,-4.6211,-4.6931,-4.7309,-4.7309,-4.7309,-4.7309,-4.7309,-4.7309,-4.7309,-5.1229,0.0,-5.1229,-5.1229,-5.1229,-5.1229,-5.1229,-5.1229,-5.1229,-5.1229,-5.1229,-5.1229,-5.1229,0.0,0.0,0.0,0.0,0.0,0.0,-5.1229,-5.1229,-5.1229,-5.1229,-5.1229,-5.1229,-5.1229,-5.1229,0.0,-5.1229,-5.1229,-5.1229,-5.1229,-5.1229,-5.1229,-5.1229,-5.0601,-4.9329,-4.9299,-4.864,-4.7309,-4.7309,-4.7309,-4.7309,-4.7309,-4.624,-4.4406,-4.4312,-4.3177,-4.1424,-4.1324,-4.1324,-4.1324,-4.1324,-4.1324,-4.1324,-4.1324,-4.1324,-4.1324,-4.1324,-4.1324,-4.1324,-4.1324,-4.1324,-4.1324,-4.1324,-4.1324,-4.1324,-4.1324,-4.1324,-4.1324,-4.1324,-4.1324,-4.1324,-4.1324,-4.1324,-4.1324,-4.1324,-4.1324,-4.1324,-4.1324,-4.2088,-4.2479,-4.1498,-4.2186,-4.2889,-4.2792,-4.2016,-4.1348,-4.1348,-4.2235,-4.284,-4.2889,-4.3748,-4.4312,-4.4359,-4.3416,-4.284,-4.2889,-4.4748,-4.5824,-4.5734,-4.6726,-4.7266,-4.7266,-4.7266,-4.7309,-4.7309,-4.7309,-4.7309,-4.7309,-4.7309,-4.7309,0.0,0.0,-5.1229,-5.1229,0.0,0.0,-5.1229,-5.1229,-5.1229,-5.1229,-5.1229,-5.1229,-5.1229,0.0,0.0,0.0,0.0,0.0,0.0,-5.1229,-5.1229,-5.1229,-5.1229,-5.1229,-5.1229,-5.1229,0.0,0.0,-5.1229,0.0,-5.1229,-5.1229,-5.1229,-5.1229,-5.1229,-5.0601,-4.9329,-4.9299,-4.864,-4.7309,-4.7309,-4.7309,-4.7309,-4.7309,-4.655,-4.5281,-4.4591,-4.3559,-4.2235,-4.1597,-4.1324,-4.1324,-4.1324,-4.1324,-4.1324,-4.1324,-4.1324,-4.1324,-4.1324,-4.1324,-4.1324,-4.1324,-4.1324,-4.1324,-4.1324,-4.1324,-4.1324,-4.1324,-4.1324,-4.1324,-4.1324,-4.1324,-4.1324,-4.1324,-4.1324,-4.1324,-4.1324,-4.1324,-4.1324,-4.1324,-4.1597,-4.167,-4.1374,-4.1597,-4.1819,-4.1819,-4.1498,-4.1547,-4.2186,-4.2598,-4.3033,-4.3748,-4.3511,-4.3321,-4.3321,-4.3606,-4.3796,-4.3796,-4.5673,-4.677,-4.677,-4.6506,-4.6638,-4.7309,-4.5987,-4.5987,-4.7309,-4.5943,-4.5987,-4.7266,-4.6638,-4.6638,-5.1135,-5.1229,0.0,-5.1229,-5.1229,0.0,-5.1229,0.0,-5.1229,0.0,0.0,0.0,0.0,0.0,0.0,0.0,0.0,0.0,0.0,-5.1229,-5.1229,-5.1229,-5.1229,-5.1229,-5.1229,-5.1229,-5.1229,-5.1229,0.0,0.0,0.0,-5.1229,-5.1229,-5.1229,-5.1229,-5.0601,-4.9329,-4.9299,-4.864,-4.7309,-4.7309,-4.7309,-4.7309,-4.7309,-4.655,-4.5235,-4.4591,-4.3511,-4.2235,-4.1597,-4.1324,-4.1324,-4.1324,-4.1324,-4.1324,-4.1324,-4.1324,-4.1324,-4.1324,-4.1324,-4.1324,-4.1324,-4.1324,-4.1324,-4.1324,-4.1324,-4.1324,-4.1324,-4.1324,-4.1324,-4.1324,-4.1324,-4.1324,-4.1324,-4.1324,-4.1324,-4.1324,-4.1324,-4.1324,-4.1324,-4.1324,-4.1324,-4.1324,-4.1324,-4.1324,-4.1324,-4.1324,-4.1547,-4.2186,-4.2284,-4.2528,-4.3129,-4.2674,-4.2284,-4.2284,-4.3511,-4.4172,-4.3796,-4.5326,-4.6417,-4.6726,-4.5779,-4.6146,-4.7997,-4.5949,-4.5875,-4.7997,-4.622,-4.6032,-4.7266,-4.6638,-4.6682]},{"header":{"parameterUnit":"m.s-1","parameterCategory":1,"la1":30.6,"la2":29.2853,"lo1":-89.7004,"lo2":-87.6739,"dy":0.0162,"dx":0.0183,"nx":112,"ny":82,"refTime":"2023-04-16T06:00:00:Z","depth":0,"parameterNumber":3,"parameterNumberName":"V-component_of_WINDS"},"data":[0.0,0.0,0.0,0.0,0.0,0.0,0.0,0.0,0.0,0.0,0.0,0.0,0.0,0.0,0.0,0.0,0.0,0.0,0.0,0.0,0.0,0.0,0.0,0.0,0.0,0.0,0.0,0.0,0.0,0.0,0.0,0.0,0.0,0.0,0.0,0.0,0.0,0.0,0.0,0.0,0.0,0.0,0.0,0.0,0.0,0.0,0.0,0.0,0.0,0.0,0.0,0.0,0.0,0.0,0.0,0.0,0.0,0.0,0.0,0.0,0.0,0.0,0.0,0.0,0.0,0.0,0.0,0.0,0.0,0.0,0.0,0.0,0.0,0.0,0.0,0.0,0.0,0.0,0.0,0.0,0.0,0.0,0.0,0.0,0.0,0.0,0.0,0.0,0.0,0.0,2.3133,2.2928,2.2585,2.231,2.1966,2.1966,2.1966,2.1966,0.0,0.0,0.0,0.0,0.0,0.0,0.0,0.0,0.0,0.0,0.0,0.0,0.0,0.0,0.0,0.0,0.0,0.0,0.0,0.0,0.0,0.0,0.0,0.0,0.0,0.0,0.0,0.0,0.0,0.0,0.0,0.0,0.0,0.0,0.0,0.0,0.0,0.0,0.0,0.0,0.0,0.0,0.0,0.0,0.0,0.0,0.0,0.0,0.0,0.0,0.0,0.0,0.0,0.0,0.0,0.0,0.0,0.0,0.0,0.0,0.0,0.0,0.0,0.0,0.0,0.0,0.0,0.0,0.0,0.0,0.0,0.0,0.0,0.0,0.0,0.0,0.0,0.0,0.0,0.0,0.0,0.0,0.0,0.0,0.0,0.0,0.0,0.0,0.0,0.0,0.0,0.0,0.0,0.0,0.0,0.0,0.0,0.0,0.0,0.0,0.0,0.0,0.0,0.0,2.4196,2.2996,2.2859,2.2791,2.2722,2.2722,2.2722,2.2722,0.0,0.0,0.0,0.0,0.0,0.0,0.0,0.0,0.0,0.0,0.0,0.0,0.0,0.0,0.0,0.0,0.0,0.0,0.0,0.0,0.0,0.0,0.0,0.0,0.0,0.0,0.0,0.0,0.0,0.0,0.0,0.0,0.0,0.0,0.0,0.0,0.0,0.0,0.0,0.0,0.0,0.0,0.0,0.0,0.0,0.0,0.0,0.0,0.0,0.0,0.0,0.0,0.0,0.0,0.0,0.0,0.0,0.0,0.0,0.0,0.0,0.0,0.0,0.0,0.0,0.0,0.0,0.0,0.0,0.0,0.0,0.0,0.0,0.0,0.0,0.0,0.0,0.0,0.0,0.0,0.0,0.0,0.0,0.0,0.0,0.0,0.0,0.0,0.0,0.0,0.0,0.0,0.0,0.0,0.0,0.0,0.0,0.0,0.0,0.0,0.0,0.0,0.0,2.4646,2.3674,2.3992,2.3338,2.2928,2.2928,2.2928,2.2928,2.2928,2.2585,0.0,0.0,0.0,0.0,0.0,0.0,0.0,0.0,0.0,0.0,0.0,0.0,0.0,0.0,0.0,0.0,0.0,0.0,0.0,0.0,0.0,0.0,0.0,0.0,0.0,0.0,0.0,0.0,0.0,0.0,0.0,0.0,0.0,0.0,0.0,0.0,0.0,0.0,0.0,0.0,0.0,0.0,0.0,0.0,0.0,0.0,0.0,0.0,0.0,0.0,0.0,0.0,0.0,0.0,0.0,0.0,0.0,0.0,0.0,0.0,0.0,0.0,0.0,0.0,0.0,0.0,0.0,0.0,0.0,0.0,0.0,0.0,0.0,0.0,0.0,0.0,0.0,0.0,0.0,0.0,0.0,0.0,0.0,0.0,0.0,0.0,0.0,0.0,0.0,0.0,0.0,0.0,0.0,0.0,0.0,0.0,0.0,0.0,0.0,0.0,0.0,0.0,2.51,2.388,2.5197,2.4295,2.3674,2.3744,2.3758,2.365,2.3393,2.3406,0.0,0.0,0.0,0.0,0.0,0.0,0.0,0.0,0.0,0.0,0.0,0.0,0.0,0.0,0.0,0.0,0.0,0.0,0.0,0.0,0.0,0.0,0.0,0.0,0.0,0.0,0.0,0.0,0.0,0.0,0.0,0.0,0.0,0.0,0.0,0.0,0.0,0.0,0.0,0.0,0.0,0.0,0.0,0.0,0.0,0.0,0.0,0.0,0.0,0.0,0.0,0.0,0.0,0.0,0.0,0.0,0.0,0.0,0.0,0.0,0.0,0.0,0.0,0.0,0.0,0.0,0.0,0.0,0.0,0.0,0.0,0.0,0.0,0.0,0.0,0.0,0.0,0.0,0.0,0.0,0.0,0.0,0.0,0.0,0.0,0.0,0.0,0.0,0.0,0.0,0.0,0.0,0.0,0.0,0.0,0.0,0.0,0.0,0.0,0.0,0.0,0.0,2.7409,2.6286,2.6383,2.597,2.5843,2.6221,2.6252,2.5865,2.4926,2.4873,0.0,0.0,0.0,0.0,0.0,0.0,0.0,0.0,0.0,0.0,0.0,0.0,0.0,0.0,0.0,0.0,0.0,0.0,0.0,0.0,0.0,0.0,0.0,0.0,0.0,0.0,0.0,0.0,0.0,0.0,0.0,0.0,0.0,0.0,0.0,0.0,0.0,0.0,0.0,0.0,0.0,0.0,0.0,0.0,0.0,0.0,0.0,0.0,0.0,0.0,0.0,0.0,0.0,0.0,0.0,0.0,0.0,0.0,0.0,0.0,0.0,0.0,0.0,0.0,0.0,0.0,0.0,0.0,0.0,0.0,0.0,0.0,0.0,0.0,0.0,0.0,0.0,0.0,0.0,0.0,0.0,0.0,0.0,0.0,0.0,0.0,0.0,0.0,0.0,0.0,0.0,0.0,0.0,0.0,0.0,0.0,0.0,0.0,0.0,0.0,0.0,0.0,2.7724,2.6536,2.7449,2.6552,2.5959,2.6086,2.615,2.6049,2.5932,0.0,0.0,0.0,0.0,0.0,0.0,0.0,0.0,0.0,0.0,0.0,0.0,0.0,0.0,0.0,0.0,0.0,0.0,0.0,0.0,0.0,0.0,0.0,0.0,0.0,0.0,0.0,0.0,0.0,0.0,0.0,0.0,0.0,0.0,0.0,0.0,0.0,0.0,0.0,0.0,0.0,0.0,0.0,0.0,0.0,0.0,0.0,0.0,0.0,0.0,0.0,0.0,0.0,0.0,0.0,0.0,0.0,0.0,0.0,0.0,0.0,0.0,0.0,0.0,0.0,0.0,0.0,0.0,0.0,0.0,0.0,0.0,0.0,0.0,0.0,0.0,0.0,0.0,0.0,0.0,0.0,0.0,0.0,0.0,0.0,0.0,0.0,0.0,0.0,0.0,0.0,0.0,0.0,0.0,0.0,0.0,0.0,0.0,0.0,0.0,0.0,0.0,3.0426,2.8674,2.7713,2.8649,2.7594,2.6952,2.7051,2.7068,2.7027,2.7003,0.0,0.0,0.0,0.0,0.0,0.0,0.0,0.0,0.0,0.0,0.0,0.0,0.0,0.0,0.0,0.0,0.0,0.0,0.0,0.0,0.0,0.0,0.0,0.0,0.0,0.0,0.0,0.0,0.0,0.0,0.0,0.0,0.0,0.0,0.0,0.0,0.0,0.0,0.0,0.0,0.0,0.0,0.0,0.0,0.0,0.0,0.0,0.0,0.0,0.0,0.0,0.0,0.0,0.0,0.0,0.0,0.0,0.0,0.0,0.0,0.0,0.0,0.0,0.0,0.0,0.0,0.0,0.0,0.0,0.0,0.0,0.0,0.0,0.0,0.0,0.0,0.0,0.0,0.0,0.0,0.0,0.0,0.0,0.0,0.0,0.0,0.0,0.0,0.0,0.0,0.0,0.0,0.0,0.0,0.0,0.0,0.0,0.0,0.0,0.0,0.0,0.0,3.1167,3.0508,3.0083,3.0083,2.9471,2.914,2.9586,2.9623,2.9177,0.0,0.0,0.0,0.0,0.0,0.0,0.0,0.0,0.0,0.0,0.0,0.0,0.0,0.0,0.0,0.0,0.0,0.0,0.0,0.0,0.0,0.0,0.0,0.0,0.0,0.0,0.0,0.0,0.0,0.0,0.0,0.0,0.0,0.0,0.0,0.0,0.0,0.0,0.0,0.0,0.0,0.0,0.0,0.0,0.0,0.0,0.0,0.0,0.0,0.0,0.0,0.0,0.0,0.0,0.0,0.0,0.0,0.0,0.0,0.0,0.0,0.0,0.0,0.0,0.0,0.0,0.0,0.0,0.0,0.0,0.0,0.0,0.0,0.0,0.0,0.0,0.0,0.0,0.0,0.0,0.0,0.0,0.0,0.0,0.0,0.0,0.0,0.0,0.0,0.0,0.0,0.0,0.0,0.0,0.0,0.0,0.0,0.0,0.0,0.0,0.0,0.0,0.0,3.0373,3.0313,3.0253,2.9971,2.9583,2.9387,2.9498,2.9338,2.9203,2.9159,0.0,0.0,0.0,0.0,0.0,0.0,0.0,0.0,0.0,0.0,0.0,0.0,0.0,0.0,0.0,0.0,0.0,0.0,0.0,0.0,0.0,0.0,0.0,0.0,0.0,0.0,0.0,0.0,0.0,0.0,0.0,0.0,0.0,0.0,0.0,0.0,0.0,0.0,0.0,0.0,0.0,0.0,0.0,0.0,0.0,0.0,0.0,0.0,0.0,0.0,0.0,0.0,0.0,0.0,0.0,0.0,0.0,0.0,0.0,0.0,0.0,0.0,0.0,0.0,0.0,0.0,0.0,0.0,0.0,0.0,0.0,0.0,0.0,0.0,0.0,0.0,0.0,0.0,0.0,0.0,0.0,0.0,0.0,0.0,0.0,0.0,0.0,0.0,0.0,0.0,0.0,0.0,0.0,0.0,0.0,0.0,0.0,0.0,0.0,0.0,0.0,0.0,3.0409,3.0367,3.0365,3.0117,2.9863,2.9686,2.9686,2.945,2.9443,2.9684,0.0,0.0,0.0,0.0,0.0,0.0,0.0,0.0,0.0,0.0,0.0,0.0,0.0,0.0,0.0,0.0,0.0,0.0,0.0,0.0,0.0,0.0,0.0,0.0,0.0,0.0,0.0,0.0,0.0,0.0,0.0,0.0,0.0,0.0,0.0,0.0,0.0,0.0,0.0,0.0,0.0,0.0,0.0,0.0,0.0,0.0,0.0,0.0,0.0,0.0,0.0,0.0,0.0,0.0,0.0,0.0,0.0,0.0,0.0,0.0,0.0,0.0,0.0,0.0,0.0,0.0,0.0,0.0,0.0,0.0,0.0,0.0,0.0,0.0,0.0,0.0,0.0,0.0,0.0,0.0,0.0,0.0,0.0,0.0,0.0,0.0,0.0,0.0,0.0,0.0,0.0,0.0,0.0,0.0,0.0,0.0,0.0,0.0,0.0,0.0,0.0,0.0,3.0937,3.0645,3.045,3.045,3.0157,2.9922,2.9922,2.9922,2.9922,2.9922,0.0,0.0,0.0,0.0,0.0,0.0,0.0,0.0,0.0,0.0,0.0,0.0,0.0,0.0,0.0,0.0,0.0,0.0,0.0,0.0,0.0,0.0,0.0,0.0,0.0,0.0,0.0,0.0,0.0,0.0,0.0,0.0,0.0,0.0,0.0,0.0,0.0,0.0,0.0,0.0,0.0,0.0,0.0,0.0,0.0,0.0,0.0,0.0,0.0,0.0,0.0,0.0,0.0,0.0,0.0,0.0,0.0,0.0,0.0,0.0,3.4215,3.3292,0.0,0.0,0.0,0.0,0.0,0.0,0.0,0.0,0.0,0.0,0.0,0.0,0.0,0.0,0.0,0.0,0.0,0.0,0.0,0.0,0.0,0.0,0.0,0.0,0.0,0.0,0.0,0.0,0.0,0.0,0.0,0.0,0.0,0.0,0.0,0.0,0.0,0.0,0.0,0.0,3.0937,3.082,3.0762,3.0762,3.0509,3.0274,3.0274,3.0039,2.9922,2.9922,3.0016,0.0,0.0,0.0,0.0,0.0,0.0,0.0,0.0,0.0,0.0,0.0,0.0,0.0,0.0,0.0,0.0,0.0,0.0,0.0,0.0,0.0,0.0,0.0,0.0,0.0,0.0,0.0,0.0,0.0,0.0,0.0,0.0,0.0,0.0,0.0,0.0,0.0,0.0,0.0,0.0,0.0,0.0,0.0,0.0,0.0,0.0,0.0,0.0,0.0,0.0,0.0,0.0,0.0,0.0,0.0,0.0,0.0,0.0,0.0,3.5253,3.4694,0.0,0.0,0.0,0.0,0.0,0.0,0.0,0.0,0.0,0.0,0.0,0.0,0.0,0.0,0.0,0.0,0.0,0.0,0.0,0.0,0.0,0.0,0.0,0.0,0.0,0.0,0.0,0.0,0.0,0.0,0.0,0.0,0.0,0.0,0.0,0.0,0.0,0.0,0.0,0.0,3.2534,3.2571,3.2399,3.1845,3.1614,3.1247,3.0704,3.047,3.0411,3.0411,3.0411,0.0,0.0,0.0,0.0,0.0,0.0,0.0,0.0,0.0,0.0,0.0,0.0,0.0,0.0,0.0,0.0,0.0,0.0,0.0,0.0,0.0,0.0,0.0,0.0,0.0,0.0,0.0,0.0,0.0,0.0,0.0,0.0,0.0,0.0,0.0,0.0,0.0,0.0,0.0,0.0,0.0,0.0,0.0,0.0,0.0,0.0,0.0,0.0,0.0,0.0,0.0,0.0,0.0,3.7309,3.7429,3.7648,3.7648,3.779,3.791,3.6642,3.652,3.7127,3.5005,0.0,0.0,0.0,0.0,0.0,0.0,0.0,0.0,0.0,0.0,0.0,0.0,0.0,0.0,0.0,0.0,0.0,0.0,0.0,0.0,0.0,0.0,3.9275,3.8209,3.8803,3.9298,3.8209,0.0,0.0,0.0,0.0,0.0,0.0,0.0,0.0,0.0,0.0,0.0,3.428,3.4391,3.4056,3.3063,3.3027,3.2571,3.1614,3.1498,3.1498,3.1498,3.1498,3.1383,0.0,0.0,0.0,0.0,0.0,0.0,0.0,0.0,0.0,0.0,0.0,0.0,0.0,0.0,0.0,0.0,0.0,0.0,0.0,0.0,0.0,0.0,0.0,0.0,0.0,0.0,0.0,0.0,0.0,0.0,0.0,0.0,3.7309,3.7309,0.0,0.0,0.0,0.0,0.0,0.0,0.0,0.0,0.0,0.0,0.0,0.0,0.0,3.7309,3.7309,3.7309,3.7309,3.7309,3.7309,3.791,3.8921,3.8921,3.9592,4.0629,3.9298,0.0,3.7309,3.6946,0.0,0.0,0.0,0.0,0.0,0.0,0.0,0.0,0.0,0.0,0.0,0.0,0.0,0.0,0.0,0.0,0.0,0.0,0.0,0.0,0.0,0.0,4.0884,4.0769,4.0803,4.0884,4.0687,3.8885,3.7178,3.6703,3.6616,3.6273,0.0,0.0,0.0,0.0,0.0,0.0,3.4391,3.4391,3.4336,3.4168,3.4168,3.4112,3.3944,3.3944,3.3944,3.3944,3.3944,3.3944,3.3888,3.3944,0.0,0.0,0.0,0.0,0.0,0.0,0.0,0.0,0.0,0.0,0.0,0.0,0.0,0.0,0.0,0.0,0.0,0.0,0.0,0.0,0.0,0.0,0.0,0.0,0.0,0.0,0.0,0.0,0.0,3.9474,3.9474,3.9474,3.9474,3.9474,0.0,0.0,0.0,0.0,0.0,0.0,0.0,0.0,0.0,3.9474,3.9474,3.9474,3.9474,3.9474,3.9474,3.9474,3.9474,3.9791,4.0316,4.0316,4.0629,4.1172,4.0571,4.0024,3.9357,3.791,3.773,3.8387,0.0,0.0,0.0,0.0,3.9003,3.8506,3.9239,3.9474,3.9474,3.9474,0.0,0.0,0.0,0.0,0.0,0.0,0.0,4.1172,4.1172,4.1172,4.1172,4.1172,4.0956,4.0739,4.0739,3.9598,3.8585,3.8655,3.8447,3.7782,3.6432,3.6185,0.0,0.0,0.0,3.5663,3.6317,3.6426,3.6154,3.5498,3.5388,3.5113,3.4447,3.4391,3.4391,3.4391,3.4391,3.4391,3.4391,3.4391,3.4391,0.0,0.0,0.0,0.0,0.0,0.0,0.0,0.0,0.0,0.0,0.0,0.0,0.0,0.0,0.0,0.0,0.0,0.0,0.0,0.0,0.0,0.0,0.0,0.0,0.0,0.0,0.0,0.0,4.1172,4.1172,4.1172,4.1172,4.1172,0.0,0.0,0.0,0.0,0.0,0.0,4.1172,4.1172,4.1172,4.1172,4.1172,4.1172,4.1172,4.1172,4.1172,4.1172,4.1172,4.1172,4.1172,4.1172,4.1172,4.1172,4.1172,4.1172,4.1057,3.9121,3.8862,3.9709,3.9709,3.9098,3.8506,4.0455,4.0571,3.9826,4.086,4.1172,4.1172,4.1172,4.1172,4.1172,4.1172,0.0,0.0,0.0,0.0,4.1172,4.1172,4.1076,4.098,4.098,4.0571,4.0186,4.0186,3.9777,3.9513,3.9922,3.9681,3.895,3.7504,3.7246,0.0,3.6735,3.6665,3.6989,3.7868,3.7974,3.7655,3.6773,3.6665,3.6286,3.5388,3.5333,3.5333,3.5333,3.5333,3.5333,3.5333,3.5333,3.5333,3.5333,0.0,0.0,0.0,0.0,0.0,0.0,0.0,0.0,0.0,0.0,0.0,0.0,0.0,0.0,0.0,0.0,0.0,0.0,0.0,0.0,0.0,0.0,0.0,0.0,0.0,0.0,0.0,0.0,0.0,4.1172,4.1172,0.0,0.0,0.0,0.0,4.1172,4.1172,4.1172,4.1172,4.1172,4.1172,4.1172,4.1172,4.1172,4.1172,4.1172,4.1172,4.1172,4.1172,4.1172,4.1172,4.1172,4.1172,4.1172,4.1172,4.1172,4.1196,4.1057,4.1057,4.1115,4.1115,4.1057,4.1,4.1115,4.1172,4.1115,4.1196,4.1172,4.1172,4.1172,4.1172,4.1172,4.1172,4.1172,0.0,0.0,4.1172,4.1172,4.1172,4.0812,4.0427,4.0427,4.0042,3.9657,3.9657,3.9224,3.8864,3.8888,3.8864,3.8617,3.8065,0.0,3.7945,3.7921,3.7921,3.7921,3.7974,3.7974,3.7974,3.7921,3.7921,3.7868,3.7814,3.7814,3.7814,3.7814,3.7814,3.7814,3.7814,3.7814,3.7814,3.7814,3.7814,0.0,0.0,0.0,0.0,0.0,0.0,0.0,0.0,0.0,0.0,0.0,0.0,0.0,0.0,0.0,0.0,0.0,0.0,0.0,0.0,0.0,0.0,0.0,0.0,0.0,0.0,0.0,0.0,4.1172,4.1344,0.0,4.123,4.1344,4.1435,4.1435,4.1287,4.1287,4.1435,4.1287,4.1172,4.1172,4.1172,4.1172,4.1172,4.1172,4.1172,4.1172,4.1172,4.1172,4.1172,4.1172,4.1172,4.1172,4.1172,4.1172,4.1172,4.1172,4.1172,4.1172,4.1172,4.1172,4.1172,4.1172,4.1172,4.1172,4.1172,4.1172,4.1172,4.1172,4.1172,4.1172,4.1172,4.1172,4.1172,4.1172,4.1103,4.087,4.0724,4.0539,4.0317,3.9985,3.963,3.9298,3.9104,3.8671,3.8286,3.8286,3.8286,3.8214,3.8022,3.7974,3.7974,3.7974,3.7974,3.7974,3.7974,3.7974,3.7974,3.7974,3.7974,3.7974,3.7974,3.7974,3.7974,3.7974,3.7974,3.7974,3.7974,3.7974,3.7974,3.7974,3.7974,3.7814,0.0,0.0,0.0,0.0,0.0,0.0,0.0,0.0,0.0,0.0,0.0,0.0,0.0,0.0,0.0,0.0,0.0,0.0,0.0,0.0,0.0,0.0,0.0,0.0,0.0,4.1402,4.1516,4.1516,4.1688,4.1688,4.1541,4.1688,4.1777,4.1777,4.1516,4.1402,4.1606,4.1344,4.1172,4.1172,4.1172,4.1172,4.1172,4.1172,4.1172,4.1172,4.1172,4.1172,4.1172,4.1172,4.1172,4.1172,4.1172,4.1172,4.1172,4.1172,4.1172,4.1172,4.1172,4.1172,4.1172,4.1172,4.1172,4.1172,4.1172,4.1172,4.1172,4.1172,4.1172,4.1172,4.1172,4.1052,4.0965,4.1022,4.0805,4.0481,4.0449,4.0282,4.003,3.9704,3.9345,3.9009,3.8849,3.8505,3.8262,3.8262,3.8133,3.7974,3.7974,3.7974,3.7974,3.7974,3.7974,3.7974,3.7974,3.7974,3.7974,3.7974,3.7974,3.7974,3.7974,3.7805,3.7781,3.7974,3.7805,3.7781,3.7974,3.7974,3.7974,3.7974,3.7974,3.7974,3.7974,0.0,0.0,0.0,0.0,0.0,0.0,0.0,0.0,0.0,0.0,0.0,0.0,0.0,0.0,0.0,0.0,0.0,0.0,0.0,0.0,0.0,0.0,0.0,4.172,4.1915,4.211,4.211,4.211,4.211,4.211,4.211,4.211,4.211,4.1802,4.1606,4.1606,4.1402,4.1254,4.1254,4.1254,4.1254,4.1254,4.1254,4.123,4.1172,4.1172,4.1172,4.1172,4.1172,4.1172,4.1172,4.1172,4.1172,4.1172,4.1172,4.1172,4.1172,4.1172,4.1172,4.1172,4.1172,4.1172,4.1172,4.1172,4.1172,4.1172,4.1172,4.1172,4.123,4.123,4.0844,4.0467,4.0724,4.039,4.0032,4.033,3.9967,3.9627,3.9574,3.9181,3.8788,3.8788,3.8788,3.8788,3.8788,3.8368,3.8027,3.8027,3.8027,3.8027,3.8027,3.8027,0.0,3.8027,3.8027,3.8027,3.8003,3.8003,3.8003,3.7979,3.7521,3.7397,3.7954,3.7497,3.7449,3.7954,3.7979,3.8003,3.795,3.795,3.8027,3.7974,0.0,0.0,0.0,0.0,0.0,0.0,0.0,0.0,0.0,0.0,0.0,0.0,0.0,0.0,0.0,0.0,0.0,0.0,0.0,0.0,0.0,4.265,4.265,4.2029,4.2029,4.211,4.211,4.2256,4.2312,4.211,4.2256,4.2369,4.2369,4.2142,4.2029,4.2231,4.1972,4.1883,4.1883,4.1883,4.1883,4.1883,4.1883,4.1745,4.1492,4.1492,4.1402,4.1172,4.1172,4.1172,4.1172,4.1172,4.1172,4.1172,4.1172,4.1172,4.1172,4.1172,4.1172,4.1172,4.1172,4.1172,4.1172,4.1172,4.1172,4.1172,4.1172,4.1079,4.091,4.091,4.0658,4.041,4.052,4.0291,4.0034,3.9873,3.9745,3.9534,3.9115,3.9121,3.9102,3.8841,3.8788,3.8788,3.8788,3.8684,3.8579,3.8579,3.8579,3.8579,3.8579,3.8579,3.8579,3.8579,3.8579,3.8432,3.8041,3.7837,3.7564,3.7176,3.7006,3.6955,3.7151,3.7158,3.726,3.7407,3.7254,3.7218,3.7397,3.7629,3.7823,0.0,0.0,0.0,0.0,0.0,0.0,0.0,0.0,0.0,0.0,0.0,0.0,0.0,0.0,0.0,0.0,0.0,0.0,0.0,0.0,0.0,0.0,4.2849,4.2874,4.2538,4.2481,4.2481,4.2481,4.2594,4.265,4.2481,4.265,4.2681,4.2681,4.2425,4.2369,4.2457,4.2256,4.211,4.211,4.211,4.211,4.211,4.211,4.1972,4.1802,4.1663,4.1492,4.1344,4.123,4.1172,4.1172,4.1172,4.1172,4.1172,4.1344,4.1287,0.0,0.0,0.0,0.0,0.0,4.1052,4.086,4.086,4.0715,4.0523,4.0523,4.0419,4.0321,4.0408,4.0208,3.9957,4.0227,4.0046,3.973,3.9677,3.9663,3.9594,3.9258,3.9335,3.9413,3.9206,3.9154,3.9154,3.9154,3.9154,0.0,3.9154,3.8945,3.8788,3.8788,3.8788,3.8715,3.8469,3.8445,3.8248,3.7708,3.7557,3.7309,3.6991,3.6772,0.0,0.0,0.0,3.6947,3.7168,3.7068,0.0,0.0,0.0,3.7475,3.7688,0.0,0.0,0.0,3.8307,3.8473,0.0,0.0,0.0,0.0,0.0,0.0,0.0,0.0,0.0,0.0,0.0,0.0,0.0,0.0,0.0,0.0,4.2986,4.2986,4.2986,4.2986,4.2986,4.2986,4.2986,4.2986,4.2986,4.2986,4.2986,4.2986,4.2737,4.2569,4.2569,4.2312,0.0,0.0,0.0,4.2224,4.2224,4.2224,4.2118,4.2069,4.1761,4.1542,4.1412,4.1208,4.1118,4.1061,4.1061,4.1061,4.1118,4.1322,4.1322,4.1118,4.1133,4.1052,4.1004,4.1004,4.0715,4.0306,4.0306,0.0,0.0,3.9664,3.9616,3.9678,3.9928,3.9648,3.9394,3.9873,3.9683,3.9413,3.9645,3.9697,3.9697,3.9697,3.9697,3.9697,3.9697,3.9697,3.9697,3.9697,3.9697,3.9697,3.9697,3.9283,3.8868,3.8819,3.8795,3.8598,3.8056,3.7982,3.7785,3.7244,0.0,0.0,3.7046,3.6604,3.653,3.7022,3.6653,3.6604,3.7022,3.7046,3.7071,3.7095,3.7145,3.7169,3.7168,3.7268,3.7268,3.7243,3.8226,3.8669,0.0,0.0,0.0,0.0,0.0,0.0,0.0,0.0,0.0,0.0,0.0,0.0,0.0,0.0,0.0,4.2986,4.2986,4.2986,4.2986,4.2986,4.2986,4.2986,4.2986,4.2986,4.2986,4.2986,4.2986,4.2986,4.293,4.293,4.293,4.2874,4.2818,4.2818,4.2818,4.2818,4.2818,4.2818,4.2482,4.1756,4.17,0.0,4.0317,4.0483,4.0428,4.0207,4.0207,4.0373,4.0538,4.0373,4.0428,4.0532,4.0548,4.0282,3.9922,3.9922,3.985,3.9753,3.9753,3.9705,3.9664,3.9861,3.9788,3.9638,3.996,3.9854,0.0,3.9744,3.9721,3.9645,3.9697,3.9697,3.9697,3.9697,3.9697,3.9697,3.9697,3.9697,3.9697,3.9697,3.9697,3.9697,3.9697,3.9594,3.9392,3.8942,3.8867,3.8667,3.8091,3.8016,3.7816,3.7266,3.6996,3.6676,3.6279,3.6131,3.6131,3.623,3.6345,3.6345,3.623,3.623,3.6331,3.6579,3.6751,3.6974,3.7168,3.7618,3.7717,3.7543,3.7766,3.7689,0.0,0.0,0.0,0.0,0.0,0.0,0.0,0.0,0.0,0.0,0.0,4.2986,4.2986,0.0,4.2986,4.2986,4.2986,4.2986,4.2986,4.2986,4.2986,4.2986,4.2986,4.2986,4.2986,4.2986,4.2986,4.2986,4.2986,4.2986,4.2986,4.2766,4.2615,4.2615,4.2308,4.2158,4.2158,4.2158,4.1898,4.1513,4.135,4.0983,4.0439,4.0409,4.033,4.0166,4.0166,4.0275,4.0409,4.0245,4.0237,4.0232,4.0092,3.9971,3.9971,3.9971,3.9746,3.9419,3.9582,3.9358,3.9062,3.9331,3.9296,3.9234,3.9628,3.9586,3.9542,3.9645,3.9697,3.9697,3.9697,3.9697,3.9697,3.9697,3.9697,3.9697,3.9697,3.9697,3.9697,3.9697,3.9471,3.927,3.927,3.9044,3.8843,3.8868,3.8617,3.8241,3.7663,3.7588,3.7387,3.6883,3.6664,3.6468,3.6218,3.6193,3.6193,3.6193,3.631,3.631,3.6193,3.6193,3.627,3.64,3.652,3.667,3.6798,3.7089,3.7138,3.7017,3.7475,3.7947,0.0,0.0,0.0,0.0,0.0,0.0,0.0,4.2986,4.2986,4.2986,4.2986,4.2986,4.2986,4.2986,4.2986,4.2986,4.2986,4.2986,4.2986,4.2986,4.2986,4.2986,4.2986,4.2986,4.2986,4.2986,4.2986,4.2986,4.2986,4.2936,4.2866,4.2439,4.2162,4.2062,4.1555,4.1275,4.1275,4.1275,4.1225,4.1125,4.091,4.0728,4.0575,4.036,4.0252,4.0198,4.0252,4.0252,4.0198,4.0252,4.0166,3.9982,3.9717,3.9857,4.0252,4.0144,3.9687,3.916,3.9373,3.9051,3.8526,3.8788,3.8893,3.8945,3.9258,3.9362,3.9413,3.9645,3.9697,3.9697,3.9697,3.9697,3.9697,3.9697,3.9697,3.9697,3.9697,3.9697,3.9672,3.9546,3.917,3.8894,3.8718,3.8241,3.8015,3.8517,3.814,3.7638,3.7086,3.7036,3.6908,3.6455,3.6405,3.6405,3.6405,3.6405,3.6405,3.6405,3.6405,3.6405,3.6405,3.6405,3.6405,3.6405,3.6405,3.6499,3.6687,3.6499,3.6593,3.6943,3.7704,3.8431,4.194,4.2481,4.2986,4.2986,4.2986,4.2986,0.0,4.2986,4.2986,4.2986,4.2986,4.2986,4.2986,4.2986,4.2986,4.2986,4.2986,4.2986,4.2986,4.2986,4.2986,4.2986,4.2986,4.2986,4.2986,4.2986,4.2986,4.2986,4.2986,4.276,4.2313,4.2238,4.1932,4.1401,4.1326,4.1275,4.1275,4.1275,4.105,4.0601,4.0548,4.0192,3.9509,3.9665,3.9665,3.9457,3.9665,3.9665,3.9432,3.9665,3.9796,3.9721,3.9669,3.9719,3.9717,3.9195,3.8936,3.8834,3.8887,3.8838,3.8788,3.9154,3.9258,3.931,3.9594,3.9645,3.9645,3.9697,3.9697,3.9697,3.9697,3.9697,3.9697,3.9697,3.9697,3.9697,3.9697,3.9697,3.9546,3.9069,3.8969,3.8718,3.8191,3.7638,3.7287,3.7362,3.7312,3.7086,3.6581,3.6505,3.648,3.6405,3.6405,3.6405,3.6405,3.6405,3.6405,3.6405,3.6405,3.6405,3.6405,3.6405,3.6405,3.6405,3.6405,3.6803,3.7638,3.6803,3.7243,3.8899,3.8988,3.8666,4.1997,4.2538,4.2986,4.2737,4.2874,4.2986,4.2986,4.2986,4.2986,4.2986,4.2986,4.2986,4.2986,4.2986,4.2986,4.2986,4.2986,4.2986,4.2986,4.2986,4.2986,4.2986,4.2986,4.2986,4.2986,4.2986,4.2986,4.2986,4.2986,4.2886,4.2715,4.2389,4.1907,4.13,4.0974,4.0701,4.0375,4.0375,4.0275,4.0049,4.0049,3.9871,3.9542,3.9645,3.9645,3.9542,3.9645,3.9645,3.9542,3.9645,3.9697,3.9697,3.9697,3.9697,3.9697,3.9438,3.9206,3.9102,3.9258,3.9206,3.9154,3.9438,3.9542,3.9542,3.9645,3.9697,3.9697,3.9697,3.9697,3.9697,3.9697,3.9697,3.9697,3.9697,3.9697,3.9697,3.9697,3.9446,3.9145,3.8969,3.8341,3.7814,3.7563,3.7061,3.6757,3.6757,3.6757,3.6681,3.643,3.6405,3.6405,3.6405,3.6896,3.6989,3.6452,3.6896,3.6989,3.6452,3.6405,3.6405,3.6405,3.6896,3.7222,3.7222,3.775,3.8225,3.8585,3.8225,3.845,3.921,3.9782,3.9826,4.2029,4.2481,4.2818,4.2569,4.2737,4.2986,4.2986,4.2986,4.2986,4.2986,4.2986,4.2986,4.2986,4.2986,4.2986,4.2986,4.2986,4.2986,4.2986,4.2986,4.2986,4.2986,4.2986,4.2986,4.2986,4.2986,4.2986,4.2986,4.2986,4.2911,4.2816,4.2414,4.1907,4.13,4.0802,4.0325,3.9923,3.9772,3.9697,3.9697,3.9697,3.9697,3.9697,3.9697,3.9697,3.9697,3.9697,3.9697,3.9697,3.9697,3.9697,3.9697,3.9697,3.9697,3.9697,3.9697,3.9594,3.9438,3.9645,3.9594,3.9413,3.9645,3.9697,3.9697,3.9697,3.9697,3.9697,3.9697,3.9697,3.9697,3.9697,3.9697,3.9697,3.9697,3.9697,3.9697,3.9697,3.9371,3.9095,3.8944,3.809,3.7362,3.7211,3.6782,3.6405,3.6405,3.6405,3.6405,3.6405,3.6405,3.6405,3.6405,3.6989,3.7222,3.6803,3.7407,3.75,3.6803,3.6781,3.6781,3.6781,3.7453,3.7933,3.8206,3.8854,3.9343,3.9607,3.9343,3.9475,4.0,4.0432,4.0731,4.2029,4.2312,4.2513,4.2513,4.2737,4.2986,4.2986,4.2986,4.2986,4.2986,4.2986,4.2986,4.2986,4.2986,4.2986,4.2986,4.2986,4.2986,4.2986,4.2986,4.2986,4.2986,4.2986,4.2986,4.2986,4.2986,4.2986,4.2986,4.2986,4.2735,4.2263,4.2213,4.1907,4.13,4.0802,4.0501,4.0501,3.9948,3.9697,3.9697,3.9697,3.9697,3.9697,3.9697,3.9697,3.9697,3.9697,3.9697,3.9697,3.9697,3.9697,3.9697,3.9697,3.9697,3.9697,3.9697,3.9697,3.9697,3.9697,3.9697,3.9697,3.9697,3.9697,3.9697,3.9697,3.9697,3.9697,3.9697,3.9697,3.9697,3.9697,3.9697,3.9697,3.9697,3.9697,3.9697,3.9697,3.9672,3.9521,3.8969,3.8391,3.7814,3.7287,3.6782,3.6405,3.6405,3.6405,3.6405,3.6405,3.6405,3.6405,3.6405,3.6405,3.6828,3.7684,3.7776,3.7821,3.7776,3.7776,3.7776,3.7776,3.775,3.8251,3.9166,3.921,3.9651,4.056,3.9651,4.0158,4.2009,4.1015,4.1099,4.2054,4.2312,4.2513,4.2513,4.2737,4.2986,4.2986,4.2986,4.2986,4.2986,4.2986,4.2986,4.2986,4.2986,4.2986,4.2986,4.2986,4.2986,4.2986,4.2986,4.2986,4.2986,4.2986,4.2986,4.2986,4.2986,4.2986,4.2986,4.2986,4.2886,4.271,4.2766,4.2459,4.1907,4.1354,4.0824,4.0526,3.9973,3.9697,3.9697,3.9697,3.9697,3.9697,3.9697,3.9697,3.9697,3.9697,3.9697,3.9697,3.9697,3.9697,3.9697,3.9697,3.9697,3.9697,3.9697,3.9697,3.9697,3.9697,3.9697,3.9697,3.9697,3.9697,3.9697,3.9697,3.9697,3.9697,3.9697,3.9697,3.9697,3.9697,3.9697,3.9697,3.9697,3.9697,3.9697,3.9697,3.9396,3.9094,3.8969,3.8391,3.7939,3.7764,3.7287,3.7023,3.7273,3.7315,3.7315,3.7315,3.7887,3.827,3.827,3.8854,3.905,3.8765,3.9299,3.9387,3.8765,3.872,3.872,3.872,3.9343,3.9826,4.013,4.076,4.1283,4.1577,4.1283,4.1451,4.2092,4.1773,4.1773,4.2054,4.2199,4.2369,4.2457,4.2737,4.2986,4.2986,4.2986,4.2986,4.2986,4.2986,4.2986,4.2986,4.2986,4.2986,4.2986,4.2986,4.2986,4.2986,4.2986,4.2986,4.2986,4.2986,4.2986,4.2986,4.2986,4.2986,4.2986,4.2986,4.2986,4.2986,4.2986,4.2811,4.2514,4.1731,4.1125,4.0802,4.0074,3.9697,3.9697,3.9697,3.9697,3.9697,3.9697,3.9697,3.9697,3.9697,3.9697,3.9697,3.9697,3.9697,3.9697,3.9697,3.9697,3.9697,3.9697,3.9697,3.9697,3.9697,3.9697,3.9697,3.9697,3.9697,3.9697,3.9697,3.9697,3.9697,3.9697,3.9697,3.9697,3.9697,3.9697,3.9697,3.9697,3.9697,3.9697,3.9697,3.9421,3.917,3.917,3.8718,3.8316,3.8316,3.7688,3.7321,3.7762,3.8069,3.8296,3.8296,3.8541,3.881,3.9166,3.9738,4.0,3.9738,4.026,4.0346,3.9738,3.9694,3.9694,3.9694,4.0303,4.0774,4.1099,4.1773,4.2092,4.2092,4.2092,4.2092,4.2092,4.2092,4.2092,4.194,4.211,4.2167,4.2481,4.2737,4.2986,4.2986,4.2986,4.2986,4.2986,4.2986,4.2986,4.2986,4.2986,4.2986,4.2986,4.2986,4.2986,4.2986,4.2986,4.2986,4.2986,4.2986,4.2986,4.2986,4.2986,4.2986,4.2986,4.2986,4.2986,4.2986,4.2986,4.2986,4.2986,4.1932,4.13,4.1275,4.0249,3.9697,3.9697,3.9697,3.9697,3.9697,3.9697,3.9697,3.9697,3.9697,3.9697,3.9697,3.9697,3.9697,3.9697,3.9697,3.9697,3.9697,3.9697,3.9697,3.9697,3.9697,3.9697,3.9697,3.9697,3.9697,3.9697,3.9697,3.9697,3.9697,3.9697,3.9697,3.9697,3.9697,3.9697,3.9697,3.9697,3.9697,3.9697,3.9697,3.9697,3.9697,3.9697,3.927,3.8944,3.8868,3.8014,3.7442,3.7834,3.8657,3.921,3.9299,3.8567,3.8387,3.9254,3.9343,3.9738,4.0603,4.0689,4.0689,4.0689,4.0689,4.0689,4.0689,4.0689,4.1099,4.2092,4.2092,4.2092,4.2092,4.2092,4.2092,4.2092,4.2092,4.2092,4.1972,4.211,4.2224,4.2762,4.293,4.2986,4.2986,4.2986,4.2986,4.2986,4.2986,4.2986,4.2986,4.2986,4.2986,4.2986,4.2986,4.2986,4.2986,4.2986,4.2986,4.2986,4.2986,4.2986,4.2986,4.2986,4.2986,4.2986,4.2986,4.2986,4.2986,4.2986,4.2986,4.2986,4.2308,4.1756,4.1275,4.0249,3.9697,3.9697,3.9697,3.9697,3.9697,3.9697,3.9697,3.9697,3.9697,3.9697,3.9697,3.9697,3.9697,3.9697,3.9697,3.9697,3.9697,3.9697,3.9697,3.9697,3.9697,3.9697,3.9697,3.9697,3.9697,3.9697,3.9697,3.9697,3.9697,3.9697,3.9697,3.9697,3.9697,3.9697,3.9697,3.9697,3.9697,3.9697,3.9697,3.9697,3.9697,3.9697,3.9572,3.9346,3.8994,3.8883,3.8981,3.9379,3.9303,3.9475,4.0173,4.0674,4.1114,4.1325,4.1367,4.1451,4.1731,4.1731,4.1731,4.1731,4.1731,4.1731,4.1731,4.1731,4.1814,4.2092,4.2092,4.2092,4.2092,4.2092,4.2092,4.2092,4.2092,4.2092,4.1997,4.211,4.2256,4.2874,4.2986,4.2986,4.2986,4.2986,4.2986,4.2986,4.2986,4.2986,4.2986,4.2986,4.2986,4.2986,4.2986,4.2986,4.2986,4.2986,4.2986,4.2986,4.2986,4.2986,4.2986,4.2986,4.2986,4.2986,4.2986,4.2986,4.2986,4.2986,4.2986,4.2986,4.2489,4.1781,4.0924,4.0124,3.9697,3.9697,3.9697,3.9697,3.9697,3.9697,3.9697,3.9697,3.9697,3.9697,3.9697,3.9697,3.9697,3.9697,3.9697,3.9697,3.9697,3.9697,3.9697,3.9697,3.9697,3.9697,3.9697,3.9697,3.9697,3.9697,3.9697,3.9697,3.9697,3.9697,3.9697,3.9697,3.9697,3.9697,3.9697,3.9697,3.9697,3.9697,3.9697,3.9697,3.9697,3.9697,3.9697,3.9521,3.8969,3.9182,3.9523,3.9959,3.9902,4.0173,4.1128,4.1339,4.1619,4.2051,4.2092,4.2092,4.2092,4.2092,4.2092,4.2092,4.2092,4.2092,4.2092,4.2092,4.2092,4.2092,4.2092,4.2092,4.2092,4.2092,4.2092,4.2092,4.2092,4.2092,4.194,4.211,4.2256,4.2874,4.2986,4.2986,4.2986,4.2986,4.2986,4.2986,4.2986,4.2986,4.2986,4.2986,4.2986,4.2986,4.2986,4.2986,4.2986,4.2986,4.2986,4.2986,4.2986,4.2986,4.2986,4.2986,4.2986,4.2986,4.2986,4.2986,4.2986,4.2986,4.2986,4.2986,4.2414,4.158,4.0626,3.9998,3.9697,3.9697,3.9697,3.9697,3.9697,3.9697,3.9697,3.9697,3.9697,3.9697,3.9697,3.9697,3.9697,3.9697,3.9697,3.9697,3.9697,3.9697,3.9697,3.9697,3.9697,3.9697,3.9697,3.9697,3.9697,3.9697,3.9697,3.9697,3.9697,3.9697,3.9697,3.9697,3.9697,3.9697,3.9697,3.9697,3.9697,3.9697,3.9697,3.9697,3.9697,3.9697,3.9697,3.9521,3.8969,3.9208,3.9549,3.9959,4.0316,4.0972,4.1968,4.1339,4.1099,4.2009,4.2092,4.2092,4.2092,4.2092,4.2092,4.2092,4.2092,4.2092,4.2092,4.2092,4.2092,4.2092,4.2092,4.2092,4.2092,4.2092,4.2092,4.2092,4.2092,4.2092,4.194,4.211,4.2256,4.2874,4.2986,4.2986,4.2986,4.2986,4.2986,4.2986,4.2986,4.2986,4.2986,4.2986,4.2986,4.2986,4.2986,4.2986,4.2986,4.2986,4.2986,4.2986,4.2986,4.2986,4.2986,4.2986,4.2986,4.2986,4.2986,4.2986,4.2986,4.2986,4.2986,4.2986,4.2007,4.1326,4.115,4.0199,3.9697,3.9697,3.9697,3.9697,3.9697,3.9697,3.9697,3.9697,3.9697,3.9697,3.9697,3.9697,3.9697,3.9697,3.9697,3.9697,3.9697,3.9697,3.9697,3.9697,3.9697,3.9697,3.9697,3.9697,3.9697,3.9697,3.9697,3.9697,3.9697,3.9697,3.9697,3.9697,3.9697,3.9697,3.9697,3.9697,3.9697,3.9697,3.9697,3.9697,3.9697,3.9697,3.9697,3.9521,3.8969,3.9182,3.9523,3.9959,4.0316,4.0972,4.1968,4.1968,4.1897,4.2092,4.2092,4.2092,4.2092,4.2092,4.2092,4.2092,4.2092,4.2092,4.2092,4.2092,4.2092,4.2092,4.2092,4.2092,4.2092,4.2092,4.2092,4.2092,4.2092,4.2092,4.194,4.211,4.2256,4.2874,4.2986,4.2986,4.2986,4.2986,4.2986,4.2986,4.2986,4.2986,4.2986,4.2986,4.2986,4.2986,4.2986,4.2986,4.2986,4.2986,4.2986,4.2986,4.2986,4.2986,4.2986,4.2986,4.2986,4.2986,4.2986,4.2986,4.2986,4.2986,4.2836,4.2615,4.1756,4.115,4.0902,4.0099,3.9697,3.9697,3.9697,3.9697,3.9697,3.9697,3.9697,3.9697,3.9697,3.9697,3.9697,3.9697,3.9697,3.9697,3.9697,3.9697,3.9697,3.9697,3.9697,3.9697,3.9697,3.9697,3.9697,3.9697,3.9697,3.9697,3.9697,3.9697,3.9697,3.9697,3.9697,3.9697,3.9697,3.9697,3.9697,3.9697,3.9697,3.9697,3.9697,3.9697,3.9697,3.9697,3.9471,3.917,3.8919,3.8951,3.9228,3.9905,4.0316,4.0972,4.1968,4.2092,4.2092,4.2092,4.2092,4.2092,4.2092,4.2092,4.2092,4.2092,4.2092,4.2092,4.2092,4.2092,4.2092,4.2092,4.2092,4.2092,4.2092,4.2092,4.2092,4.2092,4.2092,4.2092,4.194,4.2167,4.2312,4.2874,4.2986,4.2986,4.2986,4.2986,4.2986,4.2986,4.2986,4.2986,4.2986,4.2986,4.2986,4.2986,4.2986,4.2986,4.2986,4.2986,4.2986,4.2986,4.2986,4.2986,4.2986,4.2986,4.2986,4.2986,4.2986,4.2986,4.2986,4.2986,4.2766,4.2238,4.163,4.1025,4.0526,3.9973,3.9697,3.9697,3.9697,3.9697,3.9697,3.9697,3.9697,3.9697,3.9697,3.9697,3.9697,3.9697,3.9697,3.9697,3.9697,3.9697,3.9697,3.9697,3.9697,3.9697,3.9697,3.9697,3.9697,3.9697,3.9697,3.9697,3.9697,3.9697,3.9697,3.9697,3.9697,3.9697,3.9697,3.9697,3.9697,3.9697,3.9697,3.9697,3.9697,3.9697,3.9672,3.9546,3.917,3.8844,3.8592,3.8373,3.8652,3.9644,4.0129,4.076,4.1968,4.2092,4.2092,4.2092,4.2092,4.2092,4.2092,4.2092,4.2092,4.2092,4.2092,4.2092,4.2092,4.2092,4.2092,4.2092,4.2092,4.2092,4.2092,4.2092,4.2092,4.2092,4.2092,4.2092,4.1972,4.2256,4.2538,4.293,4.2986,4.2986,4.2986,4.2986,4.2986,4.2986,4.2986,4.2986,4.2986,4.2986,4.2986,4.2986,4.2986,4.2986,4.2986,4.2986,4.2986,4.2986,4.2986,4.2986,4.2986,4.2986,4.2986,4.2986,4.2986,4.2986,4.2986,4.2986,4.2766,4.2238,4.163,4.1025,4.0526,3.9973,3.9697,3.9697,3.9697,3.9697,3.9697,3.9697,3.9697,3.9697,3.9697,3.9697,3.9697,3.9697,3.9697,3.9697,3.9697,3.9697,3.9697,3.9697,3.9697,3.9697,3.9697,3.9697,3.9697,3.9697,3.9697,3.9697,3.9697,3.9697,3.9697,3.9697,3.9697,3.9697,3.9697,3.9697,3.9697,3.9697,3.9697,3.9697,3.9697,3.9697,3.9546,3.9095,3.8944,3.8592,3.7513,3.7358,3.7796,3.9105,3.9326,4.0,4.1856,4.2092,4.2092,4.2092,4.2092,4.2092,4.2092,4.2092,4.2092,4.2092,4.2092,4.2092,4.2092,4.2092,4.2092,4.2092,4.2092,4.2092,4.2092,4.2092,4.2092,4.2092,4.2092,4.2092,4.2029,4.2312,4.2569,4.293,4.2986,4.2986,4.2986,4.2986,4.2986,4.2986,4.2986,4.2986,4.2986,4.2986,4.2986,4.2986,4.2986,4.2986,4.2986,4.2986,4.2986,4.2986,4.2986,4.2986,4.2986,4.2986,4.2986,4.2986,4.2986,4.2986,4.2986,4.2986,4.2585,4.1681,4.1401,4.0902,4.0023,3.9798,3.9697,3.9697,3.9697,3.9697,3.9697,3.9697,3.9697,3.9697,3.9697,3.9697,3.9697,3.9697,3.9697,3.9697,3.9697,3.9697,3.9697,3.9697,3.9697,3.9697,3.9697,3.9697,3.9697,3.9697,3.9697,3.9697,3.9697,3.9697,3.9697,3.9697,3.9697,3.9697,3.9697,3.9697,3.9697,3.9697,3.9697,3.9697,3.9697,3.9697,3.9521,3.8969,3.8592,3.809,3.7312,3.691,3.7292,3.897,3.921,3.9869,4.1856,4.2092,4.2092,4.2092,4.2092,4.2092,4.2092,4.2092,4.2092,4.2092,4.2092,4.2092,4.2092,4.2092,4.2092,4.2092,4.2092,4.2092,4.2092,4.2092,4.2092,4.2092,4.2092,4.2092,4.2054,4.2369,4.2681,4.293,4.2986,4.2986,4.2986,4.2986,4.2986,4.2986,4.2986,4.2986,4.2986,4.2986,4.2986,4.2986,4.2986,4.2986,4.2986,4.2986,4.2986,4.2986,4.2986,4.2986,4.2986,4.2986,4.2986,4.2986,4.2986,4.2986,4.2986,4.2986,4.2484,4.1326,4.1275,4.0749,3.9697,3.9697,3.9697,3.9697,3.9697,3.9697,3.9697,3.9697,3.9697,3.9697,3.9697,3.9697,0.0,3.9697,3.9697,3.9697,3.9697,3.9697,3.9697,3.9697,3.9697,3.9697,3.9697,3.9697,3.9697,3.9697,3.9697,3.9697,3.9697,3.9697,3.9697,3.9697,3.9697,3.9697,3.9697,3.9697,3.9697,3.9697,3.9697,3.9697,3.9697,3.9572,3.9295,3.8718,3.814,3.7588,3.7036,3.6656,3.6943,3.8541,3.881,3.9475,4.1409,4.166,4.1773,4.2051,4.2092,4.2092,4.2092,4.2092,4.2092,4.2092,4.2092,4.2092,4.2092,4.2092,4.2092,4.2092,4.2092,4.2092,4.2092,4.2092,4.2092,4.2092,4.2092,4.2092,4.211,4.2538,4.2986,4.2986,4.2986,4.2986,4.2986,4.2986,4.2986,4.2986,4.2986,4.2986,4.2986,4.2986,4.2986,4.2986,4.2986,4.2986,4.2986,4.2986,4.2986,4.2986,4.2986,4.2986,4.2986,4.2986,4.2986,4.2986,4.2986,4.2986,4.2986,4.2986,4.2484,4.1326,4.1275,4.0749,3.9697,3.9697,3.9697,3.9697,3.9697,3.9697,3.9697,3.9697,3.9697,3.9697,3.9697,3.9697,0.0,3.9697,3.9697,3.9697,3.9697,3.9697,3.9697,3.9697,3.9697,3.9697,3.9697,3.9697,3.9697,3.9697,3.9697,3.9697,3.9697,3.9697,3.9697,3.9697,3.9697,3.9697,3.9697,3.9697,3.9697,3.9697,3.9697,3.9697,3.9697,3.927,3.8718,3.814,3.7563,3.701,3.6505,3.6405,3.6734,3.7684,3.7821,3.8496,4.0389,4.0603,4.1015,4.2009,4.2092,4.2092,4.2092,4.2092,4.2092,4.2092,4.2092,4.2092,4.2092,4.2092,4.2092,4.2092,4.2092,4.2092,4.2092,4.2092,4.2092,4.2092,4.2092,4.2092,4.1931,4.2369,4.2681,4.293,4.2986,4.2986,4.2986,4.2986,4.2986,4.2986,4.2986,4.2986,4.2986,4.2986,4.2986,4.2986,4.2986,4.2986,4.2986,4.2986,4.2986,4.2986,4.2986,4.2986,4.2986,4.2986,4.2986,4.2986,4.2986,4.2986,4.2986,4.2986,4.2484,4.1326,4.1275,4.0749,3.9697,3.9697,3.9697,3.9697,3.9697,3.9697,3.9697,3.9697,3.9697,3.9697,3.9697,3.9697,3.9697,3.9697,3.9697,3.9697,3.9697,3.9697,3.9697,3.9697,3.9697,3.9697,3.9697,3.9697,3.9697,3.9697,3.9697,3.9697,3.9697,3.9697,3.9697,3.9697,3.9697,3.9697,3.9697,3.9697,3.9697,3.9697,3.9697,3.9597,3.922,3.9045,3.8592,3.7638,3.7312,3.701,3.6505,3.6405,3.6734,3.7684,3.7821,3.845,4.0389,4.0603,4.0972,4.2009,4.2092,4.2092,4.2092,4.2092,4.2092,4.2092,4.2092,4.2092,4.2092,4.2092,4.2092,4.2092,4.2092,4.2092,4.2092,4.2092,4.2092,4.2092,4.2092,4.2092,4.1538,4.222,4.2762,4.2986,4.2986,4.2986,4.2986,4.2986,4.2986,4.2986,4.2986,4.2986,4.2986,4.2986,4.2986,4.2986,4.2986,4.2986,4.2986,4.2986,4.2986,4.2986,4.2986,4.2986,4.2986,4.2986,4.2986,4.2986,4.2986,4.2986,4.2986,4.2841,4.2258,4.13,4.1275,4.0749,3.9697,3.9697,3.9697,3.9697,3.9697,3.9697,3.9697,3.9697,3.9697,3.9697,3.9697,3.9697,0.0,3.9697,3.9697,3.9697,3.9697,3.9697,3.9697,3.9697,3.9697,3.9697,3.9697,3.9697,3.9697,3.9697,3.9697,3.9697,3.9697,3.9697,3.9697,3.9697,3.9697,3.9697,3.9697,3.9697,3.9697,3.9697,3.9546,3.9295,3.8994,3.8592,3.8015,3.7312,3.701,3.6807,3.6455,3.6405,3.6593,3.7176,3.7592,3.8342,3.9913,4.0389,4.0972,4.2009,4.2092,4.2092,4.2092,4.2092,4.2092,4.2092,4.2092,4.2092,4.2092,4.2092,4.2092,4.2092,4.2092,4.2092,4.2092,4.2092,4.2092,4.2092,4.2092,4.2092,0.0,4.2041,4.2936,4.2961,4.2986,4.2986,4.2986,4.2986,0.0,4.2986,4.2986,4.2986,4.2986,4.2986,4.2986,4.2986,4.2986,4.2986,4.2986,4.2986,4.2986,4.2986,4.2986,4.2986,4.2986,4.2986,4.2986,4.2986,4.2986,4.2986,4.2986,4.2514,4.1907,4.13,4.125,4.0777,3.9697,3.9697,3.9697,3.9697,3.9697,3.9697,3.9697,3.9697,3.9697,3.9697,3.9697,3.9697,3.9697,3.9697,3.9697,3.9697,3.9697,3.9697,3.9697,3.9697,3.9697,3.9697,3.9697,3.9697,3.9697,3.9697,3.9697,3.9697,3.9697,3.9697,3.9697,3.9697,3.9697,3.9697,3.9697,3.9697,3.9697,3.9647,3.9245,3.8894,3.8818,3.7914,3.7186,3.7136,3.6757,3.6405,3.6405,3.6405,3.6405,3.6499,3.7222,3.816,3.9166,4.0087,4.0972,4.2009,4.2092,4.2092,4.2092,4.2092,4.2092,4.2092,4.2092,4.2092,4.2092,4.2092,4.2092,4.2092,4.2092,4.2092,4.2092,4.2092,4.2092,4.2092,4.2092,4.2092,3.9996,0.0,4.2157,4.2805,4.2986,4.2986,0.0,4.2986,4.2986,4.2986,4.2986,4.2986,4.2986,4.2986,4.2986,4.2986,4.2986,4.2986,4.2986,4.2986,4.2986,4.2986,4.2986,4.2986,4.2986,4.2986,4.2986,4.2986,4.2986,4.2986,4.2986,4.2514,4.1907,4.13,4.0874,4.0375,3.9697,3.9697,3.9697,3.9697,3.9697,3.9697,3.9697,3.9697,3.9697,3.9697,3.9697,3.9697,3.9697,3.9697,3.9697,3.9697,3.9697,3.9697,3.9697,3.9697,3.9697,3.9697,3.9697,3.9697,3.9697,3.9697,3.9697,3.9697,3.9697,3.9697,3.9697,3.9697,3.9697,3.9697,3.9697,3.9697,3.9597,3.917,3.902,3.8693,3.7764,3.7362,3.7061,3.6681,3.6505,3.6405,3.6405,3.6405,3.664,3.7361,3.7684,3.8432,4.0087,4.0475,4.0972,4.2009,4.2092,4.2092,4.2092,4.2092,4.2092,4.2092,4.2092,4.2092,4.2092,4.2092,4.2092,4.2092,4.2092,4.2092,4.2092,4.2092,4.2092,4.2092,4.2092,4.2092,3.9627,4.0616,4.1688,4.2459,4.2665,4.2715,4.2911,4.2986,4.2986,4.2986,4.2986,4.2986,4.2986,4.2986,4.2986,4.2986,4.2986,4.2986,4.2986,4.2986,4.2986,4.2986,4.2986,4.2986,4.2986,4.2986,4.2986,4.2986,4.2986,4.2986,4.2986,4.2208,4.1656,4.13,4.0551,3.9998,3.9697,3.9697,3.9697,3.9697,3.9697,3.9697,3.9697,3.9697,3.9697,3.9697,3.9697,3.9697,3.9697,3.9697,3.9697,3.9697,3.9697,3.9697,3.9697,3.9697,3.9697,3.9697,3.9697,3.9697,3.9697,3.9697,3.9697,3.9697,3.9697,3.9697,3.9697,3.9697,3.9697,3.9697,3.9697,3.9496,3.9245,3.8994,3.8517,3.7914,3.7312,3.6985,3.6757,3.6455,3.6405,3.6405,3.6405,3.6405,3.6593,3.7083,3.7546,3.8342,3.9782,4.0346,4.0972,4.2009,4.2092,4.2092,4.2092,4.2092,4.2092,4.2092,4.2092,4.2092,4.2092,4.2092,4.2092,4.2092,4.2092,4.2092,4.2092,4.2092,4.2092,4.2092,4.2092,4.2092,3.9431,4.0248,4.12,4.1982,4.2213,4.2363,4.2861,4.2986,4.2986,4.2986,4.2986,4.2986,4.2986,4.2986,4.2986,4.2986,4.2986,4.2986,4.2986,4.2986,4.2986,4.2986,4.2986,4.2986,4.2986,4.2986,4.2986,4.2986,4.2986,4.2986,4.2986,4.1932,4.1275,4.1275,4.0275,3.9697,3.9697,3.9697,3.9697,3.9697,3.9697,3.9697,3.9697,3.9697,3.9697,3.9697,3.9697,0.0,3.9697,3.9697,3.9697,3.9697,3.9697,3.9697,3.9697,3.9697,3.9697,3.9697,3.9697,3.9697,3.9697,3.9697,3.9697,3.9697,3.9697,3.9697,3.9697,3.9697,3.9697,3.9672,3.9597,3.922,3.8869,3.8693,3.7889,3.7161,3.7086,3.6732,3.6405,3.6405,3.6405,3.6405,3.6405,3.6405,3.6452,3.6593,3.7315,3.8206,3.9299,4.0,4.0845,4.1968,4.1968,4.1939,4.2092,4.2092,4.2092,4.2092,4.2092,4.2092,4.2092,4.2092,4.2092,4.2092,4.2092,4.2092,4.2092,4.2092,4.2092,4.2092,4.2092,4.2092,3.8834,3.93,4.0037,4.1781,4.2213,4.2363,4.2861,4.2986,4.2986,4.2986,4.2986,4.2986,4.2986,4.2986,4.2986,4.2986,4.2986,4.2986,4.2986,4.2986,4.2986,4.2986,4.2986,4.2986,4.2986,4.2986,4.2986,4.2986,4.2986,4.2986,4.2986,4.1932,4.1275,4.1275,4.0275,3.9697,3.9697,3.9697,3.9697,3.9697,3.9697,3.9697,3.9697,3.9697,3.9697,3.9697,0.0,3.9697,3.9697,3.9697,3.9697,3.9697,3.9697,3.9697,3.9697,3.9697,3.9697,3.9697,3.9697,3.9697,3.9697,3.9697,3.9697,3.9697,3.9697,3.9697,3.9697,3.9697,3.9697,3.9597,3.912,3.8944,3.8668,3.7663,3.7312,3.7109,3.6631,3.6455,3.6405,3.6405,3.6405,3.6405,3.6405,3.6405,3.6687,3.7453,3.773,3.8432,4.0173,3.9826,4.0087,4.1926,4.1339,4.1141,4.2051,4.2092,4.2092,4.2092,4.2092,4.2092,4.2092,4.2092,4.2092,4.2092,4.2092,4.2092,4.2092,4.2092,4.2092,4.2092,4.2092,4.2092,3.8736,3.905,3.9611,4.0949,4.1505,4.1856,4.2464,4.276,4.2986,4.2986,4.2986,4.2986,4.2986,4.2986,4.2986,4.2986,4.2986,4.2986,4.2986,4.2986,4.2986,4.2986,4.2986,4.2986,4.2986,4.2986,4.2986,4.2986,4.2986,4.2986,4.2986,4.1932,4.1275,4.1275,4.0275,3.9697,3.9697,3.9697,3.9697,3.9697,3.9697,3.9697,3.9697,3.9697,3.9697,3.9697,0.0,3.9697,3.9697,3.9697,3.9697,3.9697,3.9697,3.9697,3.9697,3.9697,3.9697,3.9697,3.9697,3.9697,3.9697,3.9697,3.9697,3.9697,3.9697,3.9697,3.9697,3.9697,3.9697,3.9572,3.907,3.8642,3.8191,3.7387,3.7008,3.6732,3.6455,3.6405,3.6405,3.6405,3.6405,3.6405,3.6405,3.6405,3.6546,3.6989,3.7036,3.7704,3.9579,3.9475,3.9738,4.1128,4.0887,4.0774,4.1254,4.1296,4.1535,4.2051,4.2092,4.2092,4.2092,4.2092,4.2092,4.2092,4.2092,4.2092,4.2092,4.2092,4.2092,4.2092,4.2092,4.2092,3.8736,3.8998,3.9357,4.012,4.0774,4.148,4.2087,4.264,4.2986,4.2986,4.2986,4.2986,4.2986,4.2986,4.2986,4.2986,4.2986,4.2986,4.2986,4.2986,4.2986,4.2986,4.2986,4.2986,4.2986,4.2986,4.2986,4.2986,4.2986,4.2986,4.2986,4.1932,4.1275,4.1275,4.0275,3.9697,3.9697,3.9697,3.9697,3.9697,3.9697,3.9697,3.9697,3.9697,3.9697,3.9697,3.9697,3.9697,3.9697,3.9697,3.9697,3.9697,3.9697,3.9697,3.9697,3.9697,3.9697,3.9697,3.9697,3.9697,3.9697,3.9697,3.9697,3.9697,3.9697,3.9697,3.9697,3.9697,3.9697,3.9546,3.8843,3.8341,3.7839,3.7161,3.6707,3.6405,3.6405,3.6405,3.6405,3.6405,3.6405,3.6405,3.6405,3.6405,3.6405,3.6405,3.6405,3.6989,3.8675,3.8854,3.9254,4.0173,4.0303,4.0389,4.0603,4.0817,4.1296,4.2051,4.2092,4.2092,4.2092,4.2092,4.2092,4.2092,4.2092,4.2092,4.2092,4.2092,4.2092,4.2092,4.2092,4.2092,3.8684,3.8841,3.8945,3.9592,4.0551,4.148,4.2087,4.264,4.2986,4.2986,4.2986,4.2986,4.2986,4.2986,4.2986,4.2986,4.2986,4.2986,4.2986,4.2986,4.2986,4.2986,4.2986,4.2986,4.2986,4.2986,4.2986,4.2986,4.2986,4.2986,4.2986,4.1932,4.1275,4.1275,4.0275,3.9697,3.9697,3.9697,3.9697,3.9697,3.9697,3.9697,3.9697,3.9697,3.9697,3.9697,3.9697,3.9697,3.9697,3.9697,3.9697,3.9697,3.9697,3.9697,3.9697,3.9697,3.9697,3.9697,3.9697,3.9697,3.9697,3.9697,3.9697,3.9697,3.9697,3.9697,3.9697,3.9697,3.9697,3.9446,3.8341,3.804,3.7739,3.6732,3.643,3.6405,3.6405,3.6405,3.6405,3.6405,3.6405,3.6405,3.6405,3.6405,3.6405,3.6405,3.6405,3.6756,3.775,3.7887,3.8251,3.921,3.9299,3.9651,4.0518,4.1451,4.2009,4.2092,4.2092,4.2092,4.2092,4.2092,4.2092,4.2092,4.2092,4.2092,4.2092,4.2092,4.2092,4.2092,4.2092,4.2092,3.8473,3.8684,3.8893,3.931,4.0367,4.1351,4.1605,4.2333,4.2986,4.2986,4.2986,4.2986,4.2986,4.2986,4.2986,4.2986,4.2986,4.2986,4.2986,4.2986,4.2986,4.2986,4.2986,4.2986,4.2986,4.2986,4.2986,4.2986,4.2986,4.2986,4.2986,4.1932,4.1275,4.1275,4.0275,3.9697,3.9697,3.9697,3.9697,3.9697,3.9697,3.9697,3.9697,3.9697,3.9697,3.9697,3.9697,3.9697,3.9697,3.9697,3.9697,3.9697,3.9697,3.9697,3.9697,3.9697,3.9697,3.9697,3.9697,3.9697,3.9697,3.9697,3.9697,3.9697,3.9697,3.9697,3.9697,3.9697,3.9697,3.9446,3.8291,3.8015,3.7739,3.6681,3.6405,3.6405,3.6405,3.6405,3.6405,3.6405,3.6405,3.6405,3.6405,3.6405,3.6405,3.6405,3.6405,3.6734,3.7684,3.7821,3.7933,3.8296,3.8854,3.9343,3.9694,4.1198,4.2092,4.2092,4.2092,4.2092,4.2092,4.2092,4.2092,4.2092,4.2092,4.2092,4.2092,4.2092,4.2092,4.2092,4.2092,4.2092,3.8421,3.8806,3.9164,3.9583,4.0617,4.1605,4.1605,4.2308,4.2986,4.2986,4.2986,4.2986,4.2986,4.2986,4.2986,4.2986,4.2986,4.2986,4.2986,4.2986,4.2986,4.2986,4.2986,4.2986,4.2986,4.2986,4.2986,4.2986,4.2986,4.2986,4.2986,4.2108,4.153,4.13,4.0425,3.9873,3.9697,3.9697,3.9697,3.9697,3.9697,3.9697,3.9697,3.9697,3.9697,3.9697,3.9697,3.9697,3.9697,3.9697,3.9697,3.9697,3.9697,3.9697,3.9697,3.9697,3.9697,3.9697,3.9697,3.9697,3.9697,3.9697,3.9697,3.9697,3.9697,3.9697,3.9697,3.9697,3.9697,3.9471,3.8517,3.814,3.7739,3.6681,3.6405,3.6455,3.6631,3.6681,3.6732,3.6883,3.6933,3.6933,3.6933,3.6782,3.6681,3.6681,3.6531,3.664,3.7268,3.7638,3.7821,3.7821,3.8387,3.8765,3.8765,4.0503,4.1619,4.1619,4.1897,4.2092,4.2092,4.2092,4.2092,4.2092,4.2092,4.2092,4.2092,4.2092,4.2092,4.2092,4.2092,4.2092,3.8656,3.9259,3.9861,4.0367,4.1354,4.2213,4.2213,4.264,4.2986,4.2986,4.2986,4.2986,4.2986,4.2986,4.2986,4.2986,4.2986,4.2986,4.2986,4.2986,4.2986,4.2986,4.2986,4.2986,4.2986,4.2986,4.2986,4.2986,4.2986,4.2986,4.2986,4.2514,4.1907,4.13,4.0802,4.0249,3.9697,3.9697,3.9697,3.9697,3.9697,3.9697,3.9697,3.9697,3.9697,3.9697,3.9697,3.9697,3.9697,3.9697,3.9697,3.9697,3.9697,3.9697,3.9697,3.9697,3.9697,3.9697,3.9697,3.9697,3.9697,3.9697,3.9697,3.9697,3.9697,3.9697,3.9697,3.9697,3.9697,3.9572,3.907,3.8442,3.7739,3.6681,3.643,3.6581,3.7086,3.7186,3.7362,3.7889,3.8015,3.8015,3.8015,3.7563,3.7186,3.7186,3.6757,3.6405,3.6405,3.7222,3.7821,3.7821,3.7795,3.7821,3.7821,3.9519,4.0603,4.0603,4.1535,4.2092,4.2092,4.2092,4.2092,4.2092,4.2092,4.2092,4.2092,4.2092,4.2092,4.2092,4.2092,4.2092,3.9594,4.0094,4.0595,4.0757,4.1522,4.2213,4.2213,4.264,4.2986,4.2986,4.2986,4.2986,4.2986,4.2986,4.2986,4.2986,4.2986,4.2986,4.2986,4.2986,4.2986,4.2986,4.2986,4.2986,4.2986,4.2986,4.2986,4.2986,4.2986,4.2986,4.2986,4.2514,4.2137,4.1907,4.1003,4.0425,4.0275,3.9898,3.9697,3.9697,3.9697,3.9697,3.9697,3.9697,3.9697,3.9697,3.9697,3.9697,3.9697,3.9697,3.9697,3.9697,3.9697,3.9697,3.9697,3.9697,3.9697,3.9697,3.9697,3.9697,3.9697,3.9697,3.9697,3.9697,3.9697,3.9697,3.9697,3.9697,3.9697,3.9572,3.907,3.8793,3.8417,3.7688,3.7513,3.7563,3.7739,3.7764,3.7814,3.7965,3.8015,3.8015,3.8015,3.7864,3.7638,3.7236,3.7036,3.6857,3.6455,3.664,3.6803,3.6803,3.7407,3.8069,3.872,3.9299,3.9913,4.056,4.0887,4.1339,4.2051,4.2092,4.2092,4.2092,4.2092,4.2092,4.2092,4.2092,4.2092,4.2092,4.2092,4.2092,4.019,4.072,4.1275,4.1384,4.1948,4.2539,4.2539,4.2791,4.2986,4.2986,4.2986,4.2986,4.2986,4.2986,4.2986,4.2986,4.2986,4.2986,4.2986,4.2986,4.2986,4.2986,4.2986,4.2986,4.2986,4.2986,4.2986,4.2986,4.2986,4.2986,4.2986,4.266,4.2439,4.2213,4.1304,4.0752,4.0526,3.9973,3.9697,3.9697,3.9697,3.9697,3.9697,3.9697,3.9697,3.9697,3.9697,3.9697,3.9697,3.9697,3.9697,3.9697,3.9697,3.9697,3.9697,3.9697,3.9697,3.9697,3.9697,3.9697,3.9697,3.9697,3.9697,3.9697,3.9697,3.9697,3.9697,3.9697,3.9697,3.9622,3.927,3.9195,3.8994,3.8191,3.8015,3.8065,3.8291,3.8341,3.8417,3.8642,3.8668,3.8668,3.8668,3.8492,3.8241,3.7914,3.7462,3.6985,3.648,3.6405,3.6405,3.6405,3.6896,3.7474,3.8043,3.8405,3.8899,3.9475,3.9869,4.0303,4.0916,4.1689,4.2092,4.2092,4.2092,4.2092,4.2092,4.2092,4.2092,4.2092,4.2092,4.2092,4.0581,4.12,4.1903,4.2178,4.2665,4.2986,4.2986,4.2986,4.2986,4.2986,4.2986,4.2986,4.2986,4.2986,4.2986,4.2986,4.2986,4.2986,4.2986,4.2986,4.2986,4.2986,4.2986,4.2986,4.2986,4.2986,4.2986,4.2986,4.2986,4.2986,4.2986,4.2986,4.2816,4.2313,4.1706,4.11,4.0601,4.0049,3.9747,3.9697,3.9697,3.9697,3.9697,3.9697,3.9697,3.9697,3.9697,3.9697,3.9697,3.9697,3.9697,3.9697,3.9697,3.9697,3.9697,3.9697,3.9697,3.9697,3.9697,3.9697,3.9697,3.9697,3.9697,3.9697,3.9697,3.9697,3.9697,3.9697,3.9697,3.9697,3.9697,3.9697,3.9446,3.8391,3.8165,3.8316,3.8818,3.8994,3.9094,3.9597,3.9697,3.9697,3.9697,3.927,3.8969,3.8919,3.7914,3.701,3.6556,3.643,3.6405,3.6405,3.6405,3.6452,3.6499,3.7222,3.773,3.7821,3.8639,3.9158,3.9158,4.0859,4.1885,4.1968,4.2026,4.2096,4.2179,4.2237,4.2266,4.2266,4.2266,4.2266,4.1766,4.2233,4.2755,4.2811,4.2886,4.2986,4.2986,4.2986,4.2986,4.2986,4.2986,4.2986,4.2986,4.2986,4.2986,4.2986,4.2986,4.2986,4.2986,4.2986,4.2986,4.2986,4.2986,4.2986,4.2986,4.2986,4.2986,4.2986,4.2986,4.2986,4.2986,4.2986,4.2911,4.2811,4.2258,4.1706,4.1125,4.0626,4.0124,3.9697,3.9697,3.9697,3.9697,3.9697,3.9697,3.9697,3.9697,3.9697,3.9697,3.9697,3.9697,3.9697,3.9697,3.9697,3.9697,3.9697,3.9697,3.9697,3.9697,3.9697,3.9697,3.9697,3.9697,3.9697,3.9697,3.9697,3.9697,3.9697,3.9697,3.9697,3.9697,3.9697,3.9647,3.9396,3.932,3.9371,3.9496,3.9521,3.9546,3.9672,3.9697,3.9697,3.9697,3.9597,3.9371,3.8944,3.7914,3.7136,3.701,3.6681,3.6405,3.6405,3.6405,3.6687,3.7453,3.6989,3.6989,3.775,3.8352,3.8754,3.8754,3.941,4.0173,4.093,4.1439,4.2081,4.2789,4.3311,4.3573,4.3573,4.3573,4.3573,4.211,4.2538,4.2986,4.2986,4.2986,4.2986,4.2986,4.2986,4.2986,4.2986,4.2816,4.264,4.264,4.264,4.2715,4.2936,4.2986,4.2986,4.2986,4.2986,4.2986,4.2986,4.2986,4.2986,4.2986,4.2986,4.2986,4.2986,4.2986,4.2986,4.2986,4.2986,4.2986,4.2986,4.2489,4.1882,4.13,4.0802,4.0249,3.9697,3.9697,3.9697,3.9697,3.9697,3.9697,3.9697,3.9697,3.9697,3.9697,3.9697,3.9697,3.9697,3.9697,3.9697,3.9697,3.9697,3.9697,3.9697,3.9697,3.9697,3.9697,3.9697,3.9697,3.9697,3.9697,3.9697,3.9697,3.9697,3.9697,3.9697,3.9697,3.9697,3.9697,3.9697,3.9697,3.9697,3.9697,3.9697,3.9697,3.9697,3.9697,3.9697,3.9697,3.9697,3.9496,3.8994,3.814,3.7487,3.7211,3.6757,3.6405,3.6405,3.6405,3.6593,3.7083,3.6687,3.6694,3.7467,3.7775,3.8269,3.905,3.8762,3.9505,4.1415,4.1796,4.2448,4.3456,4.3834,4.3979,4.3979,4.3979,4.3979,4.2167,4.2594,4.2986,4.2986,4.2986,4.2986,4.2986,4.2986,4.2961,4.2861,4.2539,4.2213,4.2213,4.2137,4.2238,4.2735,4.2836,4.2861,4.2961,4.2986,4.2986,4.2986,4.2986,4.2986,4.2986,4.2986,4.2986,4.2986,4.2986,4.2986,4.2986,4.2986,4.2986,4.2986,4.259,4.2032,4.148,4.0927,4.0375,3.9848,3.9747,3.9697,3.9697,3.9697,3.9697,3.9697,3.9697,3.9697,3.9697,3.9697,3.9697,3.9697,3.9697,3.9697,3.9697,3.9697,3.98,3.9929,3.9749,3.98,3.9929,3.9749,3.9697,3.9697,3.9697,3.9697,3.9697,3.9697,3.9697,3.9697,3.9697,3.9697,3.9697,3.9697,3.9697,3.9697,3.9697,3.9697,3.9697,3.9697,3.9697,3.9697,3.9697,3.9697,3.9546,3.9069,3.8517,3.7965,3.7387,3.6883,3.6505,3.6405,3.6405,3.6405,3.6405,3.6505,3.6757,3.7161,3.7362,3.8199,3.9699,3.8956,3.9904,4.266,4.2457,4.2923,4.4153,4.4269,4.4327,4.4327,4.4327,4.4327,4.2481,4.2706,4.2986,4.2986,4.2986,4.2986,4.2986,4.2986,4.2836,4.2414,4.2263,4.2213,4.2213,4.1756,4.163,4.2238,4.2313,4.2489,4.2911,4.2986,4.2986,4.2986,4.2986,4.2986,4.2986,4.2986,4.2986,4.2986,4.2986,4.2986,4.2986,4.2986,4.2986,4.2986,4.2911,4.261,4.2112,4.1505,4.0899,4.04,3.9923,3.9697,3.9697,3.9697,3.9697,3.9697,3.9697,3.9697,3.9697,3.9697,3.9697,3.9697,3.9697,3.9697,3.9697,3.9697,4.0262,4.0895,3.9981,4.0262,4.0844,3.9981,3.9697,3.9697,3.9697,3.9697,3.9697,3.9697,3.9697,3.9697,3.9697,3.9697,3.9697,3.9697,3.9697,3.9697,3.9697,3.9697,3.9697,3.9697,3.9697,3.9697,3.9697,3.9697,3.9672,3.9597,3.912,3.8542,3.7965,3.7412,3.6933,3.6455,3.6405,3.6405,3.6405,3.6857,3.7111,3.7186,3.8165,3.9143,4.0252,4.0575,4.1794,4.4013,4.2739,4.2952,4.4763,4.5343,4.5634,4.5634,4.5634,4.5634,4.2762,4.2874,4.2986,4.2986,4.2986,4.2986,4.2986,4.2986,4.2911,4.2715,4.2414,4.2112,4.1756,4.1254,4.1053,4.1605,4.1957,4.2288,4.2539,4.2841,4.2986,4.2986,4.2986,4.2986,4.2986,4.2986,4.2986,4.2986,4.2986,4.2986,4.2986,4.2986,4.2986,4.2986,4.2986,4.271,4.2213,4.1605,4.0902,4.0049,3.9798,3.9697,3.9697,3.9697,3.9697,3.9697,3.9697,3.9697,3.9697,3.9697,3.9697,3.9697,3.9697,3.9697,3.9697,3.9697,4.0364,4.1119,4.0693,4.0844,4.1119,4.0693,4.0185,3.9697,3.9697,3.9697,3.9697,3.9697,3.9697,3.9697,3.9697,3.9697,3.9697,3.9697,3.9697,3.9697,3.9697,3.9697,3.9697,3.9697,3.9697,3.9697,3.9697,3.9697,3.9697,3.9697,3.922,3.8768,3.8517,3.7739,3.7086,3.6883,3.6883,3.6883,3.6883,3.7337,3.7789,3.8115,3.9165,4.0343,4.171,4.1977,4.3054,4.5155,4.3967,4.4011,4.543,4.575,4.5895,4.5895,4.5895,4.5895,4.2905,4.2986,4.2986,4.2986,4.2986,4.2986,4.2986,4.2986,4.2986,4.2986,4.259,4.2087,4.163,4.0978,4.0752,4.143,4.1781,4.2087,4.2389,4.2766,4.2986,4.2986,4.2986,4.2986,4.2986,4.2986,4.2986,4.2986,4.2986,4.2986,4.2986,4.2986,4.2986,4.2986,4.2986,4.2841,4.2414,4.1681,4.0724,3.9697,3.9697,3.9697,3.9697,3.9697,3.9826,4.0083,4.0083,4.0083,4.0083,4.0083,3.9929,3.9697,3.9697,3.9826,4.0083,4.0083,4.0895,4.1936,4.1716,4.1617,4.1568,4.1269,4.0516,3.9697,3.9697,3.9697,3.9697,3.9697,3.9697,3.9697,3.9697,3.9697,3.9697,3.9697,3.9697,3.9697,3.9697,3.9697,3.9697,3.9697,3.9697,3.9697,3.9697,3.9697,3.9697,3.9697,3.9346,3.9019,3.8944,3.814,3.7563,3.7412,3.7387,3.7387,3.7387,3.7914,3.8417,3.8894,3.9997,4.1267,4.2716,4.3033,4.4031,4.5866,4.511,4.511,4.5895,4.5895,4.5895,4.5895,4.5895,4.5895,4.2986,4.2986,4.2986,4.2986,4.2986,4.2986,4.2986,4.2986,4.2986,4.2986,4.259,4.2213,4.2162,4.1229,4.0877,4.1986,4.1706,4.1756,4.2785,4.2961,4.2986,4.2986,4.2986,4.2986,4.2986,4.2986,4.2986,4.2986,4.2986,4.2986,4.2986,4.2986,4.2986,4.2986,4.2986,4.2961,4.2936,4.1882,4.0724,3.9697,3.9697,3.9697,3.9697,3.9697,4.0211,4.1119,4.1119,4.1119,4.1119,4.1119,4.0541,3.9697,3.9697,4.0262,4.1119,4.1119,4.2377,4.4031,4.3033,4.2744,4.255,4.1518,4.0516,3.9697,3.9697,3.9697,3.9697,3.9697,3.9697,3.9697,3.9697,3.9697,3.9697,3.9697,3.9697,3.9697,3.9697,3.9697,3.9697,3.9697,3.9697,3.9697,3.9697,3.9697,3.9697,3.9697,3.9672,3.9471,3.8994,3.8869,3.8567,3.8015,3.7965,3.7965,3.7965,3.8492,3.8894,3.8919,4.0308,4.164,4.2744,4.3748,4.4759,4.5895,4.585,4.5821,4.5895,4.5895,4.5895,4.5895,4.5895,4.5895,4.2986,4.2986,4.2986,4.2986,4.2986,4.2986,4.2986,4.2986,4.2986,4.2986,4.2866,4.274,4.274,4.1781,4.1178,4.158,4.1756,4.2007,4.2439,4.276,4.2986,4.2986,4.2986,4.2986,4.2986,4.2986,4.2986,4.2986,4.2986,4.2986,4.2986,4.2986,4.2986,4.2986,4.2986,4.2635,4.1932,4.1476,4.0724,3.9697,3.9697,3.9697,3.9697,3.9697,4.0618,4.2257,4.2257,4.2257,4.2257,4.2257,4.1617,4.0743,4.1445,4.1468,4.1269,4.1963,4.3102,4.4266,4.389,4.3368,4.2744,4.2355,4.1095,3.9697,3.9697,3.9697,3.9697,3.9697,3.9697,3.9697,3.9697,3.9697,3.9697,3.9697,3.9697,3.9697,3.9697,3.9697,3.9697,3.9697,3.9697,3.9697,3.9697,3.9697,3.9697,3.9697,3.9697,3.9622,3.9421,3.9094,3.8844,3.8592,3.8567,3.8567,3.8567,3.9069,3.9677,4.0359,4.1561,4.2404,4.2792,4.3796,4.4172,4.389,4.389,4.4573,4.5895,4.5895,4.5895,4.5895,4.5895,4.5895,4.2986,4.2986,4.2986,4.2986,4.2986,4.2986,4.2986,4.2986,4.2986,4.2986,4.2986,4.2986,4.2986,4.2384,4.1882,4.1882,4.2032,4.2263,4.2464,4.2816,4.2986,4.2986,4.2986,4.2986,4.2986,4.2986,4.2986,4.2986,4.2986,4.2986,4.2986,4.2986,4.2986,4.2986,4.2986,4.2459,4.13,4.1275,4.0724,3.9697,3.9697,3.9697,3.9697,3.9697,4.0844,4.2792,4.2792,4.2985,4.3321,4.3321,4.2474,4.1319,4.2404,4.2355,4.1864,4.2937,4.3937,4.4851,4.4851,4.4172,4.3273,4.2937,4.1617,4.0134,3.98,3.9697,3.9697,3.9697,3.9929,4.0211,4.0211,4.0465,4.0668,4.0262,4.0465,4.0769,4.0769,4.0185,3.9697,3.9697,3.9697,3.9697,3.9697,3.9697,3.9697,3.9697,3.9697,3.9697,3.9697,3.9371,3.9145,3.9145,3.9145,3.9145,3.9145,3.9471,3.9981,4.0642,4.1667,4.2257,4.2257,4.3273,4.3511,4.2792,4.2792,4.3464,4.4879,4.4879,4.4879,4.4879,4.4879,4.4879,0.0,0.0,0.0,4.2986,4.2986,4.2986,4.2986,4.2986,4.2986,4.2986,4.2986,4.2986,4.2986,4.2986,4.2986,4.2986,4.259,4.2414,4.2911,4.2986,4.2986,4.2986,4.2986,4.2986,4.2986,4.2986,4.2986,4.2986,4.2986,4.2986,4.2986,4.2986,4.2986,4.2986,4.2986,4.2459,4.13,4.1275,4.0724,3.9697,3.9697,3.9697,3.9697,3.9697,4.0844,4.2792,4.2792,4.3416,4.4359,4.4359,4.315,4.1419,4.2501,4.2889,4.2985,4.3984,4.4989,4.5895,4.5895,4.5201,4.4125,4.3129,4.2061,4.1019,3.9981,3.9697,3.9697,3.9697,4.0415,4.1219,4.1219,4.2012,4.2501,4.1468,4.2012,4.2744,4.2792,4.1196,3.98,3.98,3.9749,3.9697,3.9749,3.9749,3.9697,3.9697,3.9697,3.9697,3.9697,3.9697,3.9697,3.9697,3.9697,3.9697,3.9697,3.9697,3.9697,3.9749,4.0642,4.1219,4.1219,4.2208,4.2744,4.2695,4.2695,4.2695,4.2695,4.2792,4.2792,4.2792,4.2792,4.2792,4.2986,0.0,0.0,0.0,0.0,0.0,4.2986,4.2986,4.2986,4.2986,4.2986,4.2986,4.2986,4.2986,4.2986,4.2986,4.2916,4.2811,4.2961,4.2986,4.2986,4.2986,4.2986,4.2986,4.2986,4.2986,4.2986,4.2986,4.2986,4.2986,4.2986,4.2986,4.2986,4.2986,4.2986,4.2459,4.13,4.1275,4.0724,3.9697,3.9697,3.9697,3.9697,3.9697,4.0844,4.2792,4.2792,4.3796,4.5429,4.5429,4.4666,4.3531,4.462,4.4573,4.4031,4.5064,4.564,4.5895,4.5895,4.5201,4.4125,4.3129,4.2061,4.1019,3.9981,3.9697,3.9697,3.9697,4.0415,4.1369,4.2159,4.2012,4.1766,4.2257,4.2012,4.1864,4.2647,4.2355,4.1914,4.1914,4.0719,3.9929,4.0642,4.016,3.9697,3.9697,3.9697,3.9697,3.9697,3.9697,3.9697,3.9697,3.9697,3.9697,3.9697,3.9697,4.0032,4.0743,4.1019,4.1219,4.1219,4.1468,4.1269,4.0567,4.0567,4.0567,4.0567,4.2061,4.2792,4.2792,4.2792,4.2792,4.2986,4.2986,4.2986,4.2986,0.0,0.0,4.2986,4.2986,4.2986,4.2986,4.2986,4.2986,4.2986,4.2986,4.2986,4.2986,4.2986,4.2986,4.2986,4.2986,4.2986,4.2986,4.2986,4.2986,4.2986,4.2986,4.2986,4.2986,4.2986,4.2986,4.2986,4.2986,4.2986,4.2986,4.2986,4.2459,4.13,4.1275,4.0724,3.9697,3.9697,3.9697,3.9697,3.9697,4.0844,4.2792,4.2792,4.3984,4.5895,4.5895,4.5293,4.4406,4.5475,4.5247,4.4406,4.5475,4.5895,4.5895,4.5895,4.5475,4.4805,4.3748,4.3006,4.2279,4.1295,4.0995,4.0895,4.0465,4.1095,4.211,4.3177,4.3321,4.3225,4.3416,4.3321,4.3321,4.3937,4.3748,4.3177,4.2306,4.1518,4.0895,4.0592,4.0465,4.016,3.9749,3.9697,3.9697,3.9697,3.9697,3.9697,3.9697,3.9697,3.9697,3.9697,3.9697,3.9929,4.0567,4.0541,4.0541,4.0541,4.0541,4.0313,3.9697,3.9697,3.9697,3.9697,4.0895,4.1495,4.1495,4.1495,4.1495,4.2986,4.2986,4.2986,4.2986,4.2986,0.0,4.2986,4.2986,4.2986,4.2986,4.2986,4.2986,4.2986,4.2986,4.2986,4.2986,4.2986,4.2986,4.2986,4.2986,4.2986,4.2986,4.2986,4.2986,4.2986,4.2986,4.2986,4.2986,4.2986,4.2986,4.2986,4.2986,4.2986,4.2986,4.2986,4.2459,4.13,4.1275,4.0724,3.9697,3.9697,3.9697,3.9697,3.9697,4.0844,4.2792,4.2792,4.3984,4.5895,4.5895,4.5338,4.4545,4.5549,4.5293,4.4591,4.5549,4.5895,4.5895,4.5895,4.5895,4.573,4.4666,4.4312,4.4125,4.3129,4.2792,4.2647,4.1766,4.223,4.3225,4.4219,4.511,4.5475,4.4666,4.511,4.573,4.5866,4.5155,4.389,4.1936,4.2159,4.2061,4.0185,4.0516,4.0743,3.9826,3.9697,3.9697,3.9697,3.98,3.9878,3.9878,3.9878,3.9878,3.9878,3.9749,3.9697,3.9697,3.9697,3.9697,3.9697,3.9697,3.9697,3.9697,3.9697,3.9697,3.9697,3.9697,3.9697,3.9697,3.9697,3.9697,4.2986,4.2986,4.2986,4.2986,4.2986,0.0,4.2986,4.2986,4.2986,4.2986,4.2986,4.2986,4.2986,4.2986,4.2986,4.2986,4.2986,4.2986,4.2986,4.2986,4.2986,4.2986,4.2986,4.2986,4.2986,4.2986,4.2986,4.2986,4.2986,4.2986,4.2986,4.2986,4.2986,4.2986,4.2986,4.2459,4.13,4.1275,4.0724,3.9697,3.9697,3.9697,3.9697,3.9697,4.0844,4.2792,4.2792,4.3984,4.5895,4.5895,4.5776,4.5595,4.585,4.5776,4.5595,4.5821,4.5895,4.5895,4.5895,4.5895,4.573,4.4666,4.4312,4.4125,4.3129,4.2792,4.2937,4.3531,4.3843,4.4266,4.5293,4.511,4.4805,4.5429,4.511,4.4851,4.573,4.573,4.5201,4.3937,4.2523,4.1369,4.0995,4.0415,3.9929,3.9749,3.9697,3.9697,3.9697,4.0415,4.0895,4.0895,4.0895,4.0895,4.0895,4.016,3.9697,3.9697,3.9697,3.9697,3.9697,3.9697,3.9697,3.9697,3.9697,3.9697,3.9697,3.9697,3.9697,3.9697,3.9697,3.9697,4.2986,4.2986,4.2986,4.2986,4.2986,0.0,0.0,4.2986,4.2986,4.2986,4.2986,4.2986,4.2986,4.2986,4.2986,4.2986,4.2986,4.2986,4.2986,4.2986,4.2986,4.2986,4.2986,4.2986,4.2986,4.2986,4.2986,4.2986,4.2986,4.2986,4.2986,4.2986,4.2986,4.2986,4.2986,4.2459,4.13,4.1275,4.0724,3.9697,3.9697,3.9697,3.9697,3.9697,4.0567,4.2061,4.255,4.3701,4.5155,4.5685,4.5895,4.5895,4.5895,4.5895,4.5895,4.5895,4.5895,4.5895,4.5895,4.5895,4.5821,4.5293,4.511,4.4989,4.448,4.3984,4.3748,4.4805,4.4712,4.4545,4.564,4.5475,4.5247,4.5776,4.5504,4.5247,4.5776,4.5895,4.5595,4.4499,4.3054,4.1815,4.1269,4.0794,4.0465,4.0465,4.0032,4.0083,4.1095,4.1219,4.1219,4.1219,4.1219,4.0969,4.0516,3.9981,3.9697,3.9697,4.016,4.0211,3.9749,4.0719,4.0995,4.0465,3.9981,3.9697,3.9697,3.9697,3.9697,3.9697,3.9697,3.9697,4.2986,4.2986,4.2986,4.2986,4.2986,4.2986,0.0,0.0,0.0,4.2986,4.2986,4.2986,4.2986,4.2986,4.2986,4.2986,4.2986,4.2986,4.2986,4.2986,4.2986,4.2986,4.2986,4.2986,4.2986,4.2986,4.2986,4.2986,4.2986,4.2986,4.2986,4.2986,4.2986,4.2986,4.2986,4.2459,4.13,4.1275,4.0724,3.9697,3.9697,3.9697,3.9697,3.9697,4.0364,4.1568,4.2452,4.3511,4.4666,4.5549,4.5895,4.5895,4.5895,4.5895,4.5895,4.5895,4.5895,4.5895,4.5895,4.5895,4.5895,4.5895,4.5895,4.5895,4.5895,4.5293,4.4805,4.564,4.5293,4.4805,4.5685,4.5895,4.5895,4.5895,4.5895,4.5895,4.5895,4.5895,4.564,4.4805,4.3654,4.2452,4.1369,4.1219,4.1219,4.1219,4.0693,4.0895,4.2598,4.2061,4.1518,4.1518,4.1319,4.0895,4.0083,3.9981,3.9981,3.9981,4.0945,4.1045,4.0032,4.1395,4.1815,4.0945,4.0134,3.9697,3.9697,3.9697,3.9697,3.9697,3.9697,3.9697,4.2986,4.2986,4.2986,4.2986,4.2986,4.2986,4.2986,0.0,4.2986,4.2986,0.0,4.2986,4.2986,0.0,0.0,4.2986,4.2986,4.2986,4.2986,4.2986,4.2986,4.2986,4.2986,4.2986,4.2986,4.2986,4.2986,4.2986,4.2986,4.2986,4.2986,4.2986,4.2986,4.2986,4.2986,4.2459,4.13,4.1275,4.0724,3.9697,3.9697,3.9697,3.9697,3.9697,4.0769,4.2647,4.2744,4.389,4.573,4.585,4.5895,4.5895,4.5895,4.5895,4.5895,4.5895,4.5895,4.5895,4.5895,4.5895,4.5895,4.5895,4.5895,4.5895,4.5895,4.5821,4.573,4.5895,4.5821,4.573,4.5895,4.5895,4.5895,4.5895,4.5895,4.5895,4.5895,4.5895,4.5866,4.573,4.4153,4.2452,4.1369,4.1219,4.1219,4.1219,4.1914,4.255,4.2792,4.2695,4.2647,4.2647,4.1766,4.1169,4.1019,4.1019,4.1019,4.1019,4.2012,4.2159,4.1069,4.0415,3.9981,3.9878,3.9749,3.9697,3.9697,3.9697,3.9697,3.9697,3.9697,3.9697,4.2986,4.2986,4.2986,4.2986,4.2986,4.2986,4.2986,4.2986,4.2986,4.2986,0.0,0.0,0.0,0.0,0.0,0.0,4.2986,4.2986,4.2986,4.2986,4.2986,4.2986,4.2986,4.2986,4.2986,4.2986,4.2986,4.2986,4.2986,4.2986,4.2986,4.2986,4.2986,4.2986,4.2986,4.2459,4.13,4.1275,4.0724,3.9697,3.9697,3.9697,3.9697,3.9697,4.0185,4.1045,4.2257,4.3321,4.42,4.5384,4.5895,4.5895,4.5895,4.5895,4.5895,4.5895,4.5895,4.5895,4.5895,4.5895,4.5895,4.5895,4.5895,4.5895,4.5895,4.5895,4.5895,4.5895,4.5895,4.5895,4.5895,4.5895,4.5895,4.5895,4.5895,4.5895,4.5895,4.5895,4.5895,4.5895,4.4712,4.3531,4.3054,4.1985,4.1617,4.2813,4.2889,4.3033,4.3606,4.3177,4.255,4.1963,4.2012,4.1864,4.1269,4.1766,4.1864,4.1219,4.1095,4.1345,4.211,4.0567,3.9981,4.0541,3.9981,3.9697,3.9697,3.9697,3.9697,3.9697,3.9697,3.9697,4.2986,4.2986,4.2986,4.2986,4.2986,4.2986,4.2986,4.2986,4.2986,4.2986,4.2986,0.0,0.0,0.0,0.0,0.0,0.0,4.2986,4.2986,4.2986,4.2986,4.2986,4.2986,4.2986,4.2986,4.2986,4.2986,4.2986,4.2986,4.2986,4.2986,4.2986,4.2986,4.2986,4.2986,4.2459,4.13,4.1275,4.0724,3.9697,3.9697,3.9697,3.9697,3.9697,4.0032,4.0618,4.2159,4.3129,4.3748,4.5293,4.5895,4.5895,4.5895,4.5895,4.5895,4.5895,4.5895,4.5895,4.5895,4.5895,4.5895,4.5895,4.5895,4.5895,4.5895,4.5895,4.5895,4.5895,4.5895,4.5895,4.5895,4.5895,4.5895,4.5895,4.5895,4.5895,4.5895,4.5895,4.5895,4.5895,4.5035,4.4406,4.4712,4.3245,4.2571,4.4078,4.3937,4.389,4.4666,4.3843,4.2909,4.2133,4.2501,4.2501,4.1716,4.2571,4.2861,4.2084,4.0844,4.0794,4.2306,4.0668,4.0032,4.0794,4.0083,3.9697,3.9697,3.9697,3.9697,3.9697,3.9697,3.9697,4.2986,0.0,4.2986,4.2986,4.2986,4.2986,4.2986,4.2986,4.2986,4.2986,4.2986,4.2986,4.2986,0.0,0.0,0.0,0.0,0.0,0.0,4.2986,4.2986,4.2986,4.2986,4.2986,4.2986,4.2986,4.2986,0.0,4.2986,4.2986,4.2986,4.2986,4.2986,4.2986,4.2986,4.2459,4.13,4.1275,4.0724,3.9697,3.9697,3.9697,3.9697,3.9697,4.082,4.2695,4.2792,4.3937,4.5805,4.5895,4.5895,4.5895,4.5895,4.5895,4.5895,4.5895,4.5895,4.5895,4.5895,4.5895,4.5895,4.5895,4.5895,4.5895,4.5895,4.5895,4.5895,4.5895,4.5895,4.5895,4.5895,4.5895,4.5895,4.5895,4.5895,4.5895,4.5895,4.5895,4.5895,4.5895,4.5035,4.4666,4.5685,4.4943,4.4219,4.4312,4.5155,4.5821,4.5821,4.4897,4.4266,4.4219,4.3368,4.2792,4.2744,4.3701,4.4266,4.4219,4.2279,4.1169,4.1269,4.0262,3.9749,3.9749,3.9749,3.9697,3.9697,3.9697,3.9697,3.9697,3.9697,3.9697,0.0,0.0,4.2986,4.2986,0.0,0.0,4.2986,4.2986,4.2986,4.2986,4.2986,4.2986,4.2986,0.0,0.0,0.0,0.0,0.0,0.0,4.2986,4.2986,4.2986,4.2986,4.2986,4.2986,4.2986,0.0,0.0,4.2986,0.0,4.2986,4.2986,4.2986,4.2986,4.2986,4.2459,4.13,4.1275,4.0724,3.9697,3.9697,3.9697,3.9697,3.9697,4.0465,4.1766,4.2501,4.3559,4.4897,4.5595,4.5895,4.5895,4.5895,4.5895,4.5895,4.5895,4.5895,4.5895,4.5895,4.5895,4.5895,4.5895,4.5895,4.5895,4.5895,4.5895,4.5895,4.5895,4.5895,4.5895,4.5895,4.5895,4.5895,4.5895,4.5895,4.5895,4.5895,4.5895,4.5895,4.5895,4.5595,4.5475,4.585,4.5595,4.5338,4.5338,4.5685,4.564,4.4943,4.4499,4.4078,4.3368,4.3606,4.3796,4.3796,4.3511,4.3321,4.3321,4.1395,4.0211,4.0211,4.0516,4.0364,3.9697,4.1045,4.1045,3.9697,4.1095,4.1045,3.9749,4.0364,4.0364,4.3098,4.2986,0.0,4.2986,4.2986,0.0,4.2986,0.0,4.2986,0.0,0.0,0.0,0.0,0.0,0.0,0.0,0.0,0.0,0.0,4.2986,4.2986,4.2986,4.2986,4.2986,4.2986,4.2986,4.2986,4.2986,0.0,0.0,0.0,4.2986,4.2986,4.2986,4.2986,4.2459,4.13,4.1275,4.0724,3.9697,3.9697,3.9697,3.9697,3.9697,4.0465,4.1815,4.2501,4.3606,4.4897,4.5595,4.5895,4.5895,4.5895,4.5895,4.5895,4.5895,4.5895,4.5895,4.5895,4.5895,4.5895,4.5895,4.5895,4.5895,4.5895,4.5895,4.5895,4.5895,4.5895,4.5895,4.5895,4.5895,4.5895,4.5895,4.5895,4.5895,4.5895,4.5895,4.5895,4.5895,4.5895,4.5895,4.5895,4.5895,4.5895,4.5895,4.5895,4.564,4.4943,4.4851,4.462,4.3984,4.448,4.4851,4.4851,4.3606,4.2937,4.3321,4.1716,4.0618,4.0262,4.1219,4.1278,4.0275,4.1555,4.1579,4.0275,4.1253,4.0995,3.9749,4.0364,4.0313]}]]